     2              OBSERVATION DATA    GPS                 RINEX VERSION / TYPE
teqc 2000Feb29 Daniel Johnson 20011005 02:54:09UTC          PGM / RUN BY / DATE
                                                            COMMENT
L2: 1 -> 1; 5 -> 5; 60 -> 9                                 COMMENT
L2: 1 -> 1; 5 -> 5; 60 -> 9                                 COMMENT
L2: 1 -> 1; 5 -> 5; 60 -> 9                                 COMMENT
L2: 1 -> 1; 5 -> 5; 60 -> 9                                 COMMENT
L2: 1 -> 1; 5 -> 5; 60 -> 9                                 COMMENT
L2: 1 -> 1; 5 -> 5; 60 -> 9                                 COMMENT
L2: 1 -> 1; 5 -> 5; 60 -> 9                                 COMMENT
L2: 1 -> 1; 5 -> 5; 60 -> 9                                 COMMENT
L2: 1 -> 1; 5 -> 5; 60 -> 9                                 COMMENT
L2: 1 -> 1; 5 -> 5; 60 -> 9                                 COMMENT
L2: 1 -> 1; 5 -> 5; 60 -> 9                                 COMMENT
L2: 1 -> 1; 5 -> 5; 60 -> 9                                 COMMENT
L2: 1 -> 1; 5 -> 5; 60 -> 9                                 COMMENT
L2: 1 -> 1; 5 -> 5; 60 -> 9                                 COMMENT
Original Marker Name: WSTG PASS                             COMMENT
Campaign Name: CWU ECSZ 2001                                COMMENT
4-Character Station Name: WGRD                              COMMENT
6-Character Antenna Code: DMRCHT                            COMMENT
Vertical Measurement Point: BPA                             COMMENT
Vertical Offset to Rinex Ref. Point: 0.0000                 COMMENT
Radial Measurement Point: RRP                               COMMENT
Radial Offset to Rinex Ref. Point: 0.0000                   COMMENT
Antenna Height from Field Measurement: 0.0814 m             COMMENT
Additional Antenna Identification Info.:                    COMMENT
Turborogue and Ashtech Choke Ring                           COMMENT
Original XYZ: -2398507.9063 -4482207.8355 3842677.1868      COMMENT
New XYZ position is based on association with SCEC monument COMMENT
E1F7Y5I3+0011. Position of that monument is believed to be  COMMENT
valid to within 1 m horizontally; vertical accuracy         COMMENT
should be no worse than 3-times this value.                 COMMENT
                                                            COMMENT
Revised Rinex header created by UCSD GPS archive for        COMMENT
GSAC on 09-Nov-2004 (2004:314) 22:57:24 GMT                 COMMENT
For assistance contact dagnew@ucsd.edu                      COMMENT
or anderson@python.ucsd.edu                                 COMMENT
                                                            COMMENT
3021 S                                                      MARKER NAME
WSTG                                                        MARKER NUMBER
DJ CENTRAL WASHINGTON UNIVERSITY                            OBSERVER / AGENCY
24595 TRIMBLE 4000 SSI NP 7.19; SP 3.04                     REC # / TYPE / VERS
66916 DORNE-MARGOL. TYPE T                                  ANT # / TYPE
 -2398509.0000 -4482210.0000  3842678.0000                  APPROX POSITION XYZ
        0.0814        0.0000        0.0000                  ANTENNA: DELTA H/E/N
     1     1     0                                          WAVELENGTH FACT L1/2
     9    L1    L2    C1    P2    P1    D1    D2    S1    S2# / TYPES OF OBSERV
    30                                                      INTERVAL
  2001     3    21     0     0   30.000000                  TIME OF FIRST OBS
  2001     3    21    23    59    0.000000                  TIME OF LAST OBS
                                                            END OF HEADER
 01  3 21  0  0 30.0000000  0  8G22G18G 6G17G30G23G10G26
   -562701.61655   -392940.06655  23833631.8594   23833638.1884
      -320.2974       -249.5824         11.2504          9.5004
  -6381960.60856  -4625229.27656  22969330.6954   22969336.4614
      1480.0004       1153.2474         17.7504         13.7504
   -689372.93458   -468180.70757  20586907.2814   20586912.8484
     -2219.5624      -1729.5294         34.0004         31.7504
  -5773623.90658  -4401189.22857  21552193.6094   21552199.4924
      -558.2194       -434.9764         31.0004         27.2504
  19723757.01456  15495645.27855  23686682.8054   23686690.4494
     -5183.3124      -4038.9454         13.7504         11.0004
  -6598960.98257  -5026811.21756  22221104.3914   22221111.0824
       757.0634        589.9194         22.7504         20.7504
  12940391.14556  10199041.15656  23025475.2584   23025482.5274
     -4829.3444      -3763.1254         16.0004         13.7504
  -4052596.02756  -3080881.59956  22738155.2344   22738162.3284
       265.6564        207.0054         14.5004         13.2504
 01  3 21  0  1  0.0000000  0  8G22G18G 6G17G30G23G10G26
   -552840.45845   -385256.04345  23835508.5864   23835515.3134
      -337.2504       -262.7924         11.2504         10.2504
  -6426229.60346  -4659724.45046  22960906.9384   22960913.7344
      1471.1564       1146.3564         17.7504         14.5004
   -622560.69648   -416119.24147  20599621.6884   20599627.0434
     -2234.7034      -1741.3274         34.0004         32.0004
  -5756779.58648  -4388063.77847  21555398.9384   21555404.9144
      -564.8284       -440.1264         31.0004         27.2504
  19879305.90046  15616852.08345  23716282.6564   23716289.7504
     -5186.6874      -4041.5754         13.2504         11.2504
  -6621494.76347  -5044369.93346  22216816.4304   22216823.6994
       745.0784        580.5804         23.0004         21.0004
  13085387.71846  10312025.47146  23053066.8674   23053073.7734
     -4837.1874      -3769.2374         16.0004         14.0004
  -4060349.60946  -3086923.28146  22736679.7274   22736686.4884
       251.1564        195.7064         15.0004         13.7504
 01  3 21  0  1 30.0010000  0  8G22G18G 6G17G30G23G10G26
   -542473.55445   -377177.95345  23837480.8174   23837488.4384
      -353.8914       -275.7594         10.2504          9.5004
  -6470238.42546  -4694016.90046  22952532.1464   22952538.5214
      1462.6414       1139.7204         18.2504         14.5004
   -555296.58348   -363705.65647  20612421.5054   20612426.8604
     -2249.4534      -1752.8214         34.0004         32.2504
  -5739740.96748  -4374786.92747  21558641.4584   21558647.4464
      -571.0474       -444.9724         31.2504         27.5004
  20034954.55646  15738136.60345  23745902.1774   23745909.7744
     -5189.5474      -4043.8034         13.2504         11.0004
  -6643673.46247  -5061651.97646  22212596.3104   22212603.2284
       733.4384        571.5104         24.2504         21.2504
  13230618.86946  10425192.56246  23080704.0054   23080710.7434
     -4844.5624      -3774.9844         16.5004         14.2504
  -4067671.33546  -3092628.47246  22735286.3024   22735293.6654
       236.9384        184.6274         14.7504         13.5004
 01  3 21  0  2  0.0010000  0  8G22G18G 6G17G30G23G10G26
   -531602.58145   -368707.03745  23839549.4974   23839556.1774
      -370.6874       -288.8474         10.5004          9.2504
  -6513984.63446  -4728104.72946  22944206.7784   22944213.0364
      1453.9384       1132.9384         17.2504         14.5004
   -487586.80348   -310944.80047  20625306.0284   20625311.4894
     -2264.3754      -1764.4484         34.0004         32.0004
  -5722511.76748  -4361361.56847  21561919.8104   21561925.8924
      -577.3914       -449.9154         31.2504         27.5004
  20190687.31946  15859486.69445  23775536.8884   23775545.5524
     -5192.4374      -4046.0554         12.5004         10.5004
  -6665496.47047  -5078656.85746  22208442.9424   22208449.4584
       721.6094        562.2934         23.5004         21.0004
  13376069.84446  10538530.94246  23108382.2084   23108389.1264
     -4851.9694      -3780.7554         16.5004         14.0004
  -4074560.07946  -3097996.27246  22733975.5134   22733982.5364
       222.4844        173.3644         15.0004         14.2504
 01  3 21  0  2 30.0010000  0  8G22G18G 6G17G30G23G10G26
   -520230.60845   -359845.75245  23841714.2084   23841720.5484
      -387.2664       -301.7654         11.0004          9.5004
  -6557472.31146  -4761991.09346  22935931.7784   22935938.1534
      1445.4224       1126.3034         17.7504         14.5004
   -419433.00948   -257837.96447  20638275.4114   20638280.8374
     -2279.0474      -1775.8814         34.0004         32.0004
  -5705095.90948  -4347790.76347  21565234.4034   21565240.3924
      -583.4844       -454.6634         31.5004         27.5004
  20346501.73346  15980900.34545  23805187.2394   23805196.2434
     -5194.9844      -4048.0404         12.5004         10.7504
  -6686967.69247  -5095387.62646  22204356.9354   22204363.4154
       709.9844        553.2354         23.0004         20.7504
  13521738.25846  10652038.75946  23136102.1224   23136109.0874
     -4859.0474      -3786.2704         16.0004         14.2504
  -4081017.77246  -3103028.18446  22732746.4894   22732754.1224
       208.1884        162.2244         14.7504         14.2504
 01  3 21  0  3  0.0010000  0  8G22G18G 6G17G30G23G10G26
   -508352.34645   -350589.95545  23843974.3724   23843980.8884
      -404.2034       -314.9634         11.0004          9.7504
  -6600694.65646  -4795670.72146  22927706.8964   22927712.9894
      1436.5004       1119.3514         18.0004         14.7504
   -350829.95748   -204381.05547  20651329.9974   20651335.3414
     -2294.0784      -1787.5934         34.0004         31.7504
  -5687488.78948  -4334070.92547  21568584.6924   21568590.7394
      -589.9064       -459.6674         31.5004         27.7504
  20502399.89146  16102379.32445  23834853.4354   23834861.5834
     -5197.7974      -4050.2314         12.2504         10.7504
  -6708081.15647  -5111839.61846  22200339.4354   22200345.7284
       698.0004        543.8964         23.2504         20.7504
  13667626.41246  10765717.78546  23163863.9424   23163870.3644
     -4866.3914      -3791.9934         16.2504         14.2504
  -4087036.64646  -3107718.17346  22731601.8804   22731608.2904
       193.4534        150.7434         15.5004         14.0004
 01  3 21  0  3 30.0010000  0  8G22G18G 6G17G30G23G10G26
   -495972.70245   -340943.48945  23846329.6304   23846336.8644
      -420.8914       -327.9674         10.5004          9.2504
  -6643655.78546  -4829146.79946  22919531.4894   22919537.5604
      1427.7814       1112.5574         17.7504         14.2504
   -281782.90048   -150578.17447  20664469.3174   20664474.9074
     -2308.8444      -1799.0994         34.0004         31.7504
  -5669696.60448  -4320206.88247  21571970.2944   21571976.2944
      -596.0314       -464.4404         31.0004         27.5004
  20658372.96546  16223916.63345  23864534.2474   23864542.1034
     -5200.1874      -4052.0944         12.0004         10.7504
  -6728841.49247  -5128016.46446  22196388.6064   22196395.0054
       686.2344        534.7284         23.5004         20.7504
  13813725.38846  10879561.08346  23191665.7864   23191672.7744
     -4873.3284      -3797.3994         16.5004         14.5004
  -4092619.76946  -3112068.59046  22730538.8254   22730544.7554
       178.9384        139.4324         15.0004         14.0004
 01  3 21  0  4  0.0010000  0  8G22G18G 6G17G30G23G10G26
   -483090.86045   -330905.68745  23848781.5444   23848788.9194
      -437.9374       -341.2504         11.0004         10.2504
  -6686354.61346  -4862418.47446  22911405.7864   22911412.7044
      1418.7344       1105.5074         17.7504         14.7504
   -212292.14548    -96429.55047  20677692.8104   20677698.4584
     -2323.9224      -1810.8484         34.0004         31.5004
  -5651719.98948  -4306199.13247  21575391.1304   21575397.1424
      -602.4534       -469.4444         31.2504         27.7504
  20814417.13846  16345509.35945  23894228.9744   23894238.1884
     -5202.7814      -4054.1154         12.2504         11.2504
  -6749248.15647  -5143917.70846  22192505.6384   22192512.3174
       674.1414        525.3044         24.2504         21.5004
  13960031.94746  10993566.15346  23219507.1304   23219514.2354
     -4880.4844      -3802.9754         16.2504         13.7504
  -4097765.08246  -3116077.84546  22729559.3254   22729566.0174
       164.0164        127.8044         14.7504         13.7504
 01  3 21  0  4 30.0010000  0  8G22G18G 6G17G30G23G10G26
   -469696.41945   -320468.41145  23851330.6464   23851336.8804
      -455.0314       -354.5704         10.7504          9.5004
  -6728779.99546  -4895477.07846  22903332.3804   22903338.8604
      1409.6094       1098.3974         18.0004         14.2504
   -142347.98748    -41927.62047  20691002.9034   20691008.3884
     -2339.0314      -1822.6224         34.0004         31.5004
  -5633549.89048  -4292040.60847  21578848.9194   21578854.8964
      -608.8914       -474.4604         31.5004         28.0004
  20970538.64646  16467162.33145  23923938.4114   23923945.7984
     -5205.2974      -4056.0754         12.5004         10.7504
  -6769290.65747  -5159535.18946  22188691.4974   22188697.9664
       662.0004        515.8444         24.5004         21.5004
  14106552.83246  11107738.20346  23247388.8254   23247395.3064
     -4887.5624      -3808.4904         15.2504         13.2504
  -4102460.62046  -3119736.65346  22728666.0604   22728672.9544
       149.0004        116.1044         15.2504         14.0004
 01  3 21  0  5  0.0010000  0  8G22G18G 6G17G30G23G10G26
   -455792.98445   -309634.61945  23853975.7004   23853982.5214
      -471.8594       -367.6834          9.7504          9.7504
  -6770934.48546  -4928324.64446  22895310.7244   22895317.0054
      1400.6724       1091.4334         18.5004         14.5004
    -71954.22448     12924.64547  20704398.5214   20704404.0874
     -2353.9064      -1834.2134         34.0004         31.5004
  -5615190.87148  -4277734.87447  21582342.3804   21582348.4624
      -615.0624       -479.2694         31.2504         27.7504
  21126730.05645  16588869.78145  23953660.1614   23953668.8724
     -5207.4374      -4057.7444         11.7504         10.2504
  -6788972.04847  -5174871.27946  22184946.1144   22184952.7354
       650.0784        506.5544         23.7504         21.5004
  14253281.01546  11222071.80546  23275310.0994   23275316.7084
     -4894.2974      -3813.7384         14.7504         13.2504
  -4106707.79846  -3123046.08046  22727858.2784   22727865.2904
       134.1254        104.5134         15.7504         14.0004
 01  3 21  0  5 30.0010000  0  8G22G18G 6G17G30G23G10G26
   -441384.95645   -298407.57345  23856718.0834   23856725.2244
      -488.7034       -380.8084          9.7504          9.7504
  -6812821.02846  -4960963.38646  22887340.0214   22887346.5604
      1391.7194       1084.4564         18.7504         14.7504
     -1115.23948     68123.83647  20717878.6854   20717884.0054
     -2368.7344      -1845.7674         34.0004         31.5004
  -5596647.99348  -4263285.87647  21585871.0604   21585877.0604
      -621.1724       -484.0304         31.0004         27.7504
  21282983.50546  16710625.58945  23983394.0054   23983402.2944
     -5209.4534      -4059.3144         12.2504         10.5004
  -6808295.81147  -5189928.71146  22181268.6614   22181275.1884
       638.1414        497.2524         23.5004         21.5004
  14400208.94546  11336561.03946  23303269.4584   23303275.9154
     -4900.9064      -3818.8884         14.7504         12.5004
  -4110508.73546  -3126007.77546  22727134.4814   22727141.2204
       119.2344         92.9104         16.0004         14.5004
 01  3 21  0  6  0.0010000  0  8G22G18G 6G17G30G23G10G26
   -426467.39945   -286783.46445  23859556.8104   23859563.5364
      -505.8284       -394.1524         10.0004          9.7504
  -6854434.36646  -4993389.26646  22879420.7474   22879427.0754
      1382.4844       1077.2614         18.2504         14.2504
     70173.21048    123673.25947  20731444.6614   20731450.0284
     -2383.8284      -1857.5284         34.0004         31.7504
  -5577917.73048  -4248690.86547  21589435.3174   21589441.2594
      -627.5164       -488.9734         30.7504         27.5004
  21439299.89046  16832430.38945  24013140.4354   24013148.3604
     -5211.6254      -4061.0064         12.5004         10.2504
  -6827257.15447  -5204703.72746  22177660.3804   22177667.4744
       625.9224        487.7314         23.5004         21.7504
  14547337.45346  11451206.57646  23331266.8724   23331273.6344
     -4907.6564      -3824.1484         14.2504         12.7504
  -4113856.83646  -3128616.63246  22726497.0444   22726503.8064
       103.9844         81.0274         15.2504         14.5004
 01  3 21  0  6 30.0010000  0  8G22G18G 6G17G30G23G10G26
   -411036.77545   -274759.59745  23862492.4744   23862498.0994
      -522.9224       -407.4724          9.7504          9.7504
  -6895770.09346  -5025598.80346  22871554.7084   22871561.5404
      1373.2034       1070.0284         18.2504         15.0004
    141913.89148    179575.07247  20745096.0754   20745101.5604
     -2398.8914      -1869.2654         34.0004         31.5004
  -5558997.80848  -4233948.05847  21593035.5134   21593041.4074
      -633.8284       -493.8924         31.0004         27.7504
  21595678.37846  16954283.61745  24042898.3884   24042905.0214
     -5213.6094      -4062.5534         12.5004         10.7504
  -6845852.69847  -5219193.71546  22174121.6774   22174128.5604
       613.7344        478.2354         23.7504         21.5004
  14694666.16046  11566008.12346  23359303.0054   23359309.5324
     -4914.2664      -3829.2984         14.5004         12.2504
  -4116747.32846  -3130868.91046  22725946.8564   22725953.4314
        88.7034         69.1194         15.2504         14.2504
 01  3 21  0  7  0.0010000  0  8G22G18G 6G17G30G23G10G26
   -395089.82345   -262333.38845  23865527.7714   23865533.8764
      -540.0624       -420.8284         10.5004          9.7504
  -6936824.29346  -5057588.96946  22863741.9974   22863748.3254
      1363.8754       1062.7604         17.7504         15.5004
    214109.41048    235831.30747  20758834.5754   20758840.1304
     -2413.9844      -1881.0274         34.0004         31.5004
  -5539886.03148  -4219055.75547  21596672.3804   21596678.3104
      -640.1254       -498.7994         31.0004         27.5004
  21752118.40646  17076184.80345  24072668.5524   24072676.7824
     -5215.5474      -4064.0624         12.7504         10.7504
  -6864078.90647  -5233395.90546  22170653.4504   22170659.9784
       601.4844        468.6894         23.5004         21.2504
  14842194.77446  11680965.43046  23387376.8964   23387384.6104
     -4920.8124      -3834.3994         14.5004         12.2504
  -4119174.86546  -3132760.41646  22725485.9034   22725493.2204
        73.2974         57.1144         16.2504         14.7504
 01  3 21  0  7 30.0010000  0  8G22G18G 6G17G30G23G10G26
   -378635.00945   -249511.48045  23868659.2784   23868665.3024
      -557.0784       -434.0874         10.5004          9.5004
  -6977604.32646  -5089365.52246  22855981.9114   22855988.3564
      1354.6094       1055.5404         17.7504         15.5004
    286751.09548    292435.20047  20772657.7944   20772663.4544
     -2428.9694      -1892.7034         34.0004         31.5004
  -5520591.73648  -4204021.23147  21600343.8644   21600349.8994
      -646.3124       -503.6204         30.7504         27.5004
  21908608.05146  17198124.61045  24102447.2004   24102455.6774
     -5217.2504      -4065.3904         12.5004         10.0004
  -6881943.57447  -5247316.38446  22167254.4504   22167260.4744
       589.3134        459.2054         25.2504         21.7504
  14989911.81746  11796069.56246  23415486.5444   23415492.8964
     -4927.1414      -3839.3304         15.0004         12.0004
  -4121145.92446  -3134296.23146  22725110.5834   22725117.6184
        57.9224         45.1344         16.0004         14.5004
 01  3 21  0  8  0.0010000  0  8G22G18G 6G17G30G23G10G26
   -361671.37945   -236293.04745  23871887.0604   23871893.7164
      -574.0164       -447.2854         10.0004          9.2504
  -7018107.65846  -5120926.45046  22848274.6924   22848281.0564
      1345.4224       1048.3814         18.7504         15.5004
    359840.13148    349387.67747  20786566.3564   20786571.8064
     -2443.8284      -1904.2824         34.0004         31.5004
  -5501114.51848  -4188844.17447  21604050.6144   21604056.6144
      -652.3444       -508.3204         31.2504         27.7504
  22065144.66846  17320101.07045  24132235.0364   24132243.7124
     -5218.6874      -4066.5104         13.0004         10.0004
  -6899445.04947  -5260953.83946  22163923.7084   22163929.9664
       577.2664        449.8174         24.5004         22.0004
  15137814.82546  11911318.62046  23443631.8024   23443638.0954
     -4933.2194      -3844.0674         15.5004         12.0004
  -4122657.22946  -3135473.79546  22724822.9354   22724830.4974
        42.6254         33.2144         16.2504         15.0004
 01  3 21  0  8 30.0010000  0  8G22G18G 6G17G30G23G10G26
   -344194.09745   -222674.37945  23875211.3644   23875218.0564
      -591.2974       -460.7514          9.2504          8.7504
  -7058328.76546  -5152267.47946  22840620.9974   22840626.9384
      1335.8444       1040.9174         18.7504         15.5004
    433380.44648    406691.79747  20800560.5134   20800565.9154
     -2459.0164      -1916.1164         34.0004         31.5004
  -5481450.99648  -4173521.93547  21607792.2864   21607798.2744
      -658.7034       -513.2754         31.0004         27.7504
  22221729.06746  17442114.75545  24162032.6774   24162041.9854
     -5220.3754      -4067.8254         12.2504         10.2504
  -6916578.50247  -5274304.53846  22160663.6534   22160669.9114
       564.8134        440.1144         25.5004         22.5004
  15285904.70646  12026713.29745  23471812.7394   23471820.4544
     -4939.5624      -3849.0104         15.7504         11.5004
  -4123702.54946  -3136288.26146  22724623.6924   22724630.6694
        26.9064         20.9664         15.2504         14.5004
 01  3 21  0  9  0.0010000  0  8G22G18G 6G17G30G23G10G26
   -326198.84645   -208652.10445  23878636.7004   23878643.6424
      -608.4224       -474.0954         10.5004          9.5004
  -7098262.85846  -5183384.82646  22833021.4744   22833027.4974
      1326.4064       1033.5634         19.2504         15.5004
    507375.43948    464350.21447  20814641.0754   20814646.7594
     -2474.0164      -1927.8044         34.0004         31.2504
  -5461598.19448  -4158052.22147  21611570.0604   21611576.0364
      -664.8444       -518.0604         30.7504         27.7504
  22378361.47245  17564165.83345  24191838.7944   24191847.7634
     -5221.7664      -4068.9084         11.7504         10.2504
  -6933339.60947  -5287365.10146  22157473.8884   22157479.9464
       552.5474        430.5564         25.2504         22.0004
  15434182.12446  12142254.12245  23500028.7164   23500034.8684
     -4945.6094      -3853.7224         15.7504         10.5004
  -4124276.06146  -3136735.09246  22724513.8564   22724521.4784
        11.3134          8.8154         14.7504         14.2504
 01  3 21  0  9 30.0010000  0  8G22G18G 6G17G30G23G10G26
   -307689.29445   -194229.05245  23882159.2474   23882166.3174
      -625.5784       -487.4634         11.2504         10.2504
  -7137912.65546  -5214280.63846  22825476.3964   22825482.9234
      1316.8594       1026.1244         19.2504         15.7504
    581821.13848    522359.83447  20828808.0364   20828813.6384
     -2489.0784      -1939.5414         34.0004         31.2504
  -5441560.71348  -4142438.58647  21615383.0674   21615389.1494
      -671.0314       -522.8814         31.0004         27.7504
  22535034.56545  17686248.60845  24221651.9034   24221661.1534
     -5223.1254      -4069.9684         11.0004         10.5004
  -6949731.69347  -5300138.09646  22154354.7004   22154361.1694
       540.2034        420.9384         25.2504         22.2504
  15582640.12746  12257935.65045  23528278.9584   23528285.3104
     -4951.6094      -3858.3974         15.0004         11.0004
  -4124379.42446  -3136815.53246  22724494.4504   22724501.5914
        -4.4534         -3.4704         15.2504         14.5004
 01  3 21  0 10  0.0010000  0  8G22G18G 6G17G30G23G10G26
   -288660.94145   -179401.78645  23885780.6384   23885787.3884
      -643.1094       -501.1244         11.5004         10.0004
  -7177272.05246  -5244950.17846  22817986.6384   22817992.8374
      1306.9534       1018.4054         19.7504         15.7504
    656722.15448    580724.25047  20843060.8884   20843066.5954
     -2504.4534      -1951.5224         34.0004         31.0004
  -5421334.08648  -4126677.56847  21619232.2634   21619238.2044
      -677.5314       -527.9464         31.0004         27.7504
  22691749.60046  17808364.03845  24251474.8964   24251484.3334
     -5224.6724      -4071.1734         12.0004         10.0004
  -6965749.48347  -5312619.44146  22151305.9194   22151312.6694
       527.5164        411.0514         24.7504         22.5004
  15731279.97046  12373758.84645  23556564.1534   23556572.0094
     -4957.8284      -3863.2434         15.0004         10.7504
  -4124005.80346  -3136524.32846  22724565.7864   22724572.8564
       -20.5944        -16.0474         16.5004         14.7504
 01  3 21  0 10 30.0010000  0  8G22G18G 6G17G30G23G10G26
   -269115.89745   -164171.87045  23889499.1064   23889505.6814
      -660.2194       -514.4564         10.5004          9.5004
  -7216342.06046  -5275394.22046  22810551.4354   22810557.7044
      1297.3914       1010.9544         19.7504         16.0004
    732075.94148    639441.47247  20857400.3964   20857406.0794
     -2519.4374      -1963.1984         34.0004         31.0004
  -5400921.36848  -4110771.54347  21623116.4974   21623122.5324
      -683.6254       -532.6954         30.7504         27.5004
  22848500.65346  17930507.56845  24281303.1924   24281311.8684
     -5225.7034      -4071.9764         12.0004         10.2504
  -6981394.62647  -5324810.41646  22148328.4034   22148334.9424
       515.1884        401.4454         24.0004         22.2504
  15880096.44146  12489719.69645  23584883.3414   23584889.6464
     -4963.5624      -3867.7114         15.0004         10.7504
  -4123155.37246  -3135861.59646  22724727.7784   22724734.5054
       -36.4064        -28.3694         17.0004         15.0004
 01  3 21  0 11  0.0010000  0  8G22G18G 6G17G30G23G10G26
   -249053.56145   -148538.87145  23893316.3724   23893324.4744
      -677.3444       -527.8004         10.2504          9.7504
  -7255121.62646  -5305611.93046  22803171.5914   22803177.1344
      1287.8284       1003.5024         19.5004         15.7504
    807882.19748    698511.26047  20871825.7394   20871831.2824
     -2534.3914      -1974.8504         34.0004         31.0004
  -5380323.29148  -4094721.07947  21627036.0444   21627042.0094
      -689.6564       -537.3944         30.2504         27.5004
  23005284.30745  18052676.50345  24311138.7314   24311146.4704
     -5226.6094      -4072.6834         11.7504         10.2504
  -6996666.58847  -5336710.60346  22145422.4744   22145429.1774
       502.8594        391.8384         25.0004         22.2504
  16029086.42746  12605815.76145  23613235.2244   23613241.3534
     -4969.1724      -3872.0824         15.0004         10.5004
  -4121826.05246  -3134825.70746  22724980.6304   22724987.4384
       -52.2814        -40.7394         16.5004         14.7504
 01  3 21  0 11 30.0010000  0  8G22G18G 6G17G30G23G10G26
   -228473.82945   -132502.64445  23897232.6144   23897241.0674
      -694.7034       -541.3274         10.5004         11.7504
  -7293609.79146  -5335602.57046  22795847.3334   22795853.3454
      1277.9694        995.8204         19.5004         16.2504
    884140.67448    757933.43247  20886337.4354   20886342.8964
     -2549.5784      -1986.6844         34.0004         31.0004
  -5359540.75648  -4078526.88247  21630990.9584   21630996.8884
      -695.9064       -542.2654         30.2504         27.5004
  23162096.95645  18174868.00145  24340979.8414   24340989.4544
     -5227.6414      -4073.4864         11.5004         10.5004
  -7011565.15247  -5348319.83546  22142588.0604   22142594.5174
       490.2974        382.0504         26.2504         23.0004
  16178246.51846  12722044.33745  23641619.4744   23641626.2004
     -4974.8914      -3876.5384         14.7504         10.2504
  -4120016.14046  -3133415.33346  22725324.8564   22725330.6574
       -68.4534        -53.3404         16.5004         14.5004
 01  3 21  0 12  0.0010000  0  8G22G18G 6G17G30G23G10G26
   -207373.18545                  23901248.1064
      -711.9374                         11.2504
  -7331801.86547  -5365362.50946  22788579.9034   22788586.0094
      1268.2194        988.2224         20.2504         16.0004
    960854.56448    817710.47747  20900935.4194   20900940.9274
     -2564.6094      -1998.3974         33.7504         30.7504
  -5338570.73348  -4062186.59947  21634981.3254   21634987.2204
      -702.0164       -547.0254         30.2504         27.5004
  23318938.79445  18297082.24345  24370825.9114   24370833.4744
     -5228.4064      -4074.0834         11.5004          9.0004
  -7026086.16747  -5359634.86546  22139824.6304   22139830.8534
       477.8444        372.3464         26.7504         23.0004
  16327577.49446  12838406.11445  23670036.1384   23670042.7124
     -4980.4064      -3880.8364         14.0004         10.0004
  -4117719.98746  -3131626.05346  22725761.3104   22725767.5794
       -84.5624        -65.8934         15.2504         15.0004
 01  3 21  0 12 30.0010000  0  8G22G18G 6G17G30G23G10G26
   -185755.18446                  23905362.8564
      -729.3284                         12.2504
  -7369699.64847  -5394893.13446  22781367.9744   22781373.8924
      1258.2664        980.4674         20.2504         16.7504
   1038020.57248    877839.82147  20915619.6534   20915625.3724
     -2579.8124      -2010.2444         33.7504         31.0004
  -5317416.99548  -4045703.15947  21639006.6854   21639012.7314
      -708.2664       -551.8954         30.5004         27.7504
  23475803.08745  18419314.02845  24400675.6774   24400683.8254
     -5229.2344      -4074.7284         11.0004          9.5004
  -7040232.23447  -5370657.73446  22137132.6614   22137138.7554
       465.2034        362.4964         26.7504         23.2504
  16477072.74246  12954895.88145  23698484.1224   23698490.2394
     -4985.9694      -3885.1704         13.2504          9.2504
  -4114938.65446  -3129458.71646  22726290.5134   22726296.9934
      -100.9064        -78.6284         15.5004         14.7504
 01  3 21  0 13  0.0010000  0  8G22G18G 6G17G30G23G10G26
   -163616.72245      6947.27855  23909575.0444   23909582.5484
      -746.6254       -581.7864         11.2504         10.7504
  -7407299.62247  -5424191.69746  22774213.4814   22774218.8024
      1248.3594        972.7484         21.5004         16.5004
   1115641.05048    938323.28547  20930390.4194   20930396.0444
     -2594.9064      -2022.0054         33.7504         30.7504
  -5296077.63548  -4029075.08247  21643067.5834   21643073.5014
      -714.3754       -556.6564         31.0004         27.7504
  23632689.02445  18541562.64645  24430530.6464   24430539.5674
     -5229.8444      -4075.2034         11.2504          9.2504
  -7054000.49447  -5381386.21546  22134512.5674   22134518.6034
       452.6564        352.7194         27.2504         23.5004
  16626731.51546  13071513.05145  23726963.6694   23726969.7394
     -4991.3124      -3889.3344         12.7504          9.5004
  -4111667.52846  -3126909.74146  22726913.4274   22726920.4034
      -117.2194        -91.3394         16.5004         15.7504
 01  3 21  0 13 30.0010000  0  8G22G18G 6G17G30G23G10G26
   -140957.62045     24603.73545  23913886.0524   23913893.4854
      -763.8444       -595.2034         11.0004          9.7504
  -7444600.41847  -5453257.11546  22767115.1854   22767120.4814
      1238.5004        965.0654         21.2504         17.0004
   1193715.52548    999160.52147  20945247.4504   20945253.0524
     -2609.9064      -2033.6934         33.7504         30.7504
  -5274553.40848  -4012302.95047  21647163.5214   21647169.4384
      -720.4064       -561.3564         31.2504         28.0004
  23789593.00445  18663825.33645  24460387.9274   24460397.0604
     -5230.2664      -4075.5324         10.7504          9.5004
  -7067390.47947  -5391819.92946  22131964.7714   22131971.0054
       440.1564        342.9794         27.2504         23.5004
  16776550.89645  13188255.34545  23755473.5134   23755479.3134
     -4996.4844      -3893.3644         11.7504          9.2504
  -4107904.85446  -3123977.71846  22727629.2394   22727636.3104
      -133.5004       -104.0264         16.2504         15.0004
 01  3 21  0 14  0.0010000  0  8G22G18G 6G17G30G23G10G26
   -117779.45245     42664.65745  23918296.7634   23918302.8334
      -781.2034       -608.7304         11.5004          9.7504
  -7481603.01347  -5482090.18546  22760073.3884   22760079.3994
      1228.4844        957.2614         21.0004         16.5004
   1272241.84148   1060349.84547  20960190.5604   20960196.3724
     -2625.0164      -2045.4674         33.7504         30.5004
  -5252846.75748  -3995388.67047  21651294.1304   21651300.0834
      -726.5314       -566.1284         31.2504         28.0004
  23946509.87445  18786098.04545  24490248.7634   24490257.9544
     -5230.6874      -4075.8604         10.0004          9.0004
  -7080403.47447  -5401959.88746  22129488.2864   22129494.5444
       427.5314        333.1414         27.2504         23.5004
  16926525.76045  13305118.80445  23784012.4814   23784019.5994
     -5001.6564      -3897.3944         11.2504          9.0004
  -4103650.53046  -3120662.61146  22728438.8334   22728445.0564
      -149.9694       -116.8594         16.5004         15.0004
 01  3 21  0 14 30.0010000  0  8G22G18G 6G17G30G23G10G26
    -94085.48146     61127.48245  23922806.5214   23922813.2824
      -798.4694       -622.1834         12.2504         10.0004
  -7518308.85447  -5510692.02846  22753088.3724   22753093.8684
      1218.5004        949.4814         20.5004         16.7504
   1351217.06648   1121888.95947  20975219.0364   20975224.7904
     -2640.0474      -2057.1794         33.7504         30.2504
  -5230960.90148  -3978334.75247  21655458.7164   21655464.6464
      -732.5624       -570.8284         31.2504         28.0004
  24103433.63545  18908376.13245  24520109.7394   24520120.4314
     -5230.9224      -4076.0434          9.5004          8.7504
  -7093041.68347  -5411807.80846  22127083.0834   22127089.4464
       414.9694        323.3524         26.7504         23.7504
  17076650.70645  13422099.22545  23812580.4664   23812588.0874
     -5006.6874      -3901.3154         10.7504          8.5004
  -4098905.17946  -3116964.89746  22729341.2004   22729348.1654
      -166.4374       -129.6924         15.2504         15.2504
 01  3 21  0 15  0.0010000  0  8G22G18G 6G17G30G23G10G26
    -69867.16546     79998.89845  23927415.4814   23927422.1494
      -815.9694       -635.8204         12.5004         10.2504
  -7554708.30647  -5539055.13246  22746161.8334   22746168.0094
      1208.2344        941.4814         21.2504         17.0004
   1430649.29648   1183784.18547  20990334.5134   20990339.9384
     -2655.2974      -2069.0624         33.7504         30.2504
  -5208887.88348  -3961134.98447  21659659.3334   21659665.2634
      -738.8284       -575.7104         31.7504         28.2504
  24260369.28545  19030663.47245  24549974.6064   24549984.3724
     -5231.2974      -4076.3354         10.5004          8.7504
  -7105296.17647  -5421356.73646  22124750.9894   22124757.5874
       402.1254        313.3444         27.2504         24.2504
  17226931.03045  13539200.72345  23841177.9274   23841184.3494
     -5011.8444      -3905.3334          9.7504          8.2504
  -4093658.31146  -3112876.38746  22730340.1534   22730347.2354
      -183.2344       -142.7804         16.0004         15.5004
 01  3 21  0 15 30.0010000  0  8G22G18G 6G17G30G23G10G26
    -45128.29846     99275.91245  23932122.6224   23932130.1854
      -833.5004       -649.4814         12.5004         10.0004
  -7590804.37647  -5567181.85746  22739292.5754   22739298.3534
      1197.9384        933.4584         20.5004         17.0004
   1510533.93648   1246031.94047  21005535.9504   21005541.5754
     -2670.5474      -2080.9464         33.7504         30.2504
  -5186632.57648  -3943793.18147  21663894.3174   21663900.2944
      -745.0624       -580.5684         31.7504         28.2504
  24417309.36445  19152954.27745  24579839.1534   24579850.4784
     -5231.5474      -4076.5304         11.0004         10.0004
  -7117170.68048  -5430609.56446  22122491.5674   22122498.3414
       389.2814        303.3364         28.0004         24.5004
  17377359.31045  13656417.52145  23869803.3964   23869810.6774
     -5016.9064      -3909.2784          8.7504          7.5004
  -4087912.23446  -3108398.88646  22731433.6534   22731439.7124
      -200.0784       -155.9054         16.5004         15.0004
 01  3 21  0 16  0.0010000  0  8G22G18G 6G17G30G23G10G26
    -19867.16246    118959.91245  23936929.6924   23936936.5874
      -850.7034       -662.8864         12.2504         10.0004
  -7626594.49147  -5595070.18946  22732481.7554   22732487.6384
      1187.9384        925.6664         21.0004         17.2504
   1590872.18448   1308633.15947  21020824.0994   21020829.5714
     -2685.4534      -2092.5614         34.0004         30.5004
  -5164194.20548  -3926308.72847  21668164.2004   21668170.1654
      -750.9534       -585.1584         31.7504         28.2504
  24574251.68345  19275246.80745  24609704.5054   24609714.6344
     -5231.3594      -4076.3844         11.0004          9.7504
  -7128663.21047  -5439564.74646  22120304.3804   22120310.8844
       376.7664        293.5844         27.2504         24.5004
  17527934.02345  13773748.37845  23898456.8104   23898461.5094
     -5021.5004      -3912.8574          8.0004          6.7504
  -4081663.54746  -3103529.74046  22732622.9974   22732629.9384
      -216.6414       -168.8114         16.7504         15.5004
 01  3 21  0 16 30.0020000  0  8G22G18G 6G17G30G23G10G26
      5910.47046    139046.37245  23941834.6434   23941840.9364
      -868.0314       -676.3884         12.0004          9.7504
  -7662084.93747  -5622725.02046  22725728.2834   22725734.2254
      1177.7504        917.7274         21.2504         17.2504
   1671659.96148   1371584.65447  21036197.6194   21036203.1154
     -2700.4694      -2104.2614         34.0004         30.7504
  -5141578.95448  -3908686.45247  21672467.5724   21672473.6074
      -756.9534       -589.8344         31.2504         28.2504
  24731191.64545  19397537.49945  24639569.1584   24639578.9944
     -5231.2034      -4076.2624         11.0004          9.0004
  -7139780.21747  -5448227.32746  22118188.9864   22118194.9984
       364.0944        283.7094         27.7504         24.0004
  17678650.69545  13891189.89945  23927136.5104   23927143.0614
     -5026.1724      -3916.4984          7.5004          6.7504
  -4074916.52446  -3098272.26346  22733906.3074   22733912.7994
      -233.4064       -181.8754         15.7504         15.0004
 01  3 21  0 17  0.0020000  0  8G22G18G 6G17G30G23G10G26
     32209.59746    159539.19645  23946840.2054   23946847.4864
      -885.4694       -689.9764         13.5004         10.7504
  -7697264.98547  -5650137.99046  22719033.6114   22719039.5414
      1167.3754        909.6434         21.2504         16.7504
   1752898.80748   1434887.62747  21051656.6744   21051662.5334
     -2715.6564      -2116.0964         33.7504         30.5004
  -5118781.72248  -3890922.37147  21676805.8074   21676811.9594
      -763.0944       -594.6194         31.2504         28.5004
  24888123.01545  19519821.54745  24669432.3934   24669440.7994
     -5231.0944      -4076.1774         10.5004          9.2504
  -7150513.35348  -5456590.77246  22116146.7214   22116152.9204
       351.2344        273.6894         28.2504         24.7504
  17829503.54344  14008737.51745  23955843.8774   23955846.6784
     -5030.8754      -3920.1624          7.2504          6.0004
  -4067662.56746  -3092619.77046  22735287.1664   22735293.9394
      -250.4064       -195.1224         16.5004         15.0004
 01  3 21  0 17 30.0020000  0  8G22G18G 6G17G30G23G10G26
     59031.73346    180439.55245  23951944.4714   23951952.0104
      -902.6874       -703.3934         13.2504         10.7504
  -7732134.52247  -5677309.00246  22712398.3694   22712403.5964
      1157.2194        901.7294         21.7504         17.5004
   1834591.51348   1498544.27147  21067202.5964   21067208.2324
     -2730.5624      -2127.7114         34.0004         30.5004
  -5095801.96448  -3873016.06247  21681178.6504   21681184.6974
      -768.9534       -599.1844         31.5004         28.7504
  25045048.16845  19642100.71345  24699294.1744   24699302.5454
     -5230.6094      -4075.8004         10.2504          9.0004
  -7160862.09348  -5464654.69946  22114177.4554   22114183.6434
       338.6414        263.8764         28.7504         24.7504
  17980494.97844  14126393.10545  23984576.5644   23984583.9634
     -5035.2344      -3923.5594          7.2504          6.5004
  -4059899.20846  -3086570.34146  22736764.8224   22736771.4794
      -267.2034       -208.2104         17.5004         15.0004
 01  3 21  0 18  0.0020000  0  8G22G18G 6G17G30G23G10G26
     86373.03745    201744.45545  23957145.9714   23957152.2994
      -920.1094       -716.9684         11.7504         10.2504
  -7766696.28347  -5704240.19146  22705821.6664   22705827.2684
      1146.8444        893.6444         22.7504         18.0004
   1916733.50148   1562550.99147  21082833.5104   21082839.2644
     -2745.6254      -2139.4484         33.7504         30.7504
  -5072644.08448  -3854970.95647  21685585.4084   21685591.3504
      -774.9534       -603.8604         31.5004         28.7504
  25201959.68745  19764369.24845  24729154.4394   24729164.4514
     -5230.1874      -4075.4714         10.0004          8.0004
  -7170830.02648  -5472421.88846  22112280.4554   22112286.7484
       325.8444        253.9044         28.7504         24.7504
  18131617.89144  14244151.18845  24013334.0804   24013338.8504
     -5039.6724      -3927.0174          7.0004          6.5004
  -4051628.49746  -3080125.58546  22738338.0804   22738345.0214
      -284.2194       -221.4694         16.5004         15.2504
 01  3 21  0 18 30.0020000  0  8G22G18G 6G17G30G23G10G26
    114234.75245    223454.86845  23962448.1584   23962454.7564
      -937.2974       -730.3614         11.5004         10.2504
  -7800947.85747  -5730929.67646  22699303.3854   22699309.1154
      1136.6564        885.7064         21.2504         17.7504
   1999325.81548   1626908.61447  21098550.3694   21098555.4674
     -2760.4694      -2151.0154         34.0004         30.5004
  -5049307.42848  -3836786.54547  21690026.1584   21690032.0884
      -780.7504       -608.3774         31.5004         28.7504
  25358855.20045  19886625.34045  24759009.7444   24759019.0184
     -5229.4374      -4074.8864         10.0004          9.0004
  -7180415.62348  -5479891.15846  22110456.2294   22110462.4044
       313.2504        244.0914         29.0004         25.0004
  18282870.76144  14362010.56145  24042117.0494   24042124.2254
     -5043.7664      -3930.2074          7.0004          6.2504
  -4042847.44446  -3073283.17846  22740008.8694   22740016.1044
      -301.1094       -234.6314         16.0004         15.2504
 01  3 21  0 19  0.0020000  0  8G22G18G 6G17G30G23G10G26
    142619.12045    245572.56745  23967849.4244   23967856.4364
      -954.9064       -744.0834         11.0004         10.2504
  -7834885.54547  -5757374.57946  22692845.2914   22692851.4554
      1125.9534        877.3664         22.2504         18.2504
   2082370.65348   1691618.85347  21114352.9944   21114358.8184
     -2775.7664      -2162.9344         33.7504         30.2504
  -5025789.82548  -3818461.13947  21694501.4634   21694507.3934
      -786.9844       -613.2354         31.2504         28.5004
  25515734.05145  20008868.37545  24788864.1194   24788873.4284
     -5229.0314      -4074.5704         10.0004          8.5004
  -7189615.84048  -5487060.12646  22108705.5644   22108711.5644
       300.1724        233.9004         29.0004         24.7504
  18434253.28645  14479970.90045  24070924.9794   24070934.2994
     -5048.2664      -3933.7134          7.5004          6.7504
  -4033551.53146  -3066039.58046  22741777.3854   22741783.6664
      -318.5314       -248.2064         15.2504         15.2504
 01  3 21  0 19 30.0020000  0  8G22G18G 6G17G30G23G10G26
    171525.02645    268096.67745  23973350.6744   23973357.9324
      -972.0314       -757.4274         11.5004         10.7504
  -7868509.01447  -5783574.63846  22686446.9164   22686452.5064
      1115.7194        869.3914         23.0004         18.7504
   2165866.94648   1756680.88147  21130241.8544   21130247.6074
     -2790.5474      -2174.4524         33.7504         30.5004
  -5002092.43448  -3799995.63547  21699010.7444   21699016.8964
      -792.7034       -617.6914         31.2504         28.5004
  25672592.55745  20131095.59545  24818712.5884   24818723.4674
     -5228.0474      -4073.8034          9.2504          8.2504
  -7198430.92048  -5493928.99446  22107027.9084   22107034.2134
       287.6094        224.1114         28.5004         25.2504
  18585761.70544  14598029.33945  24099755.7834   24099758.9364
     -5052.1564      -3936.7454          7.0004          5.5004
  -4023739.58946  -3058393.83746  22743644.6504   22743651.9794
      -335.4844       -261.4164         16.0004         15.7504
 01  3 21  0 20  0.0020000  0  8G22G18G 6G17G30G23G10G26
    200948.07646    291023.69345  23978950.1584   23978956.5214
      -989.5624       -771.0884         12.5004         11.0004
  -7901821.61547  -5809532.46146  22680107.8614   22680113.6044
      1105.0634        861.0884         22.7504         18.5004
   2249809.49248   1822090.64347  21146215.9864   21146221.5414
     -2805.7034      -2186.2624         34.0004         30.7504
  -4978220.50148  -3781394.12347  21703553.6584   21703559.7054
      -798.7974       -622.4394         31.7504         29.0004
  25829422.55445  20253300.58345  24848556.5574   24848566.9554
     -5227.3284      -4073.2434          9.5004          8.2504
  -7206865.13348  -5500501.07547  22105423.0414   22105429.9714
       274.6094        213.9814         28.7504         25.7504
  18737388.42644  14716180.03145  24128609.2754   24128617.9044
     -5056.3284      -3939.9964          6.7504          5.2504
  -4013414.50046  -3050348.27346  22745609.8144   22745616.9554
      -352.9224       -275.0044         16.7504         15.5004
 01  3 21  0 20 30.0020000  0  8G22G18G 6G17G30G23G10G26
    230896.44546    314360.05445  23984648.6744   23984655.4244
     -1006.8284       -784.5414         12.2504         10.2504
  -7934814.43447  -5835241.10846  22673829.3934   22673834.5144
      1094.6094        852.9424         23.0004         18.7504
   2334205.71048   1887853.90547  21162276.0184   21162281.6664
     -2820.5624      -2197.8414         34.0004         30.5004
  -4954166.49248  -3762650.73047  21708131.1664   21708137.0254
      -804.6414       -626.9934         32.5004         29.5004
  25986228.80545  20375487.08745  24878395.9004   24878405.3964
     -5226.2344      -4072.3904          9.2504          7.7504
  -7214910.19048  -5506769.92047  22103892.1504   22103898.3384
       261.8754        204.0584         29.5004         25.7504
  18889138.38344  14834426.70945  24157487.2364   24157495.3854
     -5060.1564      -3942.9794          6.5004          5.2504
  -4002566.44946  -3041895.21546  22747673.7134   22747680.2524
      -370.1414       -288.4214         16.7504         15.7504
 01  3 21  0 21  0.0020000  0  8G22G18G 6G17G30G23G10G26
    261361.89545    338099.35545  23990445.8774   23990451.5374
     -1024.1094       -798.0074         11.5004          9.7504
  -7967494.17647  -5860705.80346  22667610.8934   22667616.4004
      1084.1094        844.7614         23.5004         19.0004
   2419047.24448   1953964.17247  21178420.6894   21178426.4324
     -2835.4534      -2209.4444         33.7504         30.5004
  -4929938.89448  -3743772.07247  21712741.5494   21712747.5254
      -810.4534       -631.5224         32.5004         29.5004
  26143000.32745  20497646.57745  24908228.1664   24908238.6234
     -5225.0944      -4071.5024          9.2504          7.7504
  -7222573.67748  -5512741.43847  22102433.7994   22102439.8344
       249.0944        194.0994         30.0004         25.7504
  19041000.66744  14952760.92945  24186386.0184   24186393.1824
     -5063.8914      -3945.8894          6.2504          5.2504
  -3991201.78046  -3033039.58546  22749836.8854   22749843.5064
      -387.4534       -301.9124         17.2504         15.7504
 01  3 21  0 21 30.0020000  0  8G22G18G 6G17G30G23G10G26
    292346.09845    362242.88845  23996341.3464   23996347.5454
     -1041.5624       -811.6074         11.0004         10.0004
  -7999857.57847  -5885923.99746  22661452.0644   22661457.5254
      1073.3754        836.3964         22.7504         18.7504
   2504336.10448   2020423.00547  21194650.6974   21194656.2404
     -2850.5314      -2221.1934         34.0004         30.5004
  -4905536.02548  -3724756.83847  21717385.0414   21717391.0764
      -816.4534       -636.1974         32.0004         29.2504
  26299736.22745  20619778.24345  24938054.0414   24938063.4904
     -5224.0164      -4070.6624          8.7504          7.0004
  -7229853.00348  -5518413.62547  22101048.6584   22101055.2684
       236.1254        183.9944         30.0004         26.0004
  19192975.15643  15071182.49145  24215304.7364   24215311.5574
     -5067.7814      -3948.9204          5.7504          6.0004
  -3979316.37046  -3023778.19546  22752098.3694   22752104.5454
      -404.9844       -315.5724         17.5004         15.7504
 01  3 21  0 22  0.0020000  0  8G22G18G 6G17G30G23G10G26
    323850.73645    386791.94945  24002336.7444   24002342.9324
     -1058.7664       -825.0124         11.5004         10.5004
  -8031901.41147  -5910893.17146  22655354.2684   22655360.0684
      1062.8594        828.2024         23.0004         18.7504
   2590073.78548   2087231.56847  21210965.8224   21210971.3424
     -2865.3284      -2232.7234         33.7504         30.2504
  -4880956.34548  -3705603.83447  21722062.2754   21722068.3464
      -822.2034       -640.6784         31.7504         29.0004
  26456434.98345  20741880.95245  24967872.6114   24967882.8224
     -5222.5784      -4069.5414          8.2504          8.0004
  -7236745.88248  -5523784.65747  22099736.8774   22099743.4284
       223.3914        174.0714         30.0004         26.2504
  19345060.50743  15189690.51645  24244245.2684   24244250.9164
     -5071.2664      -3951.6364          5.5004          6.2504
  -3966906.50846  -3014108.12146  22754459.5184   22754466.5764
      -422.3594       -329.1114         16.5004         15.7504
 01  3 21  0 22 30.0020000  0  8G22G18G 6G17G30G23G10G26
    355876.69246    411747.23545  24008431.8074   24008437.6194
     -1076.2974       -838.6734         12.2504         10.2504
  -8063624.09747  -5935612.11446  22649317.3774   22649323.2954
      1051.9844        819.7284         23.0004         18.7504
   2676260.29648   2154389.86047  21227366.8614   21227372.2404
     -2880.4224      -2244.4854         33.7504         30.0004
  -4856199.87148  -3686313.06747  21726773.6354   21726779.6584
      -828.2194       -645.3654         32.2504         29.2504
  26613093.83145  20863952.55945  24997685.1824   24997693.8934
     -5221.3444      -4068.5804          9.0004          8.2504
  -7243251.39348  -5528853.85447  22098498.9714   22098505.2174
       210.3134        163.8804         30.0004         26.0004
  19497254.50843  15308283.13745  24273207.0964   24273211.5964
     -5075.0004      -3954.5454          5.2504          5.5004
  -3953969.96046  -3004027.65646  22756921.5104   22756927.4984
      -440.0944       -342.9304         16.7504         15.0004
 01  3 21  0 23  0.0020000  0  8G22G18G 6G17G30G23G10G26
    388420.56145    437106.08245  24014623.8614   24014630.5294
     -1093.3754       -851.9814         11.2504         10.5004
  -8095027.81047  -5960082.49946  22643341.8224   22643347.2954
      1041.5164        811.5714         23.7504         19.2504
   2762891.81048   2221894.91347  21243852.2834   21243857.8034
     -2895.0784      -2255.9054         33.7504         29.7504
  -4831270.12348  -3666887.28247  21731517.3934   21731523.4044
      -833.8124       -649.7244         32.0004         29.5004
  26769706.48445  20985988.23445  25027487.3934   25027496.0104
     -5219.5474      -4067.1794          8.5004          7.7504
  -7249372.45948  -5533623.48447  22097333.9864   22097340.3034
       197.6884        154.0424         29.7504         26.2504
  19649551.05243  15426955.80445  24302187.4394   24302192.9474
     -5078.1874      -3957.0294          5.0004          5.7504
  -3940508.21646  -2993537.95446  22759483.4004   22759489.9514
      -457.4374       -356.4454         17.5004         15.5004
 01  3 21  0 23 30.0020000  0  8G22G18G 6G17G30G23G10G26
    421484.62445    462870.29545  24020916.0724   24020922.7404
     -1110.8124       -865.5684         11.5004         10.7504
  -8126108.51547  -5984301.20446  22637427.3694   22637433.0534
      1030.6254        803.0844         24.2504         19.7504
   2849970.95948   2289748.77247  21260422.7444   21260428.4284
     -2910.0944      -2267.6064         33.7504         30.0004
  -4806164.60848  -3647324.53747  21736294.9084   21736300.8964
      -839.7814       -654.3754         32.0004         29.5004
  26926272.50445  21107987.46545  25057280.2914   25057289.4004
     -5218.0784      -4066.0354          8.0004          7.5004
  -7255105.92548  -5538091.09147  22096242.6584   22096248.8934
       184.6414        143.8764         29.7504         26.2504
  19801950.26142  15545708.34045  24331188.9944   24331197.6114
     -5081.6564      -3959.7324          4.7504          5.7504
  -3926516.78146  -2982635.50446  22762144.9324   22762151.2834
      -475.2344       -370.3124         16.5004         15.7504
 01  3 21  0 24  0.0020000  0  8G22G18G 6G17G30G23G10G26
    455070.03546    489040.71045  24027307.0644   24027314.4394
     -1128.0624       -879.0104         12.7504         11.0004
  -8156863.50447  -6008266.09346  22631575.1434   22631580.2754
      1019.8594        794.6964         24.7504         20.0004
   2937498.70348   2357952.18947  21277079.1664   21277084.6154
     -2924.9534      -2279.1844         34.0004         30.2504
  -4780882.12548  -3627623.89047  21741105.6744   21741111.6974
      -845.5784       -658.8924         31.2504         29.2504
  27082790.58145  21229949.40945  25087065.9324   25087075.2404
     -5216.3284      -4064.6714          8.0004          7.7504
  -7260449.80348  -5542255.12247  22095226.0254   22095232.0724
       171.7504        133.8314         30.7504         26.2504
  19954450.89142  15664539.91944  24360208.2214   24360219.0294
     -5084.9064      -3962.2654          4.7504          3.7504
  -3911992.23446  -2971317.64846  22764909.1584   22764915.8504
      -492.9534       -384.1194         16.7504         15.2504
 01  3 21  0 24 30.0020000  0  8G22G18G 6G17G30G23G10G26
    489173.25746    515614.63545  24033797.1504   24033804.1864
     -1145.4224       -892.5374         13.0004         11.2504
  -8187295.26347  -6031979.10646  22625783.6894   22625789.2324
      1008.9694        786.2094         23.7504         20.0004
   3025471.01848   2426502.02147  21293819.3074   21293824.8854
     -2939.8444      -2290.7874         33.7504         29.5004
  -4755426.52848  -3607788.34947  21745949.7364   21745955.8184
      -851.4374       -663.4584         31.5004         29.0004
  27239253.94245  21351868.69545  25116840.9474   25116851.2754
     -5214.5164      -4063.2594          8.2504          7.5004
  -7265407.47548  -5546118.21647  22094282.4004   22094288.4594
       158.7814        123.7264         30.5004         26.2504
  20107046.66343  15783445.61645  24389246.0724   24389254.4324
     -5088.1254      -3964.7734          5.0004          5.2504
  -3896936.49946  -2959585.87946  22767774.5804   22767780.7794
      -510.7664       -397.9994         18.0004         15.5004
 01  3 21  0 25  0.0020000  0  8G22G18G 6G17G30G23G10G26
    523796.62046    542593.86245  24040386.1824   24040392.8964
     -1162.8124       -906.0884         13.0004         10.7504
  -8217400.56147  -6055437.74646  22620055.0334   22620060.4124
       998.0164        777.6754         23.7504         19.7504
   3113889.62348   2495399.61747  21310644.6584   21310650.4364
     -2954.7504      -2302.4034         33.5004         29.5004
  -4729795.98948  -3587816.49547  21750827.2754   21750833.2994
      -857.2974       -668.0244         32.0004         29.5004
  27395661.61945  21473744.61645  25146604.4394   25146614.8034
     -5212.6724      -4061.8224          8.2504          8.2504
  -7269976.17648  -5549678.20047  22093412.9324   22093419.2714
       145.7504        113.5714         30.5004         26.5004
  20259736.96743  15902425.11245  24418302.8614   24418312.7914
     -5091.2664      -3967.2204          5.7504          6.5004
  -3881345.67246  -2947437.16946  22770741.5964   22770748.1114
      -528.6874       -411.9644         18.0004         16.0004
 01  3 21  0 25 30.0020000  0  8G22G18G 6G17G30G23G10G26
    558940.16945    569978.44745  24047072.4084   24047080.3464
     -1180.1414       -919.5904         11.5004         10.7504
  -8247177.62647  -6078640.62146  22614388.3544   22614393.6044
       987.0784        769.1524         24.2504         20.0004
   3202754.45548   2564644.92047  21327555.1114   21327561.0294
     -2969.6094      -2313.9814         33.5004         29.2504
  -4703990.48048  -3567708.29247  21755738.0644   21755743.9004
      -863.1094       -672.5534         32.7504         29.7504
  27552011.08745  21595575.13345  25176357.2214   25176367.4084
     -5210.6564      -4060.2524          8.2504          7.2504
  -7274155.19448  -5552934.53947  22092617.8614   22092623.8034
       132.7974        103.4784         31.2504         26.7504
  20412519.61143  16021476.42545  24447375.7754   24447379.2094
     -5094.2504      -3969.5454          6.0004          5.5004
  -3865217.62846  -2934869.83446  22773810.3464   22773817.0254
      -546.5784       -425.9054         18.2504         16.7504
 01  3 21  0 26  0.0020000  0  8G22G18G 6G17G30G23G10G26
    594604.83745    597769.09245  24053859.0024   24053865.8614
     -1197.2504       -932.9224         11.5004         10.7504
  -8276623.91747  -6101585.74746  22608785.2994   22608790.5844
       976.2664        760.7264         24.2504         20.0004
   3292066.71248   2634238.86347  21344551.0184   21344556.5964
     -2984.2814      -2325.4144         34.0004         29.5004
  -4678008.81248  -3547462.82347  21760682.2604   21760688.0724
      -868.7344       -676.9364         32.7504         29.5004
  27708300.67145  21717359.00745  25206098.2134   25206109.3144
     -5208.3754      -4058.4744          7.7504          8.2504
  -7277942.92448  -5555885.98347  22091897.1354   22091903.1464
       119.9844         93.4944         31.2504         26.7504
  20565393.29744  16140598.81145  24476466.6434   24476472.4434
     -5097.0164      -3971.7004          6.5004          6.0004
  -3848549.16246  -2921881.38946  22776982.2994   22776989.0964
      -564.3914       -439.7854         18.0004         16.5004
 01  3 21  0 26 30.0020000  0  8G22G18G 6G17G30G23G10G26
    630785.90345    625962.14045  24060744.4554   24060751.5964
     -1214.7974       -946.5954         11.7504         10.7504
  -8305742.64247  -6124275.61246  22603243.7134   22603249.7254
       965.0004        751.9484         24.0004         19.5004
   3381821.62048   2704177.73647  21361630.6894   21361636.2564
     -2999.3594      -2337.1634         33.7504         29.2504
  -4651855.55648  -3527083.64647  21765658.8144   21765664.7564
      -874.7814       -681.6484         33.0004         29.7504
  27864523.04544  21839090.46945  25235826.0024   25235836.2954
     -5206.4064      -4056.9404          6.7504          7.2504
  -7281343.10848  -5558535.44347  22091249.7524   22091256.2444
       106.7344         83.1704         30.7504         27.2504
  20718351.13644  16259786.71445  24505573.7834   24505582.3304
     -5100.1254      -3974.1234          6.5004          5.5004
  -3831343.00346  -2908473.93846  22780256.3614   22780262.0924
      -582.6874       -454.0424         17.7504         16.0004
 01  3 21  0 27  0.0020000  0  8G22G18G 6G17G30G23G10G26
    667484.35946    654558.28545  24067728.7054   24067735.2214
     -1231.9694       -959.9764         12.7504         10.2504
  -8334531.81647  -6146708.71246  22597765.0024   22597770.7214
       954.0784        743.4384         23.7504         20.0004
   3472019.30448   2774461.62147  21378794.9244   21378800.4324
     -3014.0164      -2348.5844         33.7504         29.2504
  -4625530.18448  -3506570.36247  21770668.3694   21770674.3694
      -880.4374       -686.0554         32.5004         29.7504
  28020675.90844  21960767.81945  25265540.6194   25265550.0104
     -5203.9844      -4055.0534          7.0004          7.5004
  -7284354.57048  -5560881.99947  22090677.2294   22090683.4514
        93.8444         73.1254         32.0004         27.5004
  20871391.13244  16379038.63945  24534695.6974   24534699.9284
     -5102.7344      -3976.1574          6.2504          5.7504
  -3813596.56046  -2894645.51246  22783633.5884   22783639.6004
      -600.6254       -468.0194         17.0004         15.7504
 01  3 21  0 27 30.0020000  0  9G21G22G18G 6G17G30G23G10G26
    -24553.10954                  25825435.8144
      1443.4384                          6.5004
    704703.93146    683560.55245  24074811.2524   24074816.2444
     -1249.4064       -973.5634         12.7504         10.5004
  -8362986.56247  -6168881.20146  22592350.4554   22592356.6194
       942.8134        734.6594         24.2504         20.0004
   3562663.22048   2845093.22047  21396043.7604   21396049.6074
     -3028.9844      -2360.2484         33.5004         29.0004
  -4599029.31148  -3485920.32247  21775711.2604   21775717.3304
      -886.3754       -690.6824         32.2504         29.7504
  28176760.42144  22082391.89645  25295242.5414   25295254.1704
     -5201.7194      -4053.2874          7.2504          6.0004
  -7286973.25648  -5562922.50347  22090178.4394   22090184.4864
        80.6414         62.8374         31.7504         27.2504
  21024514.54544  16498355.50445  24563835.1664   24563839.7604
     -5105.5624      -3978.3604          6.7504          6.2504
  -3795304.46646  -2880391.89946  22787114.6114   22787121.0334
      -618.9374       -482.2894         17.5004         15.7504
 01  3 21  0 28  0.0020000  0  9G21G22G18G 6G17G30G23G10G26
    -67812.49644                  25817204.7054
      1440.5004                          7.2504
    742442.13046    712966.92845  24081992.5494   24081998.9244
     -1266.4844       -986.8714         12.7504         10.2504
  -8391107.60347  -6190793.67146  22586999.5574   22587004.9244
       931.8914        726.1494         25.0004         20.2504
   3653750.96148   2916070.65847  21413376.9944   21413382.9124
     -3043.5474      -2371.5954         33.0004         29.0004
  -4572355.01348  -3465135.14747  21780787.1194   21780793.1194
      -891.9374       -695.0164         31.5004         29.7504
  28332771.53244  22203958.70845  25324930.4244   25324939.2054
     -5199.0004      -4051.1694          6.7504          6.2504
  -7289200.66648  -5564658.12047  22089754.4084   22089760.6784
        67.8284         52.8534         31.5004         27.7504
  21177716.96344  16617733.99545  24592988.1114   24592993.3384
     -5107.9374      -3980.2114          6.5004          5.0004
  -3776467.01346  -2865713.35146  22790698.6974   22790705.1784
      -636.9224       -496.3034         17.5004         16.0004
 01  3 21  0 28 30.0020000  0  9G21G22G18G 6G17G30G23G10G26
   -110976.57044                  25808990.7294
      1437.3134                          7.2504
    780698.14146    742776.78845  24089272.6974   24089278.1934
     -1283.7504      -1000.3254         12.5004         10.0004
  -8418893.57547  -6212445.03746  22581711.5644   22581717.1314
       920.7034        717.4314         23.5004         19.7504
   3745282.02248   2987393.54747  21430794.7604   21430800.7484
     -3058.3284      -2383.1134         33.0004         28.7504
  -4545507.54048  -3444215.03247  21785895.8694   21785901.8344
      -897.7194       -699.5214         31.7504         29.5004
  28488706.11145  22325465.94845  25354604.3144   25354614.1974
     -5196.4224      -4049.1604          7.5004          7.5004
  -7291036.75648  -5566088.80847  22089404.8614   22089411.1434
        54.7664         42.6754         30.7504         27.2504
  21330995.67244  16737171.95345  24622157.1664   24622163.2714
     -5110.4374      -3982.1594          7.0004          5.5004
  -3757082.64746  -2850608.60446  22794387.9324   22794393.7444
      -655.2034       -510.5484         17.7504         15.7504
 01  3 21  0 29  0.0020000  0  9G21G22G18G 6G17G30G23G10G26
   -154046.74345    -21245.83755  25800794.3774   25800804.9514
      1434.1094       1117.4884          7.5004          6.5004
    819469.81345    772988.48545  24096650.3934   24096656.8854
     -1300.9534      -1013.7304         11.7504         10.5004
  -8446345.70447  -6233836.26246  22576487.7834   22576493.5614
       909.5314        708.7264         24.2504         20.2504
   3837253.82548   3059059.86247  21448296.7834   21448302.3854
     -3073.0474      -2394.5824         33.7504         29.2504
  -4518489.21248  -3423161.76847  21791037.3614   21791043.2794
      -903.4224       -703.9654         32.5004         29.7504
  28644559.27145  22446909.78545  25384262.6044   25384272.0414
     -5193.7034      -4047.0414          7.5004          6.7504
  -7292483.19648  -5567215.86947  22089129.8694   22089135.9394
        41.7504         32.5324         31.5004         27.5004
  21484345.86244  16856665.60745  24651337.7054   24651345.0804
     -5112.7974      -3983.9984          6.7504          6.5004
  -3737151.73146  -2835077.98246  22798180.1354   22798186.9324
      -673.4534       -524.7694         16.7504         15.7504
 01  3 21  0 29 30.0020000  0  9G21G22G18G 6G17G30G23G10G26
   -197019.20544    -54730.56445  25792617.7684   25792628.7754
      1430.6724       1114.8094          6.7504          6.7504
    858759.47445    803603.80345  24104126.2604   24104132.7874
     -1318.3914      -1027.3174         11.5004          9.5004
  -8473460.65647  -6254964.75746  22571327.8614   22571333.4164
       898.0944        699.8134         24.7504         20.7504
   3929668.01348   3131070.89747  21465882.5964   21465888.0214
     -3087.9374      -2406.1854         33.7504         29.2504
  -4491297.88948  -3401973.70247  21796211.7684   21796217.7094
      -909.3594       -708.5924         33.2504         30.0004
  28800330.49045  22568289.67945  25413905.6974   25413916.6004
     -5191.0624      -4044.9844          8.7504          7.7504
  -7293537.26448  -5568037.18547  22088929.4084   22088935.4324
        28.5004         22.2084         31.7504         27.7504
  21637767.60544  16976214.93645  24680533.4794   24680536.1274
     -5115.3124      -3985.9584          6.5004          6.0004
  -3716670.43146  -2819118.48346  22802077.7994   22802084.5254
      -692.0164       -539.2334         17.5004         15.7504
 01  3 21  0 30  0.0020000  0  9G21G22G18G 6G17G30G23G10G26
   -239892.16044    -88137.73745  25784458.6504   25784468.9204
      1427.4844       1112.3254          6.7504          6.0004
    898567.35645    834622.90945  24111702.4004   24111709.6354
     -1335.5004      -1040.6494         11.5004         10.2504
  -8500236.45447  -6275828.97446  22566232.6664   22566238.2324
       886.9224        691.1084         24.7504         20.7504
   4022524.48148   3203426.56347  21483552.4634   21483558.0064
     -3102.5314      -2417.5574         33.7504         29.2504
  -4463933.31548  -3380650.64847  21801419.2604   21801425.1664
      -914.9844       -712.9754         33.7504         30.2504
  28956017.21545  22689603.77345  25443531.0644   25443539.9634
     -5188.0784      -4042.6584          8.0004          7.5004
  -7294198.26648  -5568552.21647  22088803.4244   22088809.5294
        15.5314         12.1024         32.0004         27.7504
  21791258.78144  17095818.41445  24709741.5724   24709750.3654
     -5117.4534      -3987.6264          6.7504          5.5004
  -3695636.72846  -2802728.55446  22806080.4864   22806086.8384
      -710.2814       -553.4664         18.0004         15.7504
 01  3 21  0 30 30.0020000  0  9G21G22G18G 6G17G30G23G10G26
   -282668.13445   -121469.28745  25776318.6894   25776330.8464
      1424.2194       1109.7814          7.7504          6.2504
    938889.82445    866043.03245  24119374.5574   24119380.6624
     -1352.6724      -1054.0304         11.2504         10.0004
  -8526675.06147  -6296430.43546  22561200.9864   22561206.9754
       875.6254        682.3054         23.7504         20.5004
   4115819.94848   3276124.31347  21501305.8614   21501311.7794
     -3117.1724      -2428.9654         32.7504         29.0004
  -4436398.57048  -3359194.99947  21806658.9474   21806664.8774
      -920.6724       -717.4074         33.7504         30.2504
  29111613.78645  22810847.65845  25473140.1044   25473152.2254
     -5185.0164      -4040.2724          8.7504          7.5004
  -7294468.78448  -5568762.97647  22088752.3304   22088758.3184
         2.4844          1.9364         32.7504         27.7504
  21944814.12344  17215471.95245  24738962.7364   24738967.9284
     -5119.5944      -3989.2944          6.7504          6.0004
  -3674051.99346  -2785909.21646  22810187.5964   22810194.3344
      -728.7194       -567.8334         17.5004         15.2504
 01  3 21  0 31  0.0020000  0  9G21G22G18G 6G17G30G23G10G26
   -325349.93345   -154727.53145  25768196.3774   25768206.2954
      1421.0474       1107.3094          8.0004          7.0004
    979722.09045    897860.37145  24127144.8544   24127151.3344
     -1369.6724      -1067.2774         11.2504         10.0004
  -8552779.30747  -6316771.38446  22556234.1114   22556239.9824
       864.4534        673.6004         24.7504         21.0004
   4209549.77848   3349160.51847  21519142.1274   21519148.0574
     -3131.6564      -2440.2524         33.0004         28.7504
  -4408697.78948  -3337609.96547  21811929.9474   21811935.8544
      -926.2194       -721.7294         33.5004         30.2504
  29267112.99645  22932015.58645  25502731.6044   25502742.0614
     -5181.7344      -4037.7154          8.2504          7.5004
  -7294352.40548  -5568672.25547  22088774.2524   22088780.3934
       -10.4374         -8.1334         32.2504         28.5004
  22098427.15944  17335170.39745  24768193.4864   24768198.3034
     -5121.4694      -3990.7554          7.0004          5.0004
  -3651918.63146  -2768662.41346  22814398.9324   22814405.3184
      -747.0314       -582.1024         16.2504         15.2504
 01  3 21  0 31 30.0020000  0  9G21G22G18G 6G17G30G23G10G26
   -367927.07145   -187904.17445  25760092.7914   25760101.5844
      1417.6254       1104.6434          7.7504          6.0004
   1021073.35545    930082.14045  24135014.8854   24135022.1194
     -1386.8444      -1080.6574         11.7504         10.7504
  -8578538.98847  -6336843.80446  22551332.2524   22551337.4794
       853.0784        664.7364         25.7504         21.0004
   4303722.50548   3422541.84247  21537062.8074   21537068.4794
     -3146.2814      -2451.6484         33.2504         28.7504
  -4380821.88648  -3315888.47747  21817234.6744   21817240.6744
      -931.9374       -726.1854         33.7504         30.5004
  29422521.35645  23053112.80345  25532304.6584   25532314.6354
     -5178.5624      -4035.2444          9.0004          7.7504
  -7293839.74548  -5568272.74147  22088871.8464   22088877.8344
       -23.5164        -18.3244         32.0004         27.7504
  22252104.27344  17454918.80245  24797437.1194   24797443.4004
     -5123.4374      -3992.2894          6.2504          5.5004
  -3629226.05646  -2750979.83946  22818716.9554   22818724.2134
      -765.5624       -596.5424         15.7504         15.5004
 01  3 21  0 32  0.0030000  0  9G21G22G18G 6G17G30G23G10G26
   -410403.06845   -221001.97745  25752009.7334   25752020.0264
      1414.0474       1101.8554          7.7504          6.2504
   1062941.32445    962706.54145  24142981.5304   24142989.1404
     -1404.1874      -1094.1724         11.5004         10.2504
  -8603957.37647  -6356650.29746  22546494.8744   22546500.3004
       841.4694        655.6904         24.7504         21.0004
   4398337.28048   3496267.62347  21555067.1244   21555073.0654
     -3161.0784      -2463.1784         33.0004         28.5004
  -4352773.72348  -3294032.76047  21822572.0624   21822578.0974
      -937.8124       -730.7634         33.7504         30.5004
  29577837.68445  23174138.29445  25561860.6164   25561870.7574
     -5175.4374      -4032.8084          8.7504          8.2504
  -7292934.35148  -5567567.20847  22089043.9444   22089049.9794
       -36.7814        -28.6614         32.5004         27.7504
  22405844.38344  17574716.22245  24826693.1794   24826703.8584
     -5125.5004      -3993.8964          6.2504          6.2504
  -3605975.53346  -2732862.52446  22823142.0544   22823149.4404
      -784.3444       -611.1774         16.7504         15.7504
 01  3 21  0 32 30.0030000  0  9G21G22G18G 6G17G30G23G10G26
   -452773.00245   -254017.16945  25743946.5854   25743957.8974
      1410.6254       1099.1884          7.7504          6.0004
   1105323.99045    995731.98045  24151047.5154   24151054.5734
     -1421.3284      -1107.5284         11.7504         10.5004
  -8629030.51647  -6376187.75946  22541723.2724   22541728.7224
       830.0474        646.7904         24.2504         21.0004
   4493388.51948   3570333.49647  21573155.1084   21573160.7924
     -3175.6564      -2474.5374         33.2504         28.5004
  -4324554.01948  -3272043.36347  21827942.1634   21827948.1874
      -943.5004       -735.1954         33.7504         31.0004
  29733049.90345  23295082.64045  25591396.6474   25591406.4604
     -5172.0164      -4030.1424          8.5004          8.2504
  -7291634.55648  -5566554.34347  22089291.3274   22089297.3274
       -49.8594        -38.8514         32.5004         28.2504
  22559636.32943  17694554.05445  24855957.4914   24855967.8784
     -5127.3124      -3995.3084          5.5004          4.7504
  -3582165.97146  -2714309.59246  22827673.5304   22827679.7764
      -802.9534       -625.6784         18.2504         15.7504
 01  3 21  0 33  0.0030000  0  9G21G22G18G 6G17G30G23G10G26
   -495037.09144   -286949.93045  25735903.7024   25735912.5194
      1406.9534       1096.3274          7.0004          6.5004
   1148221.88845   1029158.90945  24159210.1404   24159216.3394
     -1438.5944      -1120.9824         11.5004         10.2504
  -8653757.80847  -6395455.73046  22537018.2654   22537023.6554
       818.3914        637.7074         26.2504         21.5004
   4588878.94548   3644741.60547  21591326.0934   21591331.7414
     -3190.4224      -2486.0434         33.0004         28.5004
  -4296161.86448  -3249919.60147  21833344.9914   21833350.9684
      -949.3594       -739.7614         33.7504         30.5004
  29888160.55944  23415947.80145  25620914.0074   25620922.3194
     -5168.7194      -4027.5734          7.0004          6.7504
  -7289939.92848  -5565233.82347  22089613.6474   22089619.7414
       -63.1564        -49.2134         32.2504         28.5004
  22713483.11243  17814434.67145  24885234.7574   24885245.4134
     -5129.1874      -3996.7694          5.7504          4.5004
  -3557794.87546  -2695319.09346  22832310.3434   22832317.0814
      -821.8284       -640.3864         18.2504         15.7504
 01  3 21  0 33 30.0030000  0  9G21G22G18G 6G17G30G23G10G26
   -537195.37745   -319800.26245  25727881.8434   25727891.7024
      1403.4844       1093.6244          8.5004          7.2504
   1191633.44246   1062986.08345  24167471.0624   24167477.1444
     -1455.6094      -1134.2414         12.2504         10.5004
  -8678139.36248  -6414454.29446  22532379.1474   22532384.1874
       806.9384        628.7824         28.0004         22.2504
   4684806.78048   3719490.54347  21609580.7804   21609586.3584
     -3204.8914      -2497.3174         33.2504         28.5004
  -4267598.62348  -3227662.51947  21838780.4214   21838786.3394
      -954.9694       -744.1314         33.7504         30.5004
  30043165.64644  23536730.72945  25650411.3044   25650418.9484
     -5165.0624      -4024.7244          7.2504          6.7504
  -7287851.34948  -5563606.32047  22090010.5934   22090017.0624
       -76.2034        -59.3794         31.0004         28.5004
  22867380.88943  17934355.00545  24914519.9294   24914530.0114
     -5130.7504      -3997.9874          5.5004          5.2504
  -3532861.89146  -2675890.77546  22837054.9444   22837060.7694
      -840.5004       -654.9354         18.2504         15.5004
 01  3 21  0 34  0.0030000  0  9G21G22G18G 6G17G30G23G10G26
   -579246.17445   -352566.81745  25719878.9524   25719889.4794
      1399.8594       1090.8004          8.0004          6.5004
   1235559.33946   1097214.05345  24175830.0384   24175837.2144
     -1472.7974      -1147.6344         12.2504         11.2504
  -8702173.42247  -6433182.09346  22527805.0154   22527809.9834
       795.3134        619.7244         26.5004         22.0004
   4781172.14248   3794580.40747  21627918.5624   21627924.2804
     -3219.5004      -2508.7014         33.0004         28.5004
  -4238863.65648  -3205271.63147  21844248.3354   21844254.2414
      -960.7194       -748.6124         33.5004         30.2504
  30198063.09244  23657429.77245  25679886.2414   25679896.7454
     -5161.5004      -4021.9484          6.2504          7.2504
  -7285367.93548  -5561671.16647  22090483.3744   22090489.7264
       -89.3914        -69.6554         31.7504         28.7504
  23021328.15943  18054313.95045  24943814.9444   24943821.8154
     -5132.3914      -3999.2654          5.5004          6.2504
  -3507364.86846  -2656022.90946  22841906.8434   22841912.9134
      -859.3284       -669.6064         18.7504         16.2504
 01  3 21  0 34 30.0030000  0  9G21G22G18G 6G17G30G23G10G26
   -621190.81645   -385250.64045  25711897.8194   25711911.3474
      1396.3754       1088.0844          8.0004          6.5004
   1279996.70346   1131840.56845  24184286.0934   24184291.9294
     -1489.7344      -1160.8324         12.5004         10.7504
  -8725861.59447  -6451640.35846  22523296.8354   22523302.6124
       783.8444        610.7874         26.0004         22.2504
   4877971.83148   3870008.72047  21646338.9444   21646344.8974
     -3233.8754      -2519.9034         33.2504         28.7504
  -4209959.63648  -3182749.01947  21849748.5464   21849754.4764
      -966.2664       -752.9344         33.0004         29.7504
  30352847.80844  23778040.96445  25709341.4914   25709355.0894
     -5157.5624      -4018.8804          6.2504          6.2504
  -7282492.02648  -5559430.16147  22091030.8274   22091036.9914
      -102.3914        -79.7854         32.0004         28.7504
  23175319.71443  18174307.36545  24973117.4134   24973125.0224
     -5133.7504      -4000.3254          5.2504          5.2504
  -3481305.19746  -2635716.64046  22846865.8744   22846872.3544
      -878.0474       -684.1924         19.0004         17.0004
 01  3 21  0 35  0.0030000  0  9G21G22G18G 6G17G30G23G10G26
   -663023.51145   -417847.31645  25703936.7264   25703949.3154
      1392.5784       1085.1264          8.2504          7.7504
   1324949.60645   1166868.80445  24192839.8044   24192847.1674
     -1506.9694      -1174.2614         11.5004         11.0004
  -8749197.69947  -6469824.28546  22518856.4214   22518862.3514
       772.0314        601.5834         26.0004         22.2504
   4975210.35848   3945778.98047  21664842.6714   21664848.6944
     -3248.5474      -2531.3354         33.0004         28.5004
  -4180881.41348  -3160090.65747  21855281.8824   21855287.9054
      -972.1254       -757.5004         33.0004         29.7504
  30507521.72544  23898565.81645  25738775.0224   25738786.4294
     -5153.8594      -4015.9944          6.5004          6.2504
  -7279218.44248  -5556879.27547  22091653.8974   22091659.9094
      -115.7034        -90.1584         33.2504         29.0004
  23329358.31043  18294337.37845  25002430.5154   25002439.6124
     -5135.2974      -4001.5304          5.5004          5.7504
  -3454676.44546  -2614966.93046  22851933.6944   22851939.9874
      -897.0474       -698.9984         19.7504         17.0004
 01  3 21  0 35 30.0030000  0  9G21G22G18G 6G17G30G23G10G26
   -704747.61345   -450359.38345  25695997.0854   25696009.8274
      1389.0164       1082.3504          7.7504          7.5004
   1370412.52845   1202294.44845  24201491.0544   24201497.8274
     -1523.8914      -1187.4474         11.5004         10.5004
  -8772185.33847  -6487736.67046  22514482.0694   22514487.8474
       760.4694        592.5734         26.2504         22.2504
   5072882.24948   4021886.92247  21683429.0694   21683434.9174
     -3262.9064      -2542.5244         33.0004         28.5004
  -4151633.78648  -3137300.29347  21860847.5464   21860853.5814
      -977.7034       -761.8474         33.0004         29.7504
  30662077.41944  24018998.56845  25768185.7024   25768199.3824
     -5149.8284      -4012.8534          7.2504          7.5004
  -7275551.73848  -5554022.07147  22092351.6084   22092357.7964
      -128.7344       -100.3124         33.0004         29.0004
  23483436.92743  18414398.62845  25031752.1714   25031757.8314
     -5136.5314      -4002.4924          5.7504          5.2504
  -3427481.91146  -2593776.35746  22857107.9214   22857114.1084
      -915.8914       -713.6814         18.0004         16.2504
 01  3 21  0 36  0.0030000  0  9G21G22G18G 6G17G30G23G10G26
   -746361.86644   -482785.80745  25688077.0464   25688088.1244
      1385.4694       1079.5864          7.2504          7.5004
   1416385.46545   1238117.51445  24210239.3434   24210246.8474
     -1540.7664      -1200.5974         11.2504         10.5004
  -8794823.00647  -6505376.36046  22510174.2024   22510179.4994
       748.9064        583.5634         26.5004         22.5004
   5170987.21348   4098332.33047  21702097.7964   21702103.6794
     -3277.2194      -2553.6774         33.0004         28.0004
  -4122216.71048  -3114377.90447  21866445.3824   21866451.4054
      -983.2504       -766.1694         33.0004         30.0004
  30816512.61845  24139337.41145  25797574.4294   25797585.6714
     -5145.6564      -4009.6024          8.0004          8.0004
  -7271491.33548  -5550858.08447  22093124.2104   22093130.2104
      -141.7504       -110.4554         33.5004         29.0004
  23637553.42343  18534489.34145  25061078.7724   25061087.0624
     -5137.6724      -4003.3814          5.5004          5.5004
  -3399719.85246  -2572143.55746  22862390.8434   22862397.3824
      -934.7194       -728.3524         17.5004         15.7504
 01  3 21  0 36 30.0030000  0  9G21G22G18G 6G17G30G23G10G26
   -787858.68544   -515120.72245  25680180.2654   25680191.0034
      1381.2814       1076.3234          7.0004          7.7504
   1462874.17645   1274342.48345  24219086.0694   24219093.2924
     -1558.2194      -1214.1964         11.2504         10.5004
  -8817103.87047  -6522738.01946  22505934.3974   22505939.3194
       736.7504        574.0914         27.7504         22.7504
   5269530.56248   4175119.34147  21720849.8824   21720855.6944
     -3292.0624      -2565.2444         32.2504         28.0004
  -4092624.19048  -3091318.80347  21872076.7724   21872082.6674
      -989.3124       -770.8934         33.5004         30.2504
  30970830.65045  24259584.93445  25826939.7724   25826951.9404
     -5141.9224      -4006.6924          8.0004          8.0004
  -7267031.03048  -5547382.48747  22093973.1794   22093979.2494
      -155.3284       -121.0354         33.5004         29.2504
  23791711.74543  18654612.74545  25090414.2494   25090421.5424
     -5139.2664      -4004.6234          5.2504          5.5004
  -3371383.08746  -2550062.94646  22867783.5074   22867789.9524
      -954.1254       -743.4744         17.2504         15.5004
 01  3 21  0 37  0.0030000  0  8G21G22G18G 6G17G30G23G26
   -829245.97144   -547370.37745  25672304.6244   25672315.0224
      1377.7194       1073.5474          7.2504          7.2504
   1509869.29945   1310962.05445  24228029.4214   24228036.6324
     -1574.9224      -1227.2124         11.7504         11.0004
  -8839035.72848  -6539827.72746  22501760.9834   22501766.0584
       725.2344        565.1184         28.0004         23.0004
   5368502.91448   4252240.63047  21739683.7724   21739689.7614
     -3306.2194      -2576.2744         32.5004         28.0004
  -4062865.03448  -3068129.85047  21877739.9374   21877745.8784
      -994.7504       -775.1304         33.7504         30.5004
  31125019.73845  24379731.97845  25856281.4134   25856292.5034
     -5137.4534      -4003.2104          8.2504          8.0004
  -7262179.35548  -5543601.91847  22094896.1244   22094902.0894
      -168.2504       -131.1044         33.2504         28.7504
  -3342479.09646  -2527540.31246  22873283.4684   22873289.7024
      -972.9374       -758.1334         17.7504         16.0004
 01  3 21  0 37 30.0030000  0  9G21G22G18G 6G17G30G23G10G26
   -870522.22544   -579533.46645  25664450.4684   25664460.3044
      1373.9534       1070.6134          7.2504          6.7504
   1557370.19146   1347975.73645  24237068.9214   24237075.9794
     -1591.8594      -1240.4104         12.2504         10.7504
  -8860616.98347  -6556644.23446  22497653.6944   22497658.5464
       713.4384        555.9254         27.5004         23.0004
   5467903.83548   4329695.87547  21758599.1404   21758605.0814
     -3320.5784      -2587.4634         32.2504         28.0004
  -4032938.94648  -3044810.81447  21883434.6324   21883440.6904
     -1000.3914       -779.5254         33.7504         30.5004
  31279077.78645  24499776.97545  25885597.8354   25885609.3124
     -5133.1254      -3999.8384          8.0004          7.2504
  -7256935.84048  -5539516.02347  22095893.9524   22095899.9644
      -181.3754       -141.3314         33.2504         29.2504
    143931.14353                  25149101.5384
     -5141.1094                          5.2504
  -3313006.14746  -2504574.33846  22878892.2024   22878898.5774
      -992.0004       -772.9874         18.2504         16.2504
 01  3 21  0 38  0.0030000  0  9G21G22G18G 6G17G30G23G10G26
   -911678.30144   -611602.93345  25656617.2414   25656627.5814
      1369.8284       1067.3994          6.7504          6.5004
   1605384.56246   1385389.52245  24246205.6164   24246211.4994
     -1609.0474      -1253.8034         12.0004         11.0004
  -8881837.84147  -6573179.92046  22493615.2184   22493620.6794
       701.3284        546.4894         26.7504         22.7504
   5567741.32548   4407491.29747  21777597.7964   21777603.6084
     -3335.1874      -2598.8474         33.0004         28.0004
  -4002837.32648  -3021355.01147  21889162.8124   21889168.8354
     -1006.3284       -784.1524         33.5004         30.5004
  31433010.45445  24619724.23045  25914890.7574   25914902.6444
     -5128.9694      -3996.5994          8.2504          6.7504
  -7251291.92348  -5535118.12347  22096967.7964   22096973.8084
      -194.8284       -151.8144         33.5004         29.5004
    298183.42743                  25178456.8274
     -5142.3124                          5.5004
  -3282954.51846                  22884610.8584
     -1011.4064                         19.5004
 01  3 21  0 38 30.0030000  0  9G21G22G18G 6G17G30G23G10G26
   -952719.25344   -643582.75145  25648807.4684   25648814.9834
      1366.0944       1064.4894          6.7504          6.7504
   1653905.52046   1423198.07045  24255438.9994   24255444.9524
     -1625.8284      -1266.8794         12.2504         10.5004
  -8902704.13547  -6589439.32446  22489644.9444   22489650.2184
       689.5944        537.3464         27.2504         23.0004
   5668007.80948   4485621.00547  21796677.8354   21796683.6244
     -3349.3914      -2609.9154         32.7504         27.7504
  -3972566.80748  -2997767.58647  21894923.0304   21894929.0074
     -1011.8594       -788.4624         33.5004         30.0004
  31586808.65645  24739566.70245  25944157.2964   25944169.4404
     -5124.3754      -3993.0194          8.0004          6.5004
  -7245254.15548  -5530413.33247  22098116.8824   22098122.9404
      -207.8444       -161.9564         33.7504         29.7504
    452461.61943     48084.66255  25207814.2184   25207821.9334
     -5143.0314      -4007.5574          5.5004          4.7504
  -3252329.68646                  22890438.2804
     -1030.4224                         19.2504
 01  3 21  0 39  0.0030000  0  9G21G22G18G 6G17G30G23G10G26
   -993644.68544   -675472.56845  25641019.4994   25641031.8194
      1362.1724       1061.4334          6.2504          6.0004
   1702932.29645   1461400.73745  24264768.0624   24264775.1674
     -1642.7344      -1280.0534         11.7504         11.0004
  -8923215.34347  -6605422.02646  22485741.5544   22485747.0154
       677.6884        528.0684         27.0004         23.0004
   5768702.32648   4564084.24147  21815839.5154   21815845.2334
     -3363.6874      -2621.0554         33.5004         28.0004
  -3942127.86948  -2974048.93447  21900715.4764   21900721.4404
     -1017.5164       -792.8694         33.5004         30.5004
  31740469.29145  24859301.98045  25973398.7494   25973408.4214
     -5119.7814      -3989.4404          7.7504          6.7504
  -7238822.53348  -5525401.64747  22099340.4914   22099346.5034
      -221.0314       -172.2324         33.0004         29.5004
    606763.28243    168319.77145  25237176.9524   25237184.3274
     -5143.8284      -4008.1784          5.5004          5.5004
  -3221130.71346      9776.02556  22896375.2964   22896381.2494
     -1049.6254       -817.8904         19.7504         17.0004
 01  3 21  0 39 30.0030000  0  9G21G22G18G 6G17G30G23G10G26
  -1034450.61144   -707269.17145  25633253.7724   25633265.8354
      1358.3284       1058.4384          6.7504          7.2504
   1752466.59646   1499998.87145  24274194.2654   24274200.3354
     -1659.4534      -1293.0804         12.2504         10.7504
  -8943367.88047  -6621125.24446  22481906.7264   22481912.5504
       665.8914        518.8764         27.7504         23.5004
   5869826.64648   4642882.38747  21835082.7804   21835088.4294
     -3377.8284      -2632.0744         33.0004         28.0004
  -3911518.04848  -2950197.12447  21906540.1794   21906546.0854
     -1023.0474       -797.1794         33.5004         30.2504
  31893992.13845  24978929.83545  26002612.9214   26002622.1474
     -5114.9844      -3985.7024          7.5004          7.5004
  -7231994.38248  -5520080.96647  22100640.1474   22100646.2064
      -234.0784       -182.3994         33.2504         29.5004
    761088.59743    288573.09445  25266544.8974   25266550.2294
     -5144.4064      -4008.6284          5.7504          5.5004
  -3189353.91646     34537.20146  22902422.1944   22902428.8864
     -1068.7194       -832.7684         19.2504         17.0004
 01  3 21  0 40  0.0030000  0  9G21G22G18G 6G17G30G23G10G26
  -1075141.96444   -738976.58745  25625509.0694   25625518.8474
      1354.4384       1055.4064          6.2504          7.0004
   1802501.08746   1538986.75145  24283715.6164   24283722.2144
     -1676.1564      -1306.0964         12.7504         11.0004
  -8963166.65748  -6636552.81146  22478139.2884   22478144.6444
       654.0314        509.6354         28.2504         23.7504
   5971373.80448   4722010.01747  21854406.4294   21854412.2534
     -3391.9694      -2643.0934         32.7504         27.7504
  -3880743.32448  -2926216.81547  21912396.3824   21912402.3824
     -1028.5944       -801.5024         33.2504         30.2504
  32047368.57745  25098443.69145  26031799.8744   26031810.7654
     -5110.0784      -3981.8794          7.5004          6.5004
  -7224775.97448  -5514456.18747  22102013.5544   22102019.7294
      -247.1414       -192.5774         33.2504         29.5004
    915429.18143    408838.42845  25295914.8274   25295927.9684
     -5144.9224      -4009.0304          5.7504          5.2504
  -3157004.38346     59744.66546  22908578.2414   22908584.3824
     -1087.8754       -847.6954         19.5004         17.0004
 01  3 21  0 40 30.0030000  0  9G21G22G18G 6G17G30G23G10G26
  -1115716.54244   -770593.01045  25617790.4684   25617801.6874
      1350.3444       1052.2164          7.0004          7.7504
   1853036.71746   1578365.20245  24293332.0854   24293339.7534
     -1693.0784      -1319.2824         12.2504         11.5004
  -8982609.61248  -6651703.11946  22474439.2574   22474444.6014
       641.9534        500.2234         28.5004         24.0004
   6073344.50548   4801467.67947  21873810.9684   21873816.5694
     -3406.2814      -2654.2454         33.0004         27.7504
  -3849802.07748  -2902106.75147  21918284.4684   21918290.4334
     -1034.3444       -805.9824         33.5004         30.5004
  32200597.27245  25217842.40945  26060959.0154   26060968.3354
     -5105.3284      -3978.1784          7.7504          6.2504
  -7217165.65248  -5508526.02747  22103461.6324   22103467.6554
      -260.4064       -202.9144         33.5004         29.5004
   1069784.26043    529115.23345  25325287.2024   25325297.9174
     -5145.6094      -4009.5664          5.7504          5.7504
  -3124079.42347     85400.50946  22914843.6474   22914849.7294
     -1107.3124       -862.8414         20.0004         17.0004
 01  3 21  0 41  0.0030000  0  9G21G22G18G 6G17G30G23G10G26
  -1156168.67545   -802114.01045  25610093.4374   25610103.9764
      1346.4384       1049.1724          7.7504          5.7504
   1904077.85845   1618137.51245  24303044.8274   24303052.0154
     -1709.7034      -1332.2364         11.7504         11.0004
  -9001690.73348  -6666571.48046  22470808.2724   22470813.3354
       630.0944        490.9824         28.7504         24.0004
   6175742.88448   4881258.60547  21893296.8824   21893302.5654
     -3420.3124      -2665.1794         33.2504         27.7504
  -3818689.66848  -2877863.30747  21924205.0154   21924210.9794
     -1039.8444       -810.2684         33.5004         30.5004
  32353680.49844  25337127.69345  26090089.7024   26090103.3004
     -5100.2344      -3974.2094          7.0004          6.2504
  -7209158.61948  -5502286.75347  22104985.7024   22104991.5974
      -273.4224       -213.0564         34.0004         30.0004
   1224156.29443    649405.08444  25354664.6014   25354669.9684
     -5145.9224      -4009.8094          5.7504          4.2504
  -3090573.15447    111509.32046  22921220.0464   22921226.0694
     -1126.5004       -877.7924         20.7504         17.2504
 01  3 21  0 41 30.0030000  0  9G21G22G18G 6G17G30G23G10G26
  -1196499.10245   -833540.13245  25602418.3194   25602427.8514
      1342.3594       1045.9944          7.5004          6.7504
   1955621.63645   1658301.45845  24312852.5854   24312861.0154
     -1726.4374      -1345.2764         10.7504         11.0004
  -9020411.26348  -6681158.85746  22467245.7414   22467250.8514
       618.0314        481.5834         28.7504         24.0004
   6278565.97448   4961380.46547  21912863.5074   21912869.2494
     -3434.4694      -2676.2094         33.2504         28.0004
  -3787408.27248  -2853488.19247  21930157.5464   21930163.5584
     -1045.4844       -814.6634         33.0004         30.2504
  32506613.34144  25456295.87345  26119191.5154   26119200.9524
     -5095.2034      -3970.2884          6.7504          5.0004
  -7200756.98748  -5495739.98947  22106584.3044   22106590.2804
      -286.5784       -223.3084         34.0004         29.7504
   1378541.04743    769704.86945  25384042.9914   25384046.2964
     -5146.2974      -4010.1014          5.7504          5.7504
  -3056486.73947    138070.20146  22927706.3904   22927712.6124
     -1145.8444       -892.8654         20.5004         17.2504
 01  3 21  0 42  0.0030000  0  9G21G22G18G 6G17G30G23G10G26
  -1236705.56544   -864869.79445  25594766.9374   25594777.6284
      1338.0164       1042.6104          7.2504          7.5004
   2007668.20245   1698857.23645  24322756.5224   24322764.2374
     -1743.3754      -1358.4744         10.7504         10.5004
  -9038768.80148  -6695463.38046  22463752.4054   22463757.6204
       605.7344        472.0014         28.7504         24.2504
   6381814.24648   5041833.63647  21932510.4994   21932516.4874
     -3448.8124      -2687.3864         31.5004         27.2504
  -3755956.61748  -2828980.41147  21936142.3904   21936148.3904
     -1051.3594       -819.2414         33.0004         30.5004
  32659394.70444  25575346.00745  26148265.8584   26148276.9954
     -5090.3124      -3966.4774          6.5004          6.7504
  -7191959.46848  -5488884.73747  22108258.2334   22108264.2924
      -299.9844       -233.7544         33.7504         30.0004
   1532937.70643    890013.94045  25413423.2414   25413427.2614
     -5146.8444      -4010.5284          5.2504          5.0004
  -3021817.91246    165084.89946  22934302.9054   22934309.2334
     -1165.4694       -908.1574         19.2504         16.7504
 01  3 21  0 42 30.0030000  0  9G21G22G18G 6G17G30G23G10G26
  -1276786.99745   -896101.89545  25587138.9834   25587149.0894
      1334.0164       1039.4934          7.5004          7.2504
   2060216.30945   1739803.81345  24332756.5384   24332763.1244
     -1759.8914      -1371.3434         11.0004         10.5004
  -9056762.50948  -6709484.38746  22460328.4134   22460333.5814
       593.7974        462.6994         29.7504         24.7504
   6485486.83348   5122617.44447  21952238.8354   21952244.8474
     -3462.7344      -2698.2354         31.7504         27.0004
  -3724334.56048  -2804339.84547  21942160.0384   21942166.0504
     -1056.8284       -823.5024         33.0004         30.5004
  32812021.85344  25694275.91745  26177309.4914   26177321.8474
     -5084.9064      -3962.2654          6.7504          6.0004
  -7182765.97548  -5481720.94147  22110007.3584   22110013.5344
      -312.9844       -243.8844         33.5004         29.7504
   1687344.12942   1010330.63445  25442804.3664   25442809.2064
     -5146.9694      -4010.6254          4.5004          5.0004
  -2986565.48546    192554.35746  22941011.5304   22941017.7764
     -1184.7504       -923.1824         19.5004         17.0004
 01  3 21  0 43  0.0030000  0  9G21G22G18G 6G17G30G23G10G26
  -1316743.42744   -927236.67645  25579535.3824   25579548.3234
      1329.7194       1036.1444          7.2504          7.7504
   2113265.02245   1781140.48045  24342851.7104   24342857.8974
     -1776.6874      -1384.4324         11.0004          9.7504
  -9074392.22148  -6723221.77846  22456973.7724   22456978.7764
       581.5314        453.1414         30.2504         24.7504
   6589582.16448   5203730.66347  21972047.6874   21972053.5114
     -3476.9374      -2709.3024         32.2504         27.2504
  -3692542.73848  -2779566.99747  21948209.5934   21948215.6634
     -1062.6094       -828.0074         33.0004         30.2504
  32964491.47444  25813083.12445  26206324.0934   26206338.5814
     -5079.7194      -3958.2224          7.2504          6.7504
  -7173177.01548  -5474248.98647  22111832.3044   22111838.3154
      -326.2814       -254.2454         33.7504         30.2504
   1841757.34042   1130652.58044  25472188.4054   25472196.9994
     -5147.2344      -4010.8324          4.5004          3.5004
  -2950729.28447    220478.69846  22947831.3664   22947837.1904
     -1204.3444       -938.4504         21.5004         17.0004
 01  3 21  0 43 30.0030000  0  9G21G22G18G 6G17G30G23G10G26
  -1356575.13444   -958274.20245  25571955.4994   25571965.9094
      1325.3444       1032.7354          6.7504          7.5004
   2166811.63645   1822865.10945  24353040.5624   24353048.6874
     -1793.4694      -1397.5084         10.0004         10.5004
  -9091659.17548  -6736676.49546  22453687.5464   22453692.4334
       569.2194        443.5474         29.7504         25.0004
   6694097.33248   5285171.02547  21991936.2264   21991942.1444
     -3491.1254      -2720.3574         32.2504         27.2504
  -3660583.10948  -2754663.39847  21954291.3744   21954297.3044
     -1068.4064       -832.5244         33.2504         30.2504
  33116799.11644  25931764.07945  26235307.0304   26235319.2104
     -5074.4694      -3954.1314          6.7504          6.5004
  -7163194.67248  -5466470.50747  22113732.1944   22113738.0544
      -339.5944       -264.6194         34.0004         30.7504
   1996173.23342   1250976.63344  25501572.2574   25501575.8314
     -5147.5314      -4011.0634          3.7504          4.0004
  -2914310.22447    248857.20446  22954761.4374   22954767.6594
     -1223.9844       -953.7544         21.7504         17.7504
 01  3 21  0 44  0.0030000  0  9G21G22G18G 6G17G30G23G10G26
  -1396271.16444   -989206.04645  25564401.5694   25564411.7334
      1321.3284       1029.6064          6.7504          7.7504
   2220865.25845   1864984.78445  24363326.4294   24363334.4724
     -1809.8444      -1410.2684         10.2504         10.2504
  -9108552.25648  -6749839.88446  22450472.8664   22450478.1514
       557.2344        434.2094         29.7504         24.7504
   6799041.56848   5366945.72747  22011906.6324   22011912.5854
     -3504.9224      -2731.1084         32.5004         27.2504
  -3628445.79848  -2729621.33847  21960407.2654   21960413.0424
     -1073.8284       -836.7494         33.7504         30.7504
  33268952.04344  26050324.52045  26264260.7804   26264274.7184
     -5068.7664      -3949.6874          6.7504          6.2504
  -7152809.15148  -5458377.85647  22115708.1554   22115714.1794
      -352.5314       -274.7004         33.7504         30.0004
   2150599.52241   1371308.83544  25530957.8584   25530967.6594
     -5146.5944      -4010.3334          3.0004          3.5004
  -2877297.58147    277698.26546  22961804.4054   22961810.5694
     -1243.2974       -968.8034         21.2504         17.5004
 01  3 21  0 44 30.0030000  0  8G21G22G18G 6G17G30G23G26
  -1435845.02244  -1020042.67845  25556870.7804   25556881.4724
      1316.9064       1026.1614          7.2504          7.5004
   2275410.42745   1907487.52545  24373705.6164   24373713.1554
     -1826.5164      -1423.2594         10.0004         10.7504
  -9125084.63248  -6762722.20846  22447326.9524   22447332.1204
       544.8754        424.5784         29.7504         25.2504
   6904399.99748   5449043.16947  22031955.6634   22031961.4404
     -3519.0164      -2742.0904         32.7504         27.2504
  -3596144.84248  -2704451.76447  21966553.8194   21966559.7144
     -1079.6094       -841.2544         33.5004         30.7504
  33420933.56744  26168751.30645  26293182.3664   26293197.5934
     -5063.3284      -3945.4504          6.7504          7.0004
  -7142034.44748  -5449981.95247  22117758.4914   22117764.4444
      -365.8124       -285.0494         33.7504         30.0004
  -2839704.32347    306991.73946  22968957.8904   22968963.8784
     -1262.9694       -984.1314         20.5004         17.2504
 01  3 21  0 45  0.0030000  0  8G21G22G18G 6G17G30G23G26
  -1475289.02845  -1050778.15045  25549365.2494   25549377.2064
      1312.6564       1022.8494          8.2504          7.5004
   2330452.56745   1950377.49945  24384181.0694   24384187.3974
     -1842.9844      -1436.0924         11.2504         10.2504
  -9141249.07448  -6775317.82646  22444250.7654   22444256.0974
       532.7034        415.0934         29.5004         25.0004
   7010178.03148   5531467.58347  22052084.7964   22052090.5974
     -3532.8754      -2752.8904         32.5004         27.2504
  -3563673.81048  -2679149.66747  21972732.7804   21972738.7574
     -1085.1724       -845.5884         33.2504         30.7504
  33572747.70444  26287047.65745  26322071.8434   26322086.3084
     -5057.6094      -3940.9944          6.5004          6.2504
  -7130864.44348  -5441278.02347  22119883.9134   22119890.1364
      -378.8914       -295.2394         33.7504         30.5004
  -2801523.46247    336743.09446  22976223.6874   22976229.6984
     -1282.4844       -999.3384         21.2504         17.5004
 01  3 21  0 45 30.0030000  0  7G21G22G18G 6G17G23G26
  -1514604.23645  -1081413.20645  25541883.5624   25541892.8124
      1308.2194       1019.3914          7.7504          8.2504
   2385989.01745   1993652.63045  24394749.5694   24394754.7964
     -1859.5784      -1449.0224         11.5004         10.0004
  -9157046.93048  -6787627.79346  22441244.7264   22441249.7534
       520.3444        405.4634         30.5004         25.5004
   7116372.48148   5614216.47647  22072292.8194   22072298.6674
     -3546.8754      -2763.7994         32.2504         27.2504
  -3531034.69848  -2653716.59847  21978943.7264   21978949.7144
     -1090.9064       -850.0574         33.0004         30.5004
  -7119301.11248  -5432267.61047  22122084.4914   22122090.5264
      -392.1254       -305.5524         34.0004         30.5004
  -2762756.07247    366951.46646  22983600.8664   22983606.9374
     -1302.1724      -1014.6794         21.5004         17.2504
 01  3 21  0 46  0.0030000  0  8G21G22G18G 6G17G28G23G26
  -1553786.00345  -1111944.32245  25534427.5854   25534437.8084
      1303.8594       1015.9944          8.0004          7.7504
   2442023.20945   2037315.63845  24405412.7334   24405419.5774
     -1876.0164      -1461.8304         11.2504         10.2504
  -9172473.10948  -6799648.14947  22438309.2334   22438314.2144
       508.0784        395.9054         31.0004         25.7504
   7222986.72948   5697292.48147  22092580.6944   22092586.5774
     -3560.7194      -2774.5864         31.7504         26.7504
  -3498223.07348  -2628149.10447  21985187.5774   21985193.5894
     -1096.5314       -854.4404         33.0004         30.2504
     -9899.59254                  26265225.2724
       425.4384                          6.2504
  -7107340.17448  -5422947.36647  22124360.4134   22124366.5424
      -405.2504       -315.7794         33.7504         30.5004
  -2723397.11247    397620.80546  22991090.4604   22991096.7294
     -1321.7664      -1029.9474         20.5004         17.5004
 01  3 21  0 46 30.0030000  0  8G21G22G18G 6G17G28G23G26
  -1592837.83345  -1142374.18645  25526996.3194   25527008.3474
      1299.4064       1012.5244          7.5004          8.0004
   2498548.65045   2081361.42345  24416168.4604   24416175.0584
     -1892.5164      -1474.6874         11.0004         10.2504
  -9187532.07848  -6811382.36746  22435443.0854   22435448.0894
       495.6724        386.2384         29.5004         25.2504
   7330014.49248   5780690.71147  22112947.4994   22112953.2184
     -3574.6254      -2785.4224         31.7504         26.7504
  -3465244.10848  -2602451.21247  21991463.2184   21991469.0544
     -1102.2504       -858.8964         33.0004         30.2504
    -22469.99044                  26262833.7184
       412.3914                          6.5004
  -7094987.04248  -5413321.51347  22126711.4134   22126717.3084
      -418.4534       -326.0674         34.0004         31.0004
  -2683451.14147    428747.56846  22998692.4764   22998698.5224
     -1341.4844      -1045.3124         21.2504         17.2504
 01  3 21  0 47  0.0030000  0  8G21G22G18G 6G17G28G23G26
  -1631757.81744  -1172701.32145  25519588.6874   25519600.4794
      1295.1884       1009.2374          6.7504          6.5004
   2555564.75545   2125789.54245  24427018.8824   24427025.5854
     -1908.6564      -1487.2654         11.0004         10.7504
  -9202222.05548  -6822829.04946  22432648.0624   22432653.1944
       483.5634        376.8024         30.5004         25.5004
   7437455.74148   5864411.12747  22133392.9994   22133398.7534
     -3588.2194      -2796.0154         31.5004         26.5004
  -3432096.84348  -2576622.17547  21997770.7184   21997776.6714
     -1107.6564       -863.1094         32.5004         30.2504
    -34650.72643     -7569.65654  26260515.0694   26260522.6204
       399.5944        311.3724          5.7504          4.0004
  -7082241.17248  -5403389.63747  22129136.9374   22129142.9254
      -431.3594       -336.1244         34.0004         31.0004
  -2642916.40847    460333.08446  23006405.6014   23006411.8004
     -1360.9224      -1060.4594         20.5004         17.7504
 01  3 21  0 47 30.0040000  0  8G21G22G18G 6G17G28G23G26
  -1670544.86244  -1202924.86445  25512208.2464   25512220.3914
      1290.6564       1005.7064          6.5004          7.0004
   2613074.58345   2170602.37145  24437962.8244   24437969.5274
     -1925.0944      -1500.0734         11.0004         10.5004
  -9216540.70248  -6833986.39147  22429922.6684   22429927.9654
       471.0944        367.0864         29.7504         25.7504
   7545315.03548   5948457.29547  22153918.1054   22153923.9774
     -3602.0474      -2806.7904         31.5004         26.5004
  -3398778.10948  -2550659.52647  22004111.1214   22004117.1334
     -1113.3914       -867.5774         33.0004         30.2504
    -46438.95143    -16755.30945  26258272.0984   26258272.7664
       386.3914        301.0844          5.7504          5.0004
  -7069100.14948  -5393149.85247  22131637.1764   22131643.2344
      -444.5624       -346.4124         33.7504         30.5004
  -2601789.00847    492380.40946  23014231.7154   23014237.7154
     -1380.7034      -1075.8734         20.7504         17.5004
 01  3 21  0 48  0.0040000  0  8G21G22G18G 6G17G28G23G26
  -1709195.73044  -1233042.28045  25504853.0744   25504863.3674
      1286.0944       1002.1514          6.7504          7.0004
   2671072.88345   2215795.83245  24448998.1604   24449004.8754
     -1941.4374      -1512.8084         10.2504         10.5004
  -9230486.98048  -6844853.57646  22427268.9184   22427274.2384
       458.6884        357.4194         30.0004         25.2504
   7653583.40048   6032822.22847  22174520.4414   22174526.4064
     -3615.7974      -2817.5044         31.2504         26.2504
  -3365290.83448  -2524565.54847  22010483.7544   22010489.7304
     -1119.0624       -871.9974         33.5004         30.7504
    -57832.74443    -25633.65544  26256104.2304   26256106.6334
       373.2194        290.8204          5.7504          3.7504
  -7055565.74948  -5382603.54247  22134212.6844   22134218.6724
      -457.7034       -356.6524         33.7504         30.5004
  -2560071.52447    524887.56146  23022170.4104   23022176.5274
     -1400.4374      -1091.2504         20.5004         17.2504
 01  3 21  0 48 30.0040000  0  8G21G22G18G 6G17G28G23G26
  -1747711.28244  -1263054.27345  25497524.0044   25497535.5394
      1281.6094        998.6574          7.2504          7.2504
   2729560.39845   2261370.50645  24460128.3014   24460135.9224
     -1957.7034      -1525.4834         10.7504         10.5004
  -9244061.11148  -6855430.78646  22424686.0664   22424691.1054
       446.2664        347.7394         30.2504         25.5004
   7762263.18648   6117507.74347  22195201.9494   22195207.9614
     -3629.5004      -2828.1824         31.5004         26.2504
  -3331634.05848  -2498339.49247  22016888.1444   22016894.0274
     -1124.7034       -876.3924         33.0004         30.2504
    -68831.08343    -34203.82345  26254010.4654   26254018.8124
       360.0164        280.5324          5.7504          4.7504
  -7041637.94248  -5371750.68247  22136863.2544   22136869.2544
      -470.7974       -366.8554         34.0004         30.7504
  -2517762.23047    557855.85446  23030221.3634   23030227.2344
     -1420.1564      -1106.6154         20.2504         17.0004
 01  3 21  0 49  0.0040000  0  8G21G22G18G 6G17G28G23G26
  -1786089.11745  -1292958.94845  25490221.7384   25490231.9614
      1276.8914        994.9804          8.0004          7.2504
   2788536.95645   2307326.27445  24471351.0044   24471359.1294
     -1974.0944      -1538.2554         11.0004         10.2504
  -9257260.61048  -6865716.07047  22422174.5044   22422179.1094
       433.6564        337.9144         31.0004         26.0004
   7871354.85448   6202514.20147  22215961.4734   22215967.1564
     -3643.3284      -2838.9574         31.7504         26.5004
  -3297806.06548  -2471980.01647  22023325.7304   22023331.6954
     -1130.5314       -880.9334         33.5004         30.2504
    -79430.66643    -42463.11145  26251993.6914   26252000.4184
       346.5944        270.0734          5.0004          4.7504
  -7027315.31848  -5360590.16447  22139588.5664   22139594.6724
      -484.0784       -377.2044         34.0004         30.7504
  -2474859.03447    591286.93646  23038385.8404   23038392.1564
     -1440.0784      -1122.1394         21.0004         17.7504
 01  3 21  0 49 30.0040000  0  8G21G22G18G 6G17G28G23G26
  -1824329.91645  -1322756.87845  25482944.9414   25482954.8594
      1272.3284        991.4254          8.7504          6.7504
   2847999.08045   2353660.37745  24482667.1054   24482673.2234
     -1990.2034      -1550.8084         11.7504         10.5004
  -9270086.99348  -6875710.61247  22419733.8244   22419738.6524
       421.2504        328.2474         30.7504         26.0004
   7980855.18748   6287839.10247  22236798.6604   22236804.6024
     -3656.8754      -2849.5134         31.0004         25.7504
  -3263809.14648  -2445488.90847  22029795.2154   22029801.0984
     -1136.1094       -885.2804         33.7504         30.7504
    -89632.01643                  26250050.9734
       333.3444                          5.5004
  -7012600.34648  -5349123.92147  22142388.8014   22142394.7194
      -497.0944       -387.3464         34.0004         31.0004
  -2431363.57047    625179.52846  23046663.0354   23046668.1564
     -1459.7974      -1137.5044         22.0004         18.0004
 01  3 21  0 50  0.0040000  0  8G21G22G18G 6G17G28G23G26
  -1862431.80445  -1352446.55345  25475693.8554   25475702.9414
      1267.7344        987.8454          9.2504          7.2504
   2907947.11946   2400373.12045  24494075.1844   24494080.8554
     -2006.3594      -1563.3974         12.2504         10.7504
  -9282538.43348  -6885412.98747  22417364.0124   22417369.0044
       408.7814        318.5314         30.7504         26.5004
   8090764.02948   6373482.32947  22257713.5434   22257719.4374
     -3670.4374      -2860.0814         30.7504         26.0004
  -3229642.36148  -2418865.44247  22036296.8164   22036302.7694
     -1141.7344       -889.6634         33.7504         31.0004
    -99432.74543                  26248187.5124
       319.9844                          5.7504
  -6997492.20748  -5337351.31847  22145263.8014   22145269.8244
      -510.1724       -397.5374         34.0004         31.0004
  -2387274.05347    659535.00546  23055052.7544   23055058.7544
     -1479.5784      -1152.9184         21.5004         18.0004
 01  3 21  0 50 30.0040000  0  8G21G22G18G 6G17G28G23G26
  -1900391.35945  -1382025.30945  25468470.3164   25468479.3094
      1262.9064        984.0834          8.7504          7.5004
   2968382.53945   2447465.64045  24505574.9104   24505582.6604
     -2022.6564      -1576.0964         11.5004         10.7504
  -9294611.75048  -6894820.71947  22415066.6994   22415071.5044
       396.1094        308.6574         31.5004         26.5004
   8201082.73048   6459444.92046  22278706.1914   22278712.2734
     -3684.1254      -2870.7474         30.0004         25.5004
  -3195302.81548  -2392107.35947  22042831.4654   22042837.4884
     -1147.5474       -894.1924         33.5004         31.5004
   -108828.58443     -4600.61255  26246399.7464   26246404.0124
       306.3914        238.7464          5.5004          5.2504
  -6981988.46448  -5325270.44947  22148214.0044   22148220.0394
      -523.4064       -407.8494         34.0004         30.7504
  -2342587.73447    694355.53246  23063556.1134   23063562.2894
     -1499.5474      -1168.4784         21.2504         18.0004
 01  3 21  0 51  0.0040000  0  8G21G22G18G 6G17G28G23G26
  -1938211.54745  -1411495.52245  25461272.0984   25461281.4654
      1258.4384        980.6014          8.0004          8.2504
   3029300.55846   2494934.21845  24517167.5044   24517173.4924
     -2038.5314      -1588.4664         12.2504         10.2504
  -9306309.70848  -6903935.97547  22412840.2694   22412845.2384
       383.7504        299.0264         30.7504         26.5004
   8311806.85148   6545723.43047  22299776.8404   22299782.7234
     -3697.4694      -2881.1444         30.7504         25.7504
  -3160793.87848  -2365217.28647  22049398.2694   22049404.2464
     -1153.0314       -898.4664         33.7504         31.2504
   -117821.28443    -11607.88344  26244688.2464   26244694.1414
       293.0944        228.3854          5.7504          4.2504
  -6966092.85248  -5312884.23447  22151238.5354   22151244.6054
      -536.2974       -417.8944         34.0004         30.7504
  -2297307.41647    729638.91046  23072172.4344   23072178.7974
     -1519.1564      -1183.7584         21.0004         17.7504
 01  3 21  0 51 30.0040000  0  8G21G22G18G 6G17G28G23G26
  -1975889.53245  -1440854.90545  25454103.0354   25454112.9534
      1253.5314        976.7784          7.7504          7.7504
   3090701.09445   2542778.76045  24528850.9414   24528858.0234
     -2054.7344      -1601.0924         11.2504         11.0004
  -9317630.03648  -6912756.96747  22410686.1444   22410691.4414
       371.0004        289.0914         30.5004         26.2504
   8422937.06048   6632318.36346  22320923.8794   22320929.9494
     -3711.1254      -2891.7864         30.0004         25.5004
  -3126113.75348  -2338193.81847  22055997.6684   22056003.6444
     -1158.8914       -903.0324         33.7504         31.2504
   -126407.70844    -18298.57845  26243054.3714   26243055.9654
       279.4064        217.7194          6.5004          6.2504
  -6949804.10348  -5300191.68147  22154338.3634   22154344.3754
      -549.5314       -428.2064         34.0004         31.0004
  -2251430.91047    765386.85546  23080902.6914   23080908.8094
     -1539.1874      -1199.3674         21.0004         17.2504
 01  3 21  0 52  0.0040000  0  8G21G22G18G 6G17G28G23G26
  -2013426.65144  -1470104.42745  25446959.0124   25446968.9654
      1248.8914        973.1624          7.2504          7.2504
   3152581.07045   2590996.89045  24540626.8484   24540633.7894
     -2070.6414      -1613.4864         11.2504         10.7504
  -9328573.93348  -6921284.64147  22408603.4024   22408608.5944
       358.5314        279.3754         30.5004         26.7504
   8534470.16948   6719227.23946  22342148.5274   22342154.1874
     -3724.4694      -2902.1834         30.7504         25.2504
  -3091264.26148  -2311038.37547  22062629.4184   22062635.3364
     -1164.4694       -907.3784         33.7504         31.0004
   -134588.32244    -24672.95445  26241497.0434   26241503.9734
       265.9064        207.2004          6.2504          5.7504
  -6933124.52048  -5287194.57847  22157512.3634   22157518.4924
      -562.4844       -438.3004         34.0004         31.2504
  -2204959.63047    801598.27446  23089745.9734   23089751.8914
     -1558.9534      -1214.7694         20.5004         17.2504
 01  3 21  0 52 30.0040000  0  8G21G22G18G 6G17G28G23G26
  -2050819.20344  -1499241.39345  25439843.0904   25439853.3244
      1243.9224        969.2904          6.7504          7.2504
   3214942.09945   2639589.87245  24552493.8714   24552501.8444
     -2086.7814      -1626.0634         11.2504         10.5004
  -9339138.22048  -6929516.51647  22406593.2234   22406598.3674
       345.7194        269.3914         31.0004         26.7504
   8646407.34148   6806450.98346  22363449.0824   22363454.9304
     -3738.0474      -2912.7644         30.2504         25.2504
  -3056242.86748  -2283748.98047  22069293.5904   22069299.5314
     -1170.3444       -911.9564         33.5004         30.7504
   -142359.05044    -30728.12145  26240018.3014   26240023.2814
       252.0634        196.4124          6.5004          5.2504
  -6916051.85548  -5273891.17947  22160761.1294   22160767.1644
      -575.7344       -448.6244         34.0004         31.2504
  -2157890.88946    838275.21546  23098702.1994   23098708.3984
     -1579.0004      -1230.3904         19.2504         17.0004
 01  3 21  0 53  0.0040000  0  8G21G22G18G 6G17G28G23G26
  -2088069.16445  -1528267.20945  25432755.6994   25432765.6294
      1239.2194        965.6254          7.7504          7.2504
   3277780.27345   2688554.66145  24564451.1604   24564458.3834
     -2102.5784      -1638.3734         11.5004         10.2504
  -9349325.09348  -6937454.30147  22404654.6054   22404659.7734
       333.2194        259.6514         31.0004         26.7504
   8758744.63448   6893986.50046  22384826.1134   22384832.1604
     -3751.2814      -2923.0764         29.7504         25.5004
  -3021052.28448  -2256327.75247  22075990.1914   22075996.0864
     -1175.8754       -916.2664         33.7504         31.0004
   -149721.25644    -36464.87145  26238618.1054   26238626.6764
       238.5474        185.8814          6.5004          5.5004
  -6898589.25248  -5260283.93647  22164084.4264   22164090.4734
      -588.6254       -458.6694         34.0004         31.5004
  -2110227.15347    875415.78546  23107773.0124   23107778.7664
     -1598.7664      -1245.7914         20.0004         16.7504
 01  3 21  0 53 30.0040000  0  8G21G22G18G 6G17G28G23G26
  -2125171.33345  -1557177.80345  25425696.3094   25425707.1174
      1234.4694        961.9244          8.5004          7.7504
   3341098.18945   2737893.29945  24576500.7544   24576508.0234
     -2118.3754      -1650.6824         11.2504         10.2504
  -9359129.60648  -6945094.13747  22402789.2854   22402793.9844
       320.6414        249.8504         31.7504         27.0004
   8871485.25248   6981836.29046  22406279.9104   22406285.8984
     -3764.5314      -2933.4014         29.5004         25.0004
  -2985687.80648  -2228771.01147  22082719.6524   22082725.6644
     -1181.5314       -920.6744         33.2504         30.7504
   -156668.77244    -41878.53645  26237295.8094   26237301.3164
       224.8444        175.2034          6.5004          6.2504
  -6880732.50348  -5246369.56747  22167482.4494   22167488.3914
      -601.5944       -468.7744         34.0004         31.5004
  -2061963.56746    913023.80246  23116956.6214   23116962.4104
     -1618.5784      -1261.2304         19.5004         16.7504
 01  3 21  0 54  0.0040000  0  8G21G22G18G 6G17G28G23G26
  -2162127.67944  -1585974.83445  25418661.3794   25418672.9494
      1229.1094        957.7484          7.2504          7.7504
   3404890.68245   2787601.69445  24588639.9964   24588647.7814
     -2134.6724      -1663.3814         11.2504          9.7504
  -9368554.82548  -6952438.42347  22400995.3164   22401000.2734
       307.4844        239.5984         30.7504         27.0004
   8984624.49048   7069996.70846  22427809.7934   22427815.7584
     -3778.2974      -2944.1274         29.7504         24.7504
  -2950152.89148  -2201081.46447  22089481.8404   22089487.8054
     -1187.6874       -925.4714         33.5004         30.7504
   -163203.87844    -46970.76845  26236051.6524   26236061.3244
       210.6254        164.1234          6.7504          6.0004
  -6862485.50448  -5232151.10347  22170954.5434   22170960.3914
      -615.0944       -479.2944         34.0004         31.2504
  -2013103.25647    951096.77446  23126255.1524   23126261.3054
     -1638.9844      -1277.1314         20.5004         17.0004
 01  3 21  0 54 30.0040000  0  8G21G22G18G 6G17G28G23G26
  -2198929.93445  -1614651.77745  25411658.8324   25411669.1254
      1224.2664        953.9734          8.2504          7.5004
   3469164.64145   2837685.31345  24600870.4024   24600877.7194
     -2150.3914      -1675.6294         10.7504          9.2504
  -9377591.92648  -6959480.28147  22399275.4574   22399280.6254
       294.8594        229.7614         30.5004         27.0004
   9098168.86848   7158472.82346  22449416.7934   22449422.5234
     -3791.4694      -2954.3914         30.2504         25.0004
  -2914439.67348  -2173252.99047  22096277.9734   22096283.9144
     -1193.3284       -929.8664         33.7504         30.7504
   -169317.16445    -51734.38245  26234889.1294   26234895.5394
       196.8134        153.3604          7.5004          6.2504
  -6843840.85348  -5217622.78547  22174502.4024   22174508.3674
      -628.0314       -489.3754         34.0004         31.2504
  -1963638.13546    989641.05246  23135667.5274   23135674.0194
     -1658.8444      -1292.6064         19.7504         17.2504
 01  3 21  0 55  0.0040000  0  8G21G22G18G 6G17G28G23G26
  -2235586.03945  -1643214.84645  25404682.8794   25404693.7344
      1219.2814        950.0894          8.2504          8.7504
   3533910.72845   2888136.74145  24613192.1914   24613198.7194
     -2166.1724      -1687.9264         11.5004          9.2504
  -9386248.95948  -6966225.99547  22397628.3014   22397633.3404
       282.0944        219.8134         31.0004         27.0004
   9212108.87648   7247257.21546  22471098.3244   22471104.3014
     -3804.7034      -2964.7044         28.7504         24.7504
  -2878556.38248  -2145291.98047  22103106.3714   22103112.3124
     -1199.0624       -934.3344         33.7504         30.5004
   -175015.49944    -56174.57245  26233804.3714   26233811.4064
       182.8914        142.5124          7.2504          6.5004
  -6824807.21248  -5202791.35447  22178124.3244   22178130.2774
      -641.0474       -499.5174         34.0004         31.0004
  -1913576.28747   1028650.28946  23145194.2624   23145200.2854
     -1678.8124      -1308.1664         20.2504         17.5004
 01  3 21  0 55 30.0040000  0  8G21G22G18G 6G17G28G23G26
  -2272093.52945  -1671662.09745  25397736.1524   25397745.3794
      1214.3754        946.2664          8.0004          8.0004
   3599128.73045   2938955.96145  24625602.2464   24625608.8444
     -2181.8444      -1700.1384         11.5004         10.0004
  -9394524.00848  -6972674.04447  22396053.4024   22396058.6174
       269.3914        209.9154         30.5004         27.5004
   9326444.70148   7336350.02346  22492855.6134   22492861.5084
     -3817.8444      -2974.9434         28.0004         24.2504
  -2842501.40048  -2117197.18047  22109967.5124   22109973.3944
     -1204.7664       -938.7784         33.7504         30.7504
   -180295.90845    -60289.20145  26232799.9494   26232808.0394
       168.9534        131.6524          7.7504          6.2504
  -6805383.59748  -5187656.05747  22181820.5514   22181826.5514
      -654.0164       -509.6234         34.0004         31.0004
  -1862916.14347   1068125.74946  23154834.6444   23154840.9024
     -1698.7344      -1323.6894         20.0004         16.7504
 01  3 21  0 56  0.0040000  0  8G21G22G18G 6G17G28G23G26
  -2308451.60745  -1699992.94545  25390817.3324   25390826.9694
      1209.5634        942.5164          8.7504          7.5004
   3664817.01945   2990141.61645  24638102.5514   24638109.2304
     -2197.3284      -1712.2044         11.5004         10.0004
  -9402416.10448  -6978823.69847  22394551.8794   22394557.0824
       256.7814        200.0894         31.2504         27.5004
   9441175.42148   7425750.55446  22514688.3714   22514694.3714
     -3830.8284      -2985.0614         28.5004         25.0004
  -2806274.37848  -2088968.33147  22116861.1524   22116867.1414
     -1210.3444       -943.1254         33.7504         31.0004
   -185156.51845    -64076.67345  26231875.1444   26231881.2504
       155.0944        120.8524          7.7504          7.0004
  -6785570.05748  -5172216.90947  22185591.1134   22185597.0434
      -666.8444       -519.6194         34.0004         31.2504
  -1811657.16246   1108067.82146  23164588.1994   23164594.0704
     -1718.5314      -1339.1154         18.7504         16.5004
 01  3 21  0 56 30.0040000  0  8G21G22G18G 6G17G28G23G26
  -2344657.08145  -1728204.86045  25383927.4494   25383936.7114
      1204.3444        938.4504          8.7504          8.0004
   3730976.46445   3041694.40445  24650691.7854   24650699.0434
     -2213.0944      -1724.4894         10.5004         10.0004
  -9409922.55148  -6984672.83947  22393123.2854   22393128.2304
       243.8134        189.9844         30.7504         27.7504
   9556301.82948   7515459.40146  22536596.3094   22536602.4494
     -3844.0944      -2995.3984         28.5004         24.5004
  -2769872.96648  -2060603.59047  22123788.0824   22123794.0704
     -1216.2504       -947.7274         33.5004         31.0004
   -189594.02545    -67534.45145  26231031.0664   26231039.5084
       140.8914        109.7854          8.2504          6.7504
  -6765364.71848  -5156472.47147  22189436.0904   22189441.9264
      -680.0004       -529.8704         34.0004         31.7504
  -1759796.85046   1148478.45146  23174456.7694   23174462.7934
     -1738.6564      -1354.7974         19.0004         16.5004
 01  3 21  0 57  0.0040000  0  8G21G22G18G 6G17G28G23G26
  -2380708.25445  -1756296.50645  25377066.6214   25377073.5744
      1199.1414        934.3954          8.5004          7.5004
   3797606.33745   3093613.77945  24663371.8554   24663378.3244
     -2228.8124      -1736.7374         11.2504         10.0004
  -9417042.53448  -6990220.84747  22391768.1444   22391773.1254
       230.9064        179.9274         30.7504         27.5004
   9671822.99048   7605475.84846  22558579.5354   22558585.3244
     -3857.2504      -3005.6494         29.5004         24.7504
  -2733296.35848  -2032102.34147  22130748.3554   22130754.3324
     -1222.1094       -952.2934         33.5004         31.0004
   -193606.69945    -70661.16445  26230266.8874   26230273.7694
       126.6884         98.7184          7.5004          6.2504
  -6744767.74248  -5140422.86647  22193355.5124   22193361.5124
      -693.0624       -540.0494         34.0004         31.2504
  -1707334.74947   1189358.02946  23184440.7384   23184446.6444
     -1758.7504      -1370.4554         20.5004         17.2504
 01  3 21  0 57 30.0040000  0  8G21G22G18G 6G17G28G23G26
  -2416608.35845  -1784270.45045  25370235.7074   25370242.7664
      1194.1564        930.5114          9.2504          7.7504
   3864701.12645   3145895.39845  24676139.5744   24676146.2664
     -2244.2194      -1748.7424         11.2504          9.7504
  -9423779.58548  -6995470.46547  22390486.0354   22390491.4144
       218.1884        170.0164         30.7504         27.7504
   9787733.33248   7695795.56846  22580636.6374   22580642.3554
     -3870.1414      -3015.6944         28.7504         24.2504
  -2696548.79248  -2003467.87447  22137741.2234   22137747.1874
     -1227.7664       -956.7004         33.7504         31.0004
   -197197.03144    -73458.87045  26229582.9414   26229590.4104
       112.6254         87.7604          6.5004          6.2504
  -6723783.74948  -5124071.68547  22197348.5904   22197354.5314
      -705.9064       -550.0574         34.0004         31.5004
  -1654274.85146   1230703.41846  23194537.4734   23194543.6954
     -1778.6094      -1385.9294         19.5004         17.2504
 01  3 21  0 58  0.0040000  0  8G21G22G18G 6G17G28G23G26
  -2452352.28845  -1812122.70645  25363433.5274   25363443.7974
      1188.8134        926.3474          9.2504          8.5004
   3932263.70245   3198541.53145  24688996.5044   24689003.4694
     -2259.8914      -1760.9544         11.5004         10.2504
  -9430128.45448  -7000417.61247  22389278.1374   22389283.0124
       205.1414        159.8504         31.2504         28.2504
   9904036.17248   7786421.12346  22602768.1764   22602774.1644
     -3883.3124      -3025.9584         28.2504         24.2504
  -2659625.47748  -1974696.46347  22144767.5594   22144773.5824
     -1233.7194       -961.3394         33.7504         31.2504
   -200359.28643    -75922.91545  26228980.6844   26228991.5984
        98.2504         76.5584          6.0004          6.7504
  -6702408.53848  -5107415.66047  22201415.9734   22201421.9374
      -719.0314       -560.2844         34.0004         31.0004
  -1600612.62846   1272518.13246  23204749.2154   23204755.0044
     -1798.7974      -1401.6604         19.0004         16.7504
 01  3 21  0 58 30.0040000  0  8G21G22G18G 6G17G28G23G26
  -2487945.28545  -1839857.37545  25356660.6054   25356670.9224
      1183.9534        922.5614          9.2504          8.7504
   4000286.12145   3251545.98945  24701940.0354   24701946.5624
     -2275.0004      -1772.7274         10.7504         10.7504
  -9436095.03248  -7005066.85947  22388142.3484   22388147.5514
       192.5634        150.0494         30.2504         28.0004
  10020724.20448   7877346.82346  22624973.4414   22624979.2774
     -3895.9534      -3035.8084         28.2504         24.0004
  -2622532.10148  -1945792.53047  22151825.9264   22151831.9264
     -1239.2344       -965.6374         33.7504         31.0004
   -203097.98044    -78056.95745  26228459.9654   26228465.8594
        84.2664         65.6624          6.2504          6.2504
  -6680648.67248  -5090459.90447  22205556.7934   22205562.7344
      -731.6724       -570.1344         34.0004         31.2504
  -1546353.82046   1314797.73346  23215074.0354   23215080.0354
     -1818.5164      -1417.0254         18.7504         16.2504
 01  3 21  0 59  0.0040000  0  8G21G22G18G 6G17G28G23G26
  -2523385.91145  -1867473.26945  25349915.9024   25349924.7774
      1178.7194        918.4824          9.5004          8.7504
   4068767.43645   3304908.02545  24714971.3484   24714977.6994
     -2290.3914      -1784.7204         10.5004          9.2504
  -9441678.22948  -7009417.36147  22387080.0274   22387084.8674
       179.6414        139.9804         31.2504         28.0004
  10137796.26747   7968571.77046  22647251.0824   22647257.0354
     -3908.8594      -3045.8644         27.0004         23.5004
  -2585268.15448  -1916755.68447  22158917.2694   22158923.2234
     -1245.0314       -970.1544         33.7504         31.0004
   -205411.35044    -79859.55245  26228018.9184   26228027.2304
        69.9384         54.4974          6.2504          6.5004
  -6658504.22648  -5073204.47947  22209770.7774   22209776.7664
      -744.6254       -580.2274         34.0004         31.5004
  -1491498.22547   1357542.36946  23225513.1604   23225518.7034
     -1838.5164      -1432.6104         20.0004         16.5004
 01  3 21  0 59 30.0040000  0  8G21G22G18G 6G17G28G23G26
  -2558670.30045  -1894967.43845  25343201.8164   25343210.7154
      1173.5164        914.4284         10.0004          8.7504
   4137709.71145   3358629.27045  24728090.6914   24728097.3714
     -2305.7974      -1796.7254         10.7504         10.0004
  -9446874.25648  -7013466.18647  22386091.3794   22386096.2074
       166.7034        129.8994         31.0004         28.0004
  10255254.39847   8060097.53246  22669602.6684   22669608.7504
     -3921.7344      -3055.8974         26.7504         23.5004
  -2547830.32748  -1887583.34247  22166041.0274   22166046.9924
     -1250.8594       -974.6964         33.2504         30.7504
   -207294.80644    -81327.20445  26227661.9184   26227666.0084
        55.5784         43.3084          7.2504          6.7504
  -6635972.34048  -5055647.15347  22214058.2934   22214064.2114
      -757.5474       -590.2964         34.0004         31.2504
  -1436042.46147   1400754.66546  23236065.9344   23236071.8524
     -1858.5784      -1448.2434         20.2504         17.0004
 01  3 21  1  0  0.0040000  0  8G21G22G18G 6G17G28G23G26
  -2593795.00645  -1922337.15845  25336517.7624   25336527.6334
      1168.2344        910.3134         10.5004          9.2504
   4207114.56045   3412710.92345  24741297.9654   24741305.3284
     -2321.0624      -1808.6204         10.5004          9.7504
  -9451679.74748  -7017210.69647  22385176.6374   22385181.7934
       153.7814        119.8304         30.2504         28.2504
  10373100.33947   8151925.50146  22692028.2154   22692034.2974
     -3934.5474      -3065.8814         26.7504         23.2504
  -2510215.42748  -1858273.02947  22173199.0044   22173205.0394
     -1256.6724       -979.2254         33.2504         30.7504
   -208744.18644    -82456.58845  26227386.3484   26227391.9844
        41.1564         32.0704          7.2504          6.2504
  -6613050.38748  -5037785.87647  22218420.1764   22218426.0234
      -770.4534       -600.3534         34.0004         31.0004
  -1379983.40346   1444437.04846  23246733.4104   23246739.4104
     -1878.5784      -1463.8274         19.7504         17.2504
 01  3 21  1  0 30.0040000  0  9G21G22G18G 6G17G28G23G 3G26
  -2628765.73845  -1949586.98945  25329862.1134   25329869.6874
      1163.0004        906.2344         10.2504          9.2504
   4276972.97345   3467146.02345  24754592.0744   24754599.4144
     -2336.2974      -1820.4914         10.5004          9.0004
  -9456101.34548  -7020656.06947  22384335.6994   22384340.4924
       140.8594        109.7614         31.5004         28.5004
  10491325.80847   8244049.21246  22714525.7624   22714531.7974
     -3947.2814      -3075.8044         27.2504         23.5004
  -2472430.01848  -1828829.85447  22180389.5124   22180395.4304
     -1262.4844       -983.7544         33.7504         31.2504
   -209765.06544    -83252.04945  26227190.7384   26227200.0474
        26.7344         20.8324          6.5004          5.7504
  -6589745.95548  -5019626.56547  22222854.8484   22222860.8124
      -783.3124       -610.3734         33.7504         31.0004
    -20045.13155                  26286282.2464
      1822.1414                          7.5004
  -1323328.15946   1488583.99046  23257514.4414   23257520.5824
     -1898.5624      -1479.3994         19.5004         17.5004
 01  3 21  1  1  0.0040000  0  9G21G22G18G 6G17G28G23G 3G26
  -2663575.71945  -1976711.49645  25323237.5194   25323245.8674
      1157.7344        902.1314          9.5004          8.7504
   4347288.85545   3521937.59545  24767972.4574   24767981.2154
     -2351.3914      -1832.2524         10.0004         10.0004
  -9460132.82548  -7023797.45047  22383568.4104   22383573.1444
       127.9534         99.7044         30.7504         28.5004
  10609934.92847   8336471.86546  22737096.1914   22737102.3094
     -3959.9224      -3085.6534         26.2504         23.0004
  -2434468.16148  -1799249.19347  22187613.2464   22187619.3054
     -1268.2504       -988.2474         33.2504         30.7504
   -210350.47144    -83708.24345  26227080.0594   26227085.0044
        12.2974          9.5824          7.2504          6.5004
  -6566053.70948  -5001165.06547  22227363.2854   22227369.3094
      -796.1094       -620.3454         34.0004         31.2504
    -74687.15045                  26275884.3714
      1820.7344                          7.7504
  -1266071.01747   1533199.95746  23268410.4654   23268416.8634
     -1918.5314      -1494.9594         20.0004         17.7504
 01  3 21  1  1 30.0040000  0  9G21G22G18G 6G17G28G23G 3G26
  -2698230.98445  -2003715.48445  25316642.9804   25316650.6484
      1152.6564        898.1744          9.7504          8.7504
   4418054.38345   3577079.54045  24781439.9264   24781446.5944
     -2366.2814      -1843.8564         11.2504         10.5004
  -9463780.31748  -7026639.62047  22382874.0434   22382879.0594
       115.2194         89.7814         30.5004         28.2504
  10728919.59247   8429187.14246  22759738.0904   22759744.3484
     -3972.3594      -3095.3454         25.5004         23.0004
  -2396336.22448  -1769535.99447  22194869.6604   22194875.5664
     -1273.8444       -992.6064         33.5004         30.7504
   -210505.40544    -83828.95045  26227050.5744   26227055.3914
        -2.0004         -1.5584          6.7504          6.7504
  -6541980.96848  -4982407.07047  22231944.2074   22231950.2664
      -808.7034       -630.1584         33.7504         31.5004
   -129289.36245    -17014.84255  26265494.2694   26265502.5474
      1819.4534       1417.7564          8.5004          7.2504
  -1208218.71946   1578279.67346  23279418.9024   23279425.1604
     -1938.2664      -1510.3374         19.2504         17.5004
 01  3 21  1  2  0.0040000  0  9G21G22G18G 6G17G28G23G 3G26
  -2732728.96645  -2030596.90545  25310077.8874   25310086.7974
      1147.2344        893.9494          9.7504          9.0004
   4489269.94045   3632572.16845  24794990.4024   24794996.4734
     -2381.4064      -1855.6414         10.7504         10.0004
  -9467041.36348  -7029180.66647  22382253.7074   22382258.6174
       102.1884         79.6274         31.5004         28.7504
  10848280.34147   8522195.47146  22782452.0274   22782458.0274
     -3985.0004      -3105.1954         26.5004         22.7504
  -2358032.19948  -1739688.70647  22202158.9884   22202165.0124
     -1279.7344       -997.1964         33.7504         31.0004
   -210226.77244    -83611.77645  26227102.4964   26227110.9964
       -16.5624        -12.9064          7.0004          5.7504
  -6517526.40848  -4963351.56347  22236597.8244   22236603.8364
      -821.5784       -640.1914         34.0004         31.5004
   -183847.89045    -59527.98245  26255112.0044   26255119.0624
      1817.7974       1416.4654          8.5004          7.0004
  -1149769.62046   1623824.43846  23290541.5984   23290547.9264
     -1958.3124      -1525.9584         19.2504         17.5004
 01  3 21  1  2 30.0040000  0  9G21G22G18G 6G17G28G23G 3G26
  -2767065.92945  -2057352.83245  25303545.2304   25303554.9024
      1141.7814        889.7004         10.7504          9.0004
   4560936.49945   3688416.20945  24808628.6294   24808635.1564
     -2396.4844      -1867.3904         10.7504          9.7504
  -9469913.02748  -7031418.29747  22381707.2624   22381712.0194
        89.1094         69.4364         31.5004         29.0004
  10968018.45947   8615497.85746  22805237.7074   22805243.6134
     -3997.6564      -3115.0574         26.7504         22.7504
  -2319553.11148  -1709705.01047  22209481.1604   22209487.1024
     -1285.6724      -1001.8224         33.7504         31.0004
   -209510.98345    -83054.04345  26227238.9494   26227246.8754
       -31.2664        -24.3634          7.5004          7.2504
  -6492688.00348  -4943996.95047  22241324.6214   22241330.5744
      -834.4374       -650.2114         34.0004         31.7504
   -238357.86245   -102003.20345  26244739.6844   26244744.5004
      1816.0784       1415.1264          9.2504          7.2504
  -1090721.12846   1669836.25646  23301778.0744   23301784.7774
     -1978.3754      -1541.5914         19.5004         17.2504
 01  3 21  1  3  0.0040000  0  9G21G22G18G 6G17G28G23G 3G26
  -2801242.75045  -2083983.96145  25297040.6444   25297050.5164
      1136.5634        885.6334         10.5004          9.2504
   4633050.97845   3744609.27045  24822350.8244   24822357.2464
     -2411.2664      -1878.9084          9.7504         10.2504
  -9472395.89248  -7033352.96347  22381234.6134   22381239.5004
        76.2814         59.4404         31.2504         28.7504
  11088131.54847   8709092.41946  22828094.5904   22828100.2034
     -4010.0004      -3124.6754         27.2504         23.2504
  -2280899.56448  -1679585.36847  22216836.6054   22216842.6414
     -1291.3594      -1006.2544         33.7504         31.2504
   -208357.48045    -82155.19045  26227460.2544   26227467.3714
       -45.7344        -35.6374          8.5004          7.5004
  -6467467.10548  -4924344.28947  22246123.8634   22246129.8164
      -847.0624       -660.0494         34.0004         31.7504
   -292818.11345   -144439.71045  26234375.6524   26234380.5044
      1814.5004       1413.8964          9.2504          7.0004
  -1031074.26946   1716314.33146  23313128.6054   23313134.3944
     -1998.2034      -1557.0414         18.7504         16.5004
 01  3 21  1  3 30.0050000  0  9G21G22G18G 6G17G28G23G 3G26
  -2835258.34345  -2110489.51145  25290567.8994   25290576.6924
      1131.2194        881.4694         11.2504          9.7504
   4705615.46145   3801153.01545  24836159.9544   24836166.5874
     -2426.0624      -1890.4384         10.0004          9.5004
  -9474488.43748  -7034983.49647  22380836.1574   22380841.1264
        63.3594         49.3714         30.5004         28.7504
  11208623.42247   8802982.14346  22851023.0094   22851029.1964
     -4022.3754      -3134.3184         25.5004         23.0004
  -2242068.79748  -1649327.63447  22224225.7904   22224231.7784
     -1297.1254      -1010.7474         33.7504         31.2504
   -206763.78245    -80913.34645  26227763.2354   26227768.9424
       -60.3284        -47.0094          8.2504          6.5004
  -6441862.06448  -4904392.30247  22250996.2124   22251002.0364
      -859.7344       -669.9234         34.0004         31.7504
   -347227.09645   -186836.29545  26224022.1734   26224028.6184
      1812.7974       1412.5694          9.5004          7.7504
   -970826.03646   1763261.00846  23324593.2434   23324599.6884
     -2018.1094      -1572.5534         18.7504         17.0004
 01  3 21  1  4  0.0050000  0  9G21G22G18G 6G17G28G23G 3G26
  -2869110.95845  -2136868.08645  25284125.5094   25284134.4074
      1125.7344        877.1964         11.2504          9.2504
   4778622.23745   3858041.39145  24850053.4934   24850059.5524
     -2440.9224      -1902.0174         11.0004          8.7504
  -9476191.70748  -7036310.69347  22380512.4074   22380517.2704
        50.3284         39.2174         31.2504         29.0004
  11329482.97447   8897158.36746  22874021.8684   22874028.3604
     -4034.7814      -3143.9854         25.2504         22.7504
  -2203064.89348  -1618934.98347  22231648.2744   22231654.2864
     -1303.0004      -1015.3254         34.0004         31.5004
   -204730.32345    -79328.80945  26228149.3924   26228156.1534
       -75.0944        -58.5154          8.0004          7.5004
  -6415876.84948  -4884144.07347  22255941.1734   22255947.1384
      -872.4844       -679.8584         33.7504         31.7504
   -401580.83845   -229189.82845  26213678.7044   26213684.1064
      1810.9064       1411.0964          9.5004          7.7504
   -909982.20446   1810671.77646  23336171.5484   23336177.4664
     -2038.0624      -1588.1014         18.7504         17.0004
 01  3 21  1  4 30.0050000  0  9G21G22G18G 6G17G28G23G 3G26
  -2902804.92445  -2163123.00245  25277713.4854   25277722.9354
      1120.4534        873.0804         11.0004          9.5004
   4852068.15645   3915271.94245  24864029.2744   24864037.5524
     -2455.5004      -1913.3774         10.2504          9.7504
  -9477509.34648  -7037337.40547  22380261.5714   22380266.5054
        37.4694         29.1964         31.2504         29.2504
  11450708.64947   8991619.89046  22897090.5014   22897096.6534
     -4046.9694      -3153.4824         25.5004         22.2504
  -2163890.12048  -1588409.19147  22239102.8064   22239108.8534
     -1308.7034      -1019.7694         33.5004         31.5004
   -202259.99845    -77403.87945  26228619.6344   26228625.2124
       -89.6724        -69.8744          8.2504          7.7504
  -6389515.07448  -4863602.42347  22260957.5244   22260963.4664
      -885.0314       -689.6354         34.0004         32.0004
   -455882.98245   -271503.19045  26203345.4384   26203349.2124
      1809.1884       1409.7564          9.5004          7.7504
   -848544.97246   1858544.94146  23347862.7354   23347869.1454
     -2057.8124      -1603.4904         18.7504         17.0004
 01  3 21  1  5  0.0050000  0  9G21G22G18G 6G17G28G23G 3G26
  -2936336.86545  -2189251.67845  25271332.4704   25271341.3804
      1114.8754        868.7344         11.2504          9.5004
   4925953.27345   3972844.75545  24878089.3134   24878096.1104
     -2470.2814      -1924.8944         10.5004          9.7504
  -9478438.83748  -7038061.66347  22380084.5954   22380089.8804
        24.3754         18.9944         31.0004         29.2504
  11572301.23747   9086367.31746  22920228.6734   22920234.8954
     -4059.3284      -3163.1134         24.7504         22.2504
  -2124542.02448  -1557748.34047  22246590.0954   22246596.0604
     -1314.6414      -1024.3954         32.5004         31.0004
   -199349.40045    -75135.88545  26229173.9854   26229179.7284
      -104.5164        -81.4414          8.7504          6.2504
  -6362775.21048  -4842766.15447  22266045.8604   22266051.8604
      -897.7664       -699.5584         34.0004         31.7504
   -510129.07745   -313772.83545  26193022.2044   26193028.6144
      1807.1094       1408.1374          9.2504          7.7504
   -786512.58146   1906881.87846  23359666.9624   23359673.0444
     -2077.7974      -1619.0624         19.0004         17.0004
 01  3 21  1  5 30.0050000  0  9G21G22G18G 6G17G28G23G 3G26
  -2969701.79045  -2215250.17945  25264983.5244   25264990.6304
      1109.4844        864.5334         11.2504          9.0004
   5000280.16245   4030761.77545  24892233.0564   24892241.1344
     -2484.7814      -1936.1934         10.2504          9.7504
  -9478975.31048  -7038479.67247  22379982.3764   22379987.4504
        11.4534          8.9254         31.5004         29.2504
  11694263.88347   9181403.08846  22943437.5324   22943443.6614
     -4071.4534      -3172.5614         25.0004         22.2504
  -2085015.64648  -1526948.56947  22254112.0714   22254118.0714
     -1320.3914      -1028.8764         33.2504         31.0004
   -195992.63745    -72520.17345  26229812.7984   26229818.5054
      -119.2034        -92.8864          9.5004          7.7504
  -6335653.27648  -4821632.17647  22271207.1104   22271213.0634
      -910.2974       -709.3224         34.0004         31.7504
   -564312.31645   -355993.49545  26182711.6424   26182717.4424
      1805.1564       1406.6154          9.2504          8.2504
   -723880.60846   1955686.01246  23371585.7434   23371591.8374
     -2097.5944      -1634.4894         19.5004         16.7504
 01  3 21  1  6  0.0050000  0  9G21G22G18G 6G17G28G23G 3G26
  -3002905.54445  -2241123.12245  25258664.6344   25258672.1144
      1104.1254        860.3574         10.7504          9.5004
   5075040.95545   4089016.91545  24906459.2044   24906467.0484
     -2499.2194      -1947.4434         10.0004         10.0004
  -9479124.73248  -7038596.08247  22379954.1654   22379959.0284
        -1.4374         -1.1204         31.7504         29.7504
  11816588.68947   9276721.07046  22966715.3604   22966721.4074
     -4083.4844      -3181.9364         25.2504         22.2504
  -2045317.21448  -1496014.73447  22261666.3844   22261672.4664
     -1326.1254      -1033.3444         33.7504         31.5004
   -192195.21145    -69561.16445  26230535.3764   26230540.3104
      -133.9064       -104.3434          9.7504          7.7504
  -6308156.34948  -4800205.99047  22276439.6184   22276445.5954
      -922.7814       -719.0504         34.0004         32.0004
   -618437.06345   -398168.55445  26172411.7904   26172418.1304
      1803.1884       1405.0814          9.0004          8.5004
   -660655.94646   2004951.98346  23383616.2204   23383622.4784
     -2117.3444      -1649.8784         18.5004         16.5004
 01  3 21  1  6 30.0050000  0  9G21G22G18G 6G17G28G23G 3G26
  -3035948.00045  -2266870.32045  25252376.6574   25252385.0634
      1098.8134        856.2184         10.5004         10.0004
   5150233.71445   4147608.65745  24920767.4544   24920774.4194
     -2513.5314      -1958.5964          9.2504         10.0004
  -9478887.40648  -7038411.13547  22379999.2984   22380004.1034
       -14.2664        -11.1164         31.5004         29.7504
  11939273.52847   9372319.59946  22990061.5794   22990067.9664
     -4095.3914      -3191.2134         25.2504         22.5004
  -2005446.79048  -1464946.87647  22269253.5404   22269259.5174
     -1331.7974      -1037.7644         33.7504         31.5004
   -187956.32545    -66258.08745  26231341.2594   26231347.1424
      -148.5944       -115.7874          9.0004          7.7504
  -6280285.61948  -4778488.52647  22281743.3684   22281749.2394
      -935.1564       -728.6934         34.0004         32.2504
   -672501.66845   -440296.83745  26162123.4464   26162129.7164
      1801.2034       1403.5354          9.0004          8.0004
   -596839.21146   2054679.31746  23395761.0564   23395767.3954
     -2137.0164      -1665.2074         19.5004         16.2504
 01  3 21  1  7  0.0050000  0  9G21G22G18G 6G17G28G23G 3G26
  -3068826.75845  -2292489.98445  25246120.6034   25246129.1964
      1093.1254        851.7864         11.2504          9.7504
   5225858.03845   4206536.67145  24935158.8374   24935166.6574
     -2528.0944      -1969.9434         10.0004         10.0004
  -9478261.74948  -7037923.59247  22380118.2674   22380123.1184
       -27.4534        -21.3924         31.2504         29.5004
  12062318.28447   9468198.58546  23013476.0714   23013482.4704
     -4107.5944      -3200.7224         25.5004         22.5004
  -1965402.58248  -1433743.60547  22276873.7744   22276879.7984
     -1337.8284      -1042.4634         33.7504         31.5004
   -183273.46945    -62609.13745  26232232.5794   26232240.9744
      -163.6094       -127.4884          8.7504          7.2504
  -6252040.30348  -4756479.18247  22287117.8994   22287123.8994
      -947.8754       -738.6044         34.0004         31.7504
   -726502.46045   -482375.28045  26151848.3294   26151855.7394
      1798.8444       1401.6964          9.0004          8.0004
   -532429.40246   2104868.78346  23408017.3064   23408023.5994
     -2157.0004      -1680.7794         19.2504         17.0004
 01  3 21  1  7 30.0050000  0  9G21G22G18G 6G17G28G23G 3G26
  -3101537.09645  -2317978.45045  25239895.9544   25239905.1924
      1087.4844        847.3904         11.5004          9.7504
   5301915.77845   4265802.39445  24949632.2434   24949640.4274
     -2542.5004      -1981.1694          9.5004         10.0004
  -9477243.01848  -7037129.76547  22380312.1964   22380316.8254
       -40.5474        -31.5954         31.7504         30.0004
  12185725.48647   9564359.98846  23036960.0014   23036965.9784
     -4119.6414      -3210.1104         25.2504         21.7504
  -1925180.23048  -1402401.52147  22284527.6814   22284533.6344
     -1343.7504      -1047.0784         33.7504         31.2504
   -178141.50645    -58610.13845  26233209.1344   26233217.2354
      -178.6094       -139.1764          8.2504          6.5004
  -6223416.77748  -4734175.12947  22292564.8294   22292570.8174
      -960.4534       -748.4054         34.0004         31.7504
   -780433.26445   -524399.28445  26141585.1494   26141591.6064
      1796.4384       1399.8214          9.0004          8.2504
   -467422.95347   2155523.16846  23420388.1964   23420393.9154
     -2176.8754      -1696.2664         20.2504         17.2504
 01  3 21  1  8  0.0050000  0  9G21G22G18G 6G17G28G23G 3G26
  -3134080.87046  -2343337.09545  25233703.3374   25233712.0014
      1081.9844        843.1054         12.2504         10.2504
   5378402.41745   4325402.36645  24964186.9704   24964194.2744
     -2556.7034      -1992.2364          9.2504          9.7504
  -9475833.80148  -7036031.65647  22380580.2204   22380584.8954
       -53.5004        -41.6884         31.2504         29.5004
  12309491.00047   9660800.59046  23060511.5954   23060517.5364
     -4131.4844      -3219.3384         24.7504         21.5004
  -1884782.18848  -1370922.53447  22292215.3134   22292221.2784
     -1349.5624      -1051.6074         33.7504         31.2504
   -172561.85445    -54262.41445  26234271.5484   26234278.3454
      -193.4844       -150.7674          8.5004          7.5004
  -6194418.00548  -4711578.68447  22298083.3294   22298089.3294
      -972.8914       -758.0974         34.0004         32.5004
   -834294.52645   -566369.06345  26131335.4234   26131343.2084
      1794.1724       1398.0564          9.0004          8.7504
   -401822.83946   2206640.14146  23432871.1344   23432877.5094
     -2196.5784      -1711.6194         19.7504         17.2504
 01  3 21  1  8 30.0050000  0  9G21G22G18G 6G17G28G23G 3G26
  -3166457.16145  -2368565.24145  25227541.7204   25227549.4234
      1076.4694        838.8074         11.7504         10.0004
   5455316.54145   4385335.38245  24978823.3134   24978829.4314
     -2570.8594      -2003.2674          9.5004          9.7504
  -9474033.84348  -7034629.08047  22380922.6264   22380927.6774
       -66.4694        -51.7944         31.0004         29.5004
  12433613.40947   9757519.29646  23084131.1654   23084137.4114
     -4143.2974      -3228.5434         24.2504         21.2504
  -1844207.88848  -1339306.19847  22299936.2984   22299942.2984
     -1355.3594      -1056.1244         33.7504         31.2504
   -166533.38345    -49564.84045  26235417.7044   26235423.8454
      -208.3914       -162.3824          8.0004          6.7504
  -6165044.84848  -4688690.50147  22303672.8214   22303678.7394
      -985.2664       -767.7394         34.0004         32.2504
   -888083.91645   -608282.85245  26121100.0014   26121108.0444
      1791.8134       1396.2184          9.2504          8.0004
   -335629.46046   2258219.40646  23445466.9464   23445473.4744
     -2216.2664      -1726.9604         18.7504         17.0004
 01  3 21  1  9  0.0050000  0  9G21G22G18G 6G17G28G23G 3G26
  -3198667.35546  -2393663.93445  25221412.4544   25221421.7864
      1070.9694        834.5214         12.0004         10.0004
   5532654.20045   4445598.49845  24993539.9234   24993546.8884
     -2584.8754      -2014.1884          9.2504         10.2504
  -9471845.09348  -7032923.55247  22381339.3214   22381344.2784
       -79.3594        -61.8384         31.5004         30.0004
  12558088.84547   9854513.09546  23107818.3924   23107824.7204
     -4154.9694      -3237.6384         24.5004         21.2504
  -1803459.34648  -1307554.08747  22307690.5564   22307696.5564
     -1361.1094      -1060.6054         33.5004         31.2504
   -160057.61645    -44518.80445  26236651.4784   26236658.0404
      -223.2504       -173.9614          9.0004          7.7504
  -6135300.90548  -4665513.39047  22309333.0714   22309338.9074
      -997.5624       -777.3214         34.0004         32.0004
   -941801.55345   -650140.73045  26110877.6344   26110885.5714
      1789.4384       1394.3674          9.0004          8.5004
   -268845.69046   2310258.70646  23458175.6264   23458181.6384
     -2235.8754      -1742.2404         19.2504         16.7504
 01  3 21  1  9 30.0050000  0  9G21G22G18G 6G17G28G23G 3G26
  -3230706.92146  -2418629.74545  25215315.0634   25215323.3994
      1065.2034        830.0284         12.2504         10.5004
   5610417.29345   4506193.04845  25008337.7744   25008345.3604
     -2599.1094      -2025.2804          8.7504          9.5004
  -9469263.25448  -7030911.71847  22381830.4154   22381835.5364
       -92.5624        -72.1274         30.7504         30.0004
  12682919.62247   9951783.78046  23131572.6654   23131579.2744
     -4166.8754      -3246.9164         24.5004         21.5004
  -1762532.09948  -1275662.72547  22315478.5714   22315484.5604
     -1367.1724      -1065.3294         33.5004         31.2504
   -153129.05345    -39119.93845  26237969.0174   26237975.5564
      -238.4534       -185.8084          9.5004          7.2504
  -6105182.41148  -4642044.42347  22315064.1814   22315070.0874
     -1010.1254       -787.1104         34.0004         31.7504
   -995441.09345   -691937.71845  26100670.4624   26100678.4584
      1786.7504       1392.2734          9.2504          8.7504
   -201467.97246   2362760.82946  23470997.1104   23471003.1574
     -2255.7814      -1757.7524         19.7504         17.0004
 01  3 21  1 10  0.0050000  0  9G21G22G18G 6G17G28G23G 3G26
  -3262577.19446  -2443463.57645  25209250.0874   25209258.2124
      1059.5944        825.6574         12.0004         10.0004
   5688601.84245   4567116.04945  25023216.0484   25023221.8024
     -2613.0784      -2036.1654          9.7504          9.7504
  -9466289.85648  -7028594.76447  22382396.1654   22382401.2394
      -105.5474        -82.2444         30.5004         29.7504
  12808102.64347  10049328.94646  23155394.5324   23155400.7084
     -4178.5314      -3255.9984         25.0004         21.5004
  -1721427.68148  -1243633.30647  22323300.3924   22323306.3684
     -1373.0004      -1069.8704         33.2504         31.2504
   -145748.65545    -33368.98445  26239372.6034   26239379.8374
      -253.4534       -197.4964          9.0004          8.0004
  -6074691.77448  -4618285.47947  22320866.4384   22320872.3564
     -1022.4534       -796.7174         34.0004         31.7504
  -1049002.17545   -733673.60845  26090477.8844   26090485.9384
      1784.1254       1390.2274          9.0004          8.2504
   -133498.41947   2415724.13246  23483931.7514   23483937.6574
     -2275.4224      -1773.0564         20.0004         17.2504
 01  3 21  1 10 30.0050000  0  9G21G22G18G 6G17G28G23G 3G26
  -3294281.39246  -2468168.04845  25203217.0094   25203224.8414
      1053.9844        821.2874         12.0004         10.0004
   5767202.37845   4628363.18145  25038174.6654   25038182.0524
     -2627.0004      -2047.0134         10.5004         10.0004
  -9462928.52148  -7025975.53647  22383035.9544   22383040.6424
      -118.5784        -92.3994         31.2504         29.7504
  12933632.41247  10147144.29746  23179281.6964   23179288.2244
     -4190.1564      -3265.0574         23.2504         21.0004
  -1680149.49448  -1211468.48847  22331155.5634   22331161.5524
     -1378.9064      -1074.4724         33.5004         31.0004
   -137919.51745                  26240863.4154
      -268.5314                          8.7504
  -6043833.47248  -4594240.03547  22326738.3604   22326744.3604
     -1034.7974       -806.3354         34.0004         31.5004
  -1102486.44545   -775349.67945  26080300.1964   26080307.3494
      1781.4384       1388.1334          8.7504          8.2504
    -64941.63047   2469145.01446  23496977.7984   23496983.5404
     -2295.0624      -1788.3604         20.2504         17.5004
 01  3 21  1 11  0.0050000  0  9G21G22G18G 6G17G28G23G 3G26
  -3325816.99045  -2492741.09745  25197215.7904   25197222.6854
      1048.2974        816.8554         11.7504          9.5004
   5846218.91545   4689934.46045  25053209.9854   25053216.5954
     -2640.8914      -2057.8374         10.0004         10.0004
  -9459177.33748  -7023052.52847  22383749.7984   22383754.5204
      -131.6254       -102.5654         31.5004         30.0004
  13059508.85047  10245229.76646  23203235.5954   23203241.8294
     -4201.7194      -3274.0674         23.7504         20.5004
  -1638695.51248  -1179166.68947  22339043.8064   22339049.8174
     -1384.8284      -1079.0874         33.2504         31.2504
   -129638.75545      1099.16955  26242439.0174   26242451.8174
      -283.6414       -221.0194          8.7504          7.2504
  -6012606.49848  -4569907.32147  22332680.6964   22332686.6494
     -1047.1254       -815.9424         34.0004         31.7504
  -1155889.84145   -816962.66245  26070137.0014   26070143.9784
      1778.6414       1385.9544          8.7504          7.7504
      4203.52646   2523024.35846  23510135.5484   23510141.7474
     -2314.7194      -1803.6774         19.7504         17.5004
 01  3 21  1 11 30.0050000  0  9G21G22G18G 6G17G28G23G 3G26
  -3357179.77146  -2517179.53645  25191247.8684   25191255.3604
      1042.5004        812.3384         12.2504         10.5004
   5925652.83745   4751830.98245  25068325.8294   25068333.4384
     -2654.7664      -2068.6494          9.5004          9.7504
  -9455032.95448  -7019823.11947  22384538.3604   22384543.1654
      -144.7344       -112.7804         31.2504         30.0004
  13185733.54547  10343586.62646  23227255.6654   23227261.7474
     -4213.3124      -3283.1014         24.5004         20.7504
  -1597061.96048  -1146724.95847  22346966.4784   22346972.4894
     -1390.8124      -1083.7504         33.5004         31.5004
   -120901.93245      7907.10045  26244101.6264   26244108.0604
      -298.8754       -232.8904          9.0004          7.0004
  -5981008.23748  -4545285.28747  22338693.5794   22338699.5794
     -1059.4844       -825.5724         34.0004         31.7504
  -1209206.63645   -858508.23745  26059991.1344   26059998.6264
      1775.7034       1383.6654          8.2504          8.0004
     73939.74046   2577364.27146  23523405.8534   23523412.0174
     -2334.4224      -1819.0304         19.0004         17.0004
 01  3 21  1 12  0.0050000  0  9G21G22G18G 6G17G28G23G 3G26
  -3388368.61545  -2541482.41345  25185311.7594   25185320.1884
      1036.9064        807.9794         11.2504         10.2504
   6005502.01945   4814051.10145  25083520.7904   25083529.5834
     -2668.3754      -2079.2534          9.7504         10.2504
  -9450494.96348  -7016287.01347  22385401.6034   22385406.6064
      -157.6724       -122.8614         30.5004         29.7504
  13312305.11847  10442213.77346  23251341.3064   23251347.2824
     -4224.6564      -3291.9404         24.2504         20.5004
  -1555248.37248  -1114142.93947  22354923.4544   22354929.4194
     -1396.6254      -1088.2794         33.7504         31.7504
   -111707.93945     15071.21945  26245851.0014   26245857.3994
      -313.9374       -244.6274          9.0004          6.5004
  -5949039.60048  -4520374.65047  22344777.1814   22344783.1344
     -1071.6254       -835.0324         34.0004         32.0004
  -1262434.77145   -899984.62745  26049862.5484   26049869.3214
      1772.9534       1381.5224          8.7504          8.2504
    144266.42046   2632164.27846  23536788.1574   23536794.3104
     -2353.8754      -1834.1884         18.0004         17.0004
 01  3 21  1 12 30.0050000  0  9G21G22G18G 6G17G28G23G 3G26
  -3419384.74546  -2565650.67645  25179409.8214   25179419.5634
      1031.0474        803.4134         12.2504         11.2504
   6085762.89245   4876591.99445  25098793.4234   25098801.7944
     -2682.1254      -2089.9684         10.0004         10.2504
  -9445564.48648  -7012445.07247  22386340.5244   22386345.2354
      -170.8124       -133.1014         32.0004         30.2504
  13439220.62447  10541108.91346  23275492.5564   23275498.4384
     -4236.1564      -3300.9014         24.5004         20.5004
  -1513255.62448  -1081421.30847  22362914.1734   22362920.1384
     -1402.6724      -1092.9914         33.7504         31.7504
   -102057.46945     22591.07745  26247687.7434   26247694.5634
      -329.2194       -256.5344          9.2504          7.7504
  -5916702.69048  -4495177.04047  22350930.8064   22350936.6534
     -1083.9534       -844.6394         34.0004         32.0004
  -1315572.89345   -941390.91645  26039750.4154   26039757.9314
      1769.8284       1379.0874          8.7504          8.0004
    215181.66846   2687422.90346  23550283.1964   23550289.1264
     -2373.5624      -1849.5294         18.5004         17.0004
 01  3 21  1 13  0.0050000  0  9G21G22G18G 6G17G28G23G 3G26
  -3450229.60646  -2589685.51745  25173539.8924   25173548.8374
      1025.3284        798.9574         12.7504         11.0004
   6166431.40545   4939450.55345  25114144.3064   25114152.6654
     -2695.6874      -2100.5364         10.0004         10.2504
  -9440244.19248  -7008299.37247  22387352.6424   22387357.1064
      -183.8284       -143.2434         32.0004         30.7504
  13566475.64447  10640268.63146  23299707.8684   23299713.7864
     -4247.4534      -3309.7044         23.0004         20.2504
  -1471085.89748  -1048561.77547  22370939.0174   22370945.0994
     -1408.5944      -1097.6064         34.0004         32.0004
    -91952.05445     30465.43745  26249610.8924   26249616.1304
      -344.4224       -268.3814          9.2504          6.7504
  -5884000.88648  -4469695.10447  22357153.6574   22357159.3064
     -1096.1254       -854.1234         34.0004         31.7504
  -1368621.60445   -982727.57145  26029655.5954   26029661.4894
      1766.7664       1376.7004          8.5004          8.0004
    286682.28546   2743137.66146  23563889.2354   23563895.3064
     -2393.0784      -1864.7364         18.5004         17.0004
 01  3 21  1 13 30.0050000  0  9G21G22G18G 6G17G28G23G 3G26
  -3480900.98546  -2613585.21345  25167704.3994   25167713.0404
      1019.4224        794.3554         13.0004         10.7504
   6247507.55445   5002626.74945  25129573.3454   25129580.2634
     -2709.3754      -2111.2014         10.5004         10.5004
  -9434531.89948  -7003848.22247  22388439.4854   22388444.3844
      -197.0004       -153.5064         31.2504         30.5004
  13694070.47647  10739693.12046  23323988.6494   23323994.9424
     -4258.8594      -3318.5924         23.0004         20.2504
  -1428736.86248  -1015562.52047  22378997.8214   22379003.7634
     -1414.6724      -1102.3424         34.0004         32.0004
    -81389.05145     38696.29445  26251620.8844   26251627.6814
      -359.7814       -280.3494          9.2504          7.7504
  -5850932.93548  -4443927.86247  22363445.9384   22363451.9504
     -1108.4224       -863.7054         34.0004         32.0004
  -1421576.93145  -1023991.42145  26019578.1814   26019585.1924
      1763.5474       1374.1924          9.0004          8.5004
    358769.13446   2799309.24246  23577606.9234   23577613.2514
     -2412.7344      -1880.0534         18.7504         16.7504
 01  3 21  1 14  0.0050000  0  9G21G22G18G 6G17G28G23G 3G26
  -3511399.42546  -2637350.10045  25161899.7594   25161908.9274
      1013.7194        789.9114         12.5004         10.7504
   6328987.95145   5066117.91645  25145077.8134   25145085.4114
     -2722.7194      -2121.5994          9.7504          9.7504
  -9428428.60948  -6999092.40447  22389601.0174   22389606.0914
      -209.9534       -163.6004         31.2504         30.2504
  13822002.04747  10839379.99646  23348333.6654   23348339.8174
     -4269.9844      -3327.2614         24.0004         20.5004
  -1386209.66648   -982424.44147  22387090.5094   22387096.4384
     -1420.5474      -1106.9204         33.7504         32.2504
    -70368.77945     47283.54845  26253717.8454   26253723.5404
      -374.9694       -292.1834          9.2504          8.2504
  -5817500.84348  -4417876.87147  22369808.0794   22369813.9504
     -1120.4694       -873.0934         34.0004         32.5004
  -1474437.80745  -1065181.67445  26009519.1964   26009526.5364
      1760.4384       1371.7694          9.0004          8.7504
    431440.42746   2855936.24746  23591436.1344   23591441.7124
     -2432.1094      -1895.1504         19.5004         17.0004
 01  3 21  1 14 30.0050000  0  9G21G22G18G 6G17G28G23G 3G26
  -3541727.91246  -2660982.55145  25156128.2284   25156136.5524
      1008.0634        785.5034         12.5004         11.2504
   6410866.50645   5129919.33345  25160658.9314   25160666.5174
     -2735.9374      -2131.8994         10.0004         10.0004
  -9421938.11148  -6994034.86047  22390836.2124   22390840.9234
      -222.8444       -173.6444         32.0004         31.0004
  13950265.16247  10939325.22346  23372741.3534   23372747.5524
     -4280.9844      -3335.8324         23.2504         20.0004
  -1343507.44748   -949149.98647  22395216.3134   22395222.3724
     -1426.3754      -1111.4614         33.5004         32.0004
    -58894.22645     56224.80545  26255901.0094   26255907.3844
      -390.1254       -303.9944          8.7504          8.2504
  -5783708.93948  -4391545.50747  22376238.4314   22376244.2904
     -1132.4224       -882.4074         34.0004         32.5004
  -1527205.47245  -1106299.30145  25999478.0244   25999483.7904
      1757.2974       1369.3224          9.0004          9.0004
    504691.67746   2913015.15446  23605374.8134   23605380.6384
     -2451.4224      -1910.1994         18.5004         16.5004
 01  3 21  1 15  0.0050000  0  9G21G22G18G 6G17G28G23G 3G26
  -3571877.70446  -2684475.75745  25150391.0174   25150399.7394
      1002.0474        780.8164         12.5004         11.0004
   6493149.07345   5194035.62445  25176316.0794   25176322.6534
     -2749.4534      -2142.4314         10.0004         10.2504
  -9415052.33148  -6988669.31147  22392146.4624   22392151.2904
      -236.0784       -183.9574         32.0004         30.7504
  14078866.00247  11039533.63346  23397212.9934   23397219.1694
     -4292.2814      -3344.6354         22.7504         19.5004
  -1300621.86248   -915732.64847  22403377.1104   22403383.2044
     -1432.5474      -1116.2704         33.5004         31.7504
    -46956.32645     65527.00045  26258172.3214   26258178.3924
      -405.6254       -316.0714          8.2504          8.5004
  -5749550.27748  -4364928.35247  22382738.6494   22382744.6494
     -1144.7034       -891.9764         34.0004         32.2504
  -1579869.52745  -1147336.17045  25989456.3844   25989463.3724
      1753.7504       1366.5584          9.7504          8.7504
    578529.91446   2970551.44546  23619425.7124   23619432.0634
     -2471.0314      -1925.4794         18.5004         16.2504
 01  3 21  1 15 30.0050000  0  9G21G22G18G 6G17G28G23G 3G26
  -3601851.71946  -2707832.02545  25144687.3134   25144695.5444
       996.2504        776.2994         13.0004         11.5004
   6575830.70545   5258462.80945  25192051.1104   25192057.5444
     -2762.6094      -2152.6834         11.5004         10.5004
  -9407774.49748  -6982998.26047  22393531.5324   22393536.1734
      -249.0624       -194.0754         32.0004         31.0004
  14207799.30747  11140001.09946  23421748.0714   23421754.5284
     -4303.2344      -3353.1704         22.2504         19.7504
  -1257555.66948   -882174.57647  22411572.5174   22411578.5054
     -1438.4844      -1120.8974         33.7504         31.5004
    -34557.77545     75188.23145  26260532.7434   26260540.9624
      -420.9224       -327.9914          8.7504          8.0004
  -5715029.07348  -4338028.70247  22389307.8994   22389313.8534
     -1156.6724       -901.3034         34.0004         32.5004
  -1632431.13545  -1188293.23145  25979454.2434   25979460.1964
      1750.3914       1363.9414         10.0004          8.5004
    652950.98946   3028541.90046  23633587.6964   23633594.0364
     -2490.3594      -1940.5404         18.5004         16.5004
 01  3 21  1 16  0.0050000  0  9G21G22G18G 6G17G28G23G 3G26
  -3631648.20746  -2731049.96945  25139017.3134   25139025.2514
       990.2344        771.6114         13.2504         10.5004
   6658910.95645   5323200.63545  25207860.9784   25207867.9894
     -2775.9844      -2163.1054         11.5004         11.0004
  -9400103.07248  -6977020.51047  22394991.1424   22394995.7474
      -262.2974       -204.3874         31.7504         30.7504
  14337064.89547  11240727.47446  23446346.7744   23446352.9034
     -4314.3914      -3361.8634         22.7504         19.5004
  -1214307.16748   -848474.46147  22419802.3374   22419808.3494
     -1444.6874      -1125.7314         33.2504         31.2504
    -21696.34145     85210.13245  26262980.4854   26262986.7204
      -436.4694       -340.1064          9.0004          7.5004
  -5680144.75348  -4310846.10647  22395946.2824   22395952.0604
     -1168.8754       -910.8124         34.0004         32.5004
  -1684886.45045  -1229167.45445  25969472.2594   25969479.4934
      1746.6884       1361.0554         10.0004          8.2504
    727955.53546   3086987.00846  23647860.9544   23647867.2704
     -2509.8914      -1955.7594         19.0004         16.5004
 01  3 21  1 16 30.0050000  0  9G21G22G18G 6G17G28G23G 3G26
  -3661266.55946  -2754129.09945  25133381.0404   25133388.4854
       984.2664        766.9604         13.5004         11.0004
   6742386.96845   5388246.83445  25223744.9704   25223751.6034
     -2789.1414      -2173.3564         10.7504         10.2504
  -9392038.28748  -6970736.24647  22396525.7434   22396530.4894
      -275.4224       -214.6144         31.7504         30.7504
  14466660.57647  11341711.06946  23471008.1574   23471014.0874
     -4325.4064      -3370.4464         22.5004         19.5004
  -1170876.19748   -814632.14347  22428066.9384   22428072.9504
     -1450.7814      -1130.4794         33.0004         31.0004
     -8371.52145     95593.07745  26265515.4544   26265521.1144
      -451.9374       -352.1594          9.0004          7.0004
  -5644898.32148  -4283381.34447  22402653.1264   22402659.0204
     -1180.9374       -920.2114         34.0004         32.5004
  -1737233.64745  -1269957.42045  25959511.0484   25959519.5014
      1743.0314       1358.2064         10.5004          9.5004
    803542.33946   3145885.82846  23662244.4384   23662250.6854
     -2529.3124      -1970.8934         18.5004         16.7504
 01  3 21  1 17  0.0050000  0  9G21G22G18G 6G17G28G23G 3G26
  -3690703.98046  -2777067.26145  25127778.9384   25127787.8604
       978.2814        762.2974         13.5004         11.7504
   6826258.57745   5453601.29145  25239704.8214   25239710.7044
     -2802.2504      -2183.5714         10.0004          9.5004
  -9383578.15848  -6964143.92947  22398135.6034   22398140.5484
      -288.5624       -224.8544         31.2504         30.7504
  14596586.90647  11442952.30846  23495732.4234   23495738.7864
     -4336.3444      -3378.9694         22.7504         19.7504
  -1127260.19848   -780645.65247  22436366.7514   22436372.7284
     -1456.9224      -1135.2644         33.2504         30.7504
      5419.42645    106339.24045  26268139.9624   26268147.8534
      -467.4374       -364.2374          9.2504          7.5004
  -5609288.75048  -4255633.61247  22409429.5014   22409435.5604
     -1193.0004       -929.6104         34.0004         32.2504
  -1789468.37245  -1310659.76945  25949570.7904   25949577.8954
      1739.2974       1355.2964         10.5004          9.7504
    879712.52146   3205239.22446  23676738.9704   23676745.5794
     -2548.6874      -1985.9904         18.0004         16.5004
 01  3 21  1 17 30.0050000  0  9G21G22G18G 6G17G28G23G 3G26
  -3719964.06046  -2799867.20145  25122210.6574   25122219.5094
       972.3134        757.6464         13.2504         11.5004
   6910519.93745   5519259.47345  25255739.8684   25255748.0874
     -2815.2344      -2193.6894         10.5004          9.7504
  -9374726.41348  -6957246.45247  22399820.1654   22399824.8884
      -301.6414       -235.0454         32.2504         31.0004
  14726838.01447  11544446.61746  23520518.1654   23520524.7394
     -4347.1564      -3387.3944         22.7504         20.0004
  -1083462.52548   -746517.59847  22444701.3764   22444707.2594
     -1463.0004      -1140.0004         33.7504         31.0004
     19673.24945    117446.15245  26270852.2284   26270858.4274
      -482.9064       -376.2914          8.7504          8.2504
  -5573320.68548  -4227606.54347  22416273.9544   22416279.8724
     -1204.9534       -938.9254         34.0004         32.7504
  -1841591.87745  -1351275.44745  25939652.2204   25939660.5324
      1735.5314       1352.3624         10.7504          8.7504
    956461.25546   3265043.44546  23691343.4464   23691349.7864
     -2567.9534      -2001.0024         17.5004         16.5004
 01  3 21  1 18  0.0050000  0  9G21G22G18G 6G17G28G23G 3G26
  -3749045.02546  -2822527.59945  25116676.9854   25116685.1924
       966.4224        753.0564         13.5004         11.7504
   6995170.29045   5585220.71945  25271849.1344   25271854.9464
     -2828.0944      -2203.7094         11.5004         10.0004
  -9365482.15748  -6950043.11547  22401579.0244   22401583.8294
      -314.6414       -245.1754         31.5004         31.0004
  14857413.13447  11646193.43446  23545366.0244   23545372.6814
     -4357.8444      -3395.7224         22.5004         19.5004
  -1039481.72348   -712246.83747  22453070.5014   22453076.4664
     -1469.0474      -1144.7124         33.5004         31.2504
     34391.85245    128915.19745  26273654.0174   26273658.7394
      -498.3444       -388.3204          8.7504          8.0004
  -5536994.01748  -4199300.03247  22423186.7824   22423192.8174
     -1216.8124       -948.1664         34.0004         32.7504
  -1893601.04345  -1391802.02845  25929755.1494   25929761.6534
      1731.7504       1349.4164         11.0004          9.0004
   1033788.57246   3325298.50546  23706058.5954   23706065.2394
     -2587.1564      -2015.9664         18.5004         16.7504
 01  3 21  1 18 30.0050000  0  9G21G22G18G 6G17G28G23G 3G26
  -3777949.43346  -2845050.38345  25111176.5794   25111184.0364
       960.5004        748.4424         13.7504         11.7504
   7080204.21445   5651480.88945  25288029.6734   25288037.0834
     -2840.8594      -2213.6574         10.7504          9.7504
  -9355848.46848  -6942536.33447  22403412.3604   22403417.2244
      -327.6414       -255.3044         31.5004         31.0004
  14988307.46347  11748188.96046  23570274.6104   23570281.1964
     -4368.4844      -3404.0144         22.2504         19.0004
   -995320.67048   -677835.62847  22461474.2354   22461480.1774
     -1475.0784      -1149.4124         33.7504         31.5004
     49572.57145    140744.31545  26276541.8924   26276549.3134
      -513.7814       -400.3494          8.7504          8.0004
  -5500312.84148  -4170717.29047  22430166.8064   22430172.7124
     -1228.6414       -957.3824         34.0004         32.5004
  -1945496.65545  -1432240.12945  25919880.1654   25919886.7394
      1727.9064       1346.4204         11.5004          9.0004
   1111690.26646   3386001.14546  23720883.3764   23720889.3534
     -2606.2974      -2030.8814         19.7504         16.7504
 01  3 21  1 19  0.0050000  0  9G21G22G18G 6G17G28G23G 3G26
  -3806674.11646  -2867433.09345  25105709.8764   25105717.2864
       954.5474        743.8034         13.2504         11.5004
   7165621.38845   5718039.69145  25304283.6424   25304292.1424
     -2853.5474      -2223.5434         10.2504          9.7504
  -9345823.06548  -6934724.31647  22405320.0794   22405324.8374
      -340.6414       -265.4344         31.5004         31.2504
  15119521.52247  11850433.63046  23595243.3764   23595249.4354
     -4379.0474      -3412.2444         21.7504         18.7504
   -950976.70448   -643281.88647  22469912.5404   22469918.5994
     -1481.1254      -1154.1234         33.7504         31.7504
     65218.29945    152935.78445  26279520.0174   26279524.9624
      -529.2344       -412.3904          9.0004          7.7504
  -5463275.74148  -4141857.20847  22437214.8454   22437220.6694
     -1240.4374       -966.5754         34.0004         32.2504
  -1997274.29845  -1472586.32945  25910027.2124   25910034.7284
      1723.9844       1343.3644         11.5004          9.7504
   1190167.46646   3447152.21546  23735816.9704   23735822.6064
     -2625.4374      -2045.7954         19.5004         17.0004
 01  3 21  1 19 30.0060000  0  9G21G22G18G 6G17G28G23G 3G26
  -3835223.36746  -2889679.12245  25100277.8734   25100285.3774
       948.5164        739.1034         14.5004         11.7504
   7251418.51445   5784894.53345  25320610.7014   25320618.7914
     -2866.2344      -2233.4294         11.0004          9.7504
  -9335409.66348  -6926609.96247  22407301.8574   22407306.6624
      -353.7344       -275.6374         31.5004         30.7504
  15251053.85947  11952926.29746  23620273.2324   23620279.3264
     -4389.6414      -3420.4994         21.0004         18.0004
   -906451.79148   -608587.15447  22478385.3114   22478391.2404
     -1487.2814      -1158.9204         33.7504         32.0004
     81326.62545    165487.73745  26282585.0294   26282590.3034
      -544.7974       -424.5174          8.7504          8.2504
  -5425886.26048  -4112722.52947  22444329.6394   22444335.6504
     -1252.2814       -975.8044         34.0004         32.2504
  -2048936.92645  -1512842.85745  25900195.8264   25900203.2954
      1719.8914       1340.1754         11.7504          9.7504
   1269218.12646   3508750.14746  23750859.6544   23750865.5024
     -2644.5784      -2060.7104         19.2504         16.7504
 01  3 21  1 20  0.0060000  0  9G21G22G18G 6G17G28G23G 3G26
  -3863587.37446  -2911780.81946  25094880.1784   25094887.9754
       942.5004        734.4164         14.2504         12.0004
   7337595.68845   5852045.55445  25337010.5924   25337018.0494
     -2878.8284      -2243.2434         11.7504          9.2504
  -9324601.40948  -6918187.92847  22409358.5144   22409363.4004
      -366.7504       -285.7794         31.2504         31.0004
  15382901.46147  12055664.62746  23645363.1234   23645369.1354
     -4400.1094      -3428.6574         21.2504         18.2504
   -861740.83248   -573747.45147  22486893.4904   22486899.5144
     -1493.3914      -1163.6814         33.5004         31.7504
     97904.53145    178405.55245  26285739.4904   26285744.7404
      -560.3284       -436.6194          9.0004          8.2504
  -5388140.33148  -4083310.10847  22451512.6234   22451518.3654
     -1264.0474       -984.9724         34.0004         32.5004
  -2100471.34746  -1552999.52145  25890389.3814   25890395.7564
      1715.7814       1336.9724         12.2504         10.0004
   1348843.19246   3570795.65246  23766011.4824   23766017.6114
     -2663.6564      -2075.5764         18.7504         17.2504
 01  3 21  1 20 30.0060000  0  9G21G22G18G 6G17G28G23G 3G26
  -3891771.34346  -2933742.17845  25089516.5614   25089523.9364
       936.5004        729.7404         13.5004         11.5004
   7424149.34345   5919489.91645  25353481.5294   25353486.5684
     -2891.3284      -2252.9834         11.7504          9.5004
  -9313402.36548  -6909461.36547  22411489.3504   22411493.8144
      -379.7664       -295.9214         31.2504         29.2504
  15515062.41347  12158647.13346  23670512.6864   23670518.6744
     -4410.5314      -3436.7784         22.0004         19.2504
   -816846.39148   -538764.78047  22495436.5684   22495442.5574
     -1499.5004      -1168.4424         33.0004         31.7504
    114948.53145    191686.60445  26288982.0454   26288989.3964
      -575.8754       -448.7344          8.5004          7.7504
  -5350042.00848  -4053623.09147  22458762.3894   22458768.4124
     -1275.7664       -994.1034         34.0004         32.2504
  -2151881.45746  -1593059.29845  25880606.5534   25880611.9904
      1711.5944       1333.7094         12.5004         10.0004
   1429039.92846   3633286.61146  23781272.8034   23781279.2484
     -2682.7194      -2090.4304         19.5004         17.0004
 01  3 21  1 21  0.0060000  0  9G21G22G18G 6G17G28G23G 3G26
  -3919778.29146  -2955565.65045  25084187.1234   25084194.4284
       930.5004        725.0654         14.0004         11.5004
   7511073.51646   5987222.97145  25370022.5294   25370028.8464
     -2903.7034      -2262.6264         12.0004          9.2504
  -9301816.05748  -6900433.08047  22413694.1314   22413699.2054
      -392.7664       -306.0514         30.7504         31.0004
  15647531.46347  12261869.69946  23695720.6934   23695727.3034
     -4420.8444      -3444.8134         21.5004         19.2504
   -771771.30848   -503641.34447  22504014.2564   22504020.1624
     -1505.6254      -1173.2144         33.0004         31.5004
    132455.80645    205328.64445  26292314.6154   26292320.2174
      -591.4064       -460.8364          9.2504          8.2504
  -5311595.67348  -4023664.89647  22466078.6004   22466084.4594
     -1287.4374      -1003.1984         34.0004         32.2504
  -2203167.93946  -1633022.77245  25870847.2324   25870854.0534
      1707.3754       1330.4224         12.7504         10.0004
   1509803.87746   3696219.56946  23796641.3964   23796647.1394
     -2701.6414      -2105.1754         19.7504         16.5004
 01  3 21  1 21 30.0060000  0  9G21G22G18G 6G17G28G23G 3G26
  -3947603.61446  -2977247.56745  25078891.3504   25078897.9824
       924.4694        720.3654         13.7504         11.5004
   7598368.83545   6055245.27145  25386633.6004   25386640.1864
     -2916.0314      -2272.2324         11.5004          9.5004
  -9289839.45848  -6891100.64847  22415973.3184   22415978.2874
      -405.7344       -316.1574         31.0004         31.2504
  15780309.92047  12365333.37046  23720987.3574   23720994.6034
     -4431.1094      -3452.8124         20.5004         19.2504
   -726511.82648   -468374.22147  22512626.5374   22512632.5374
     -1511.7504      -1177.9874         32.7504         31.2504
    150430.36845    219334.76445  26295734.9984   26295741.2214
      -606.9534       -472.9504          8.7504          8.7504
  -5272799.10048  -3993433.78547  22473461.2094   22473467.2564
     -1299.0624      -1012.2564         34.0004         32.0004
  -2254325.33446  -1672885.62545  25861112.8264   25861120.1314
      1703.0474       1327.0504         12.7504         10.2504
   1591136.78347   3759595.87446  23812119.3504   23812124.8464
     -2720.5944      -2119.9434         20.7504         16.2504
 01  3 21  1 22  0.0060000  0  9G21G22G18G 6G17G28G23G 3G26
  -3975246.38146  -2998787.26246  25073631.2564   25073638.8074
       918.4064        715.6414         14.2504         12.0004
   7686033.99845   6123555.74245  25403316.1074   25403323.4244
     -2928.2814      -2281.7784         11.5004         10.0004
  -9277471.95848  -6881463.61747  22418326.8504   22418331.5144
      -418.7344       -326.2874         31.2504         30.7504
  15913396.52947  12469037.16046  23746312.5064   23746319.4124
     -4441.3124      -3460.7634         20.2504         18.5004
   -681066.89348   -432962.58947  22521274.7174   22521280.7174
     -1517.8914      -1182.7724         33.0004         31.0004
    168873.20845    233705.81945  26299243.8504   26299252.3034
      -622.5474       -485.1014          8.2504          8.0004
  -5233652.58148  -3962929.99747  22480910.5534   22480916.5294
     -1310.6724      -1021.3034         33.7504         32.2504
  -2305350.76146  -1712645.68645  25851402.8264   25851410.4364
      1698.6564       1323.6284         12.2504         10.2504
   1673038.33346   3823415.27946  23827704.3424   23827709.7564
     -2739.4844      -2134.6634         19.7504         16.0004
 01  3 21  1 22 30.0060000  0  9G21G22G18G 6G17G28G23G 3G26
  -4002705.38346  -3020183.74946  25068406.0844   25068413.3654
       912.3284        710.9054         14.2504         12.0004
   7774068.08545   6192153.67745  25420067.7644   25420076.5684
     -2940.4844      -2291.2874         10.7504         10.0004
  -9264712.60448  -6871521.24447  22420754.8424   22420759.7524
      -431.7344       -336.4164         30.7504         31.0004
  16046790.53947  12572980.48646  23771696.9364   23771703.5684
     -4451.4694      -3468.6774         20.5004         18.7504
   -635435.23048   -397405.44847  22529958.4204   22529964.4434
     -1524.0784      -1187.5934         33.5004         31.0004
    187786.01645    248443.05245  26302843.0064   26302849.8264
      -638.1874       -497.2894          8.7504          8.0004
  -5194155.96148  -3932153.40947  22488426.4904   22488432.4784
     -1322.2814      -1030.3494         34.0004         32.2504
  -2356240.72046  -1752300.14045  25841718.8114   25841725.2444
      1694.1564       1320.1224         12.2504         10.2504
   1755508.33746   3887677.62946  23843397.2404   23843403.1704
     -2758.3594      -2149.3714         18.5004         15.2504
 01  3 21  1 23  0.0060000  0  9G21G22G18G 6G17G28G23G 3G26
  -4029983.16746  -3041439.03646  25063215.4594   25063222.0804
       906.2814        706.1934         14.7504         12.0004
   7862465.60045   6261034.80745  25436889.0844   25436897.0104
     -2952.5474      -2300.6864         10.7504          9.5004
  -9251565.00948  -6861276.35347  22423256.9204   22423261.7834
      -444.6564       -346.4854         31.2504         31.0004
  16180486.70347  12677159.23846  23797138.9514   23797145.5024
     -4461.4844      -3476.4814         20.7504         18.5004
   -589619.33248   -361704.74347  22538676.5764   22538682.5414
     -1530.2034      -1192.3664         33.2504         31.0004
    207165.97745    263544.34945  26306531.6864   26306536.9714
      -653.7194       -509.3914          9.2504          8.7504
  -5154313.55548  -3901107.36847  22496008.0844   22496014.0844
     -1333.7664      -1039.2984         34.0004         32.2504
  -2406996.05146  -1791849.70945  25832059.5844   25832067.1234
      1689.6254       1316.5914         12.2504         10.5004
   1838542.34946   3952379.45346  23859197.6394   23859203.6624
     -2777.1094      -2163.9814         17.5004         15.0004
 01  3 21  1 23 30.0060000  0  9G21G22G18G 6G17G28G23G 3G26
  -4057076.67446  -3062550.72746  25058059.7874   25058066.7284
       900.0784        701.3604         15.2504         12.2504
   7951226.10745   6330198.80045  25453780.3114   25453786.8734
     -2964.6724      -2310.1344         11.0004          9.5004
  -9238026.65448  -6850726.96447  22425833.2404   22425837.8114
      -457.7504       -356.6884         31.7504         31.2504
  16314485.40047  12781573.74746  23822637.9904   23822644.2484
     -4471.5944      -3484.3594         20.0004         17.7504
   -543616.47948   -325858.35847  22547430.5764   22547436.4944
     -1536.5004      -1197.2734         32.7504         31.0004
    227015.79545    279011.72945  26310307.9824   26310314.9364
      -669.4534       -521.6524          9.0004          8.2504
  -5114124.04348  -3869790.85847  22503656.0214   22503662.0334
     -1345.3914      -1048.3564         34.0004         32.0004
  -2457611.91746  -1831290.61845  25822428.4204   25822435.3034
      1684.8914       1312.9024         12.0004         10.5004
   1922141.20346   4017521.41046  23875106.1864   23875112.5614
     -2795.9844      -2178.6894         18.0004         15.5004
 01  3 21  1 24  0.0060000  0  9G21G22G18G 6G17G28G23G 3G26
  -4083986.45546  -3083519.24846  25052938.7484   25052946.4754
       893.9384        696.5754         14.7504         12.5004
   8040346.18645   6399642.97445  25470740.5144   25470747.6194
     -2976.6254      -2319.4484         11.7504          9.0004
  -9224098.66348  -6839873.96947  22428483.3964   22428487.9084
      -470.7504       -366.8184         31.2504         31.2504
  16448783.88846  12886221.85646  23848193.7324   23848200.4594
     -4481.5944      -3492.1514         19.7504         17.7504
   -497426.91448   -289866.49347  22556220.0454   22556225.9984
     -1542.7664      -1202.1554         32.5004         30.7504
    247335.02845    294844.93745  26314174.7174   26314181.5374
      -685.1414       -533.8764          8.7504          8.0004
  -5073589.18048  -3838205.23947  22511369.5614   22511375.4674
     -1356.9064      -1057.3304         34.0004         32.0004
  -2508087.09945  -1870621.91245  25812823.1784   25812829.7054
      1680.1414       1309.2004         11.7504         10.5004
   2006302.84746   4083101.92246  23891121.9284   23891127.4824
     -2814.7344      -2193.3004         19.2504         16.2504
 01  3 21  1 24 30.0060000  0  9G21G22G18G 6G17G28G23G 3G26
  -4110707.77746  -3104340.94746  25047853.1784   25047861.5024
       887.7664        691.7654         14.0004         12.2504
   8129828.43445   6469369.34845  25487766.9044   25487774.0454
     -2988.5784      -2328.7624         11.0004          9.5004
  -9209776.91548  -6828714.15147  22431208.7644   22431213.6274
      -483.7974       -376.9854         30.7504         31.2504
  16583384.67147  12991105.52046  23873807.8184   23873814.2874
     -4491.5314      -3499.8944         20.0004         18.0004
   -451045.68648   -253725.26947  22565046.0534   22565052.0534
     -1549.0784      -1207.0744         33.0004         30.7504
    268128.66645    311047.77445  26318131.3894   26318137.5414
      -700.8754       -546.1364          8.7504          8.5004
  -5032705.79248  -3806348.04447  22519149.4904   22519155.4554
     -1368.4064      -1066.2914         34.0004         32.2504
  -2558414.66045  -1909838.12245  25803246.0614   25803252.2954
      1675.2974       1305.4264         11.7504         10.7504
   2091030.39446   4149123.37446  23907245.2254   23907250.8614
     -2833.4844      -2207.9104         19.5004         16.2504
 01  3 21  1 25  0.0060000  0  9G21G22G18G 6G17G28G23G 3G26
  -4137248.52846  -3125021.92846  25042802.1234   25042809.8734
       881.6094        686.9684         13.0004         12.0004
   8219662.51045   6539369.87245  25504863.2874   25504870.5924
     -3000.3594      -2337.9424         11.7504         10.7504
  -9195069.69748  -6817253.96247  22434007.5144   22434012.4824
      -496.6874       -387.0294         30.7504         31.5004
  16718277.51447  13096216.76146  23899477.0924   23899483.2444
     -4501.3284      -3507.5284         20.0004         17.7504
   -404480.66748   -217440.83147  22573907.1004   22573913.0184
     -1555.2664      -1211.8954         33.5004         31.0004
    289388.71645    327614.06245  26322177.6864   26322183.5104
      -716.4844       -558.3004          8.7504          8.2504
  -4991483.00248  -3774226.37947  22526993.8184   22526999.6784
     -1379.7814      -1075.1544         34.0004         32.0004
  -2608600.34945  -1948943.82245  25793695.4594   25793702.0334
      1670.4384       1301.6404         11.0004         10.7504
   2176314.37446   4215578.42946  23923474.1784   23923480.0614
     -2852.1094      -2222.4234         18.5004         16.2504
 01  3 21  1 25 30.0060000  0  9G21G22G18G 6G17G28G23G 3G26
  -4163604.43346  -3145558.85846  25037787.2794   25037795.6154
       875.4384        682.1594         14.2504         12.2504
   8309849.17045   6609645.13845  25522024.5144   25522031.5024
     -3012.0944      -2347.0864         11.0004         10.0004
  -9179973.91048  -6805490.99447  22436880.1704   22436884.9984
      -509.6874       -397.1594         31.2504         31.2504
  16853463.55947  13201556.46746  23925202.7484   23925209.4864
     -4511.0784      -3515.1264         20.5004         18.2504
   -357728.22148   -181010.35347  22582803.9364   22582809.8774
     -1561.5624      -1216.8024         33.5004         31.2504
    311118.94645    344546.69245  26326312.4824   26326319.8574
      -732.2034       -570.5484          9.2504          8.2504
  -4949918.63948  -3741838.55247  22534903.1464   22534909.0884
     -1391.1724      -1084.0304         33.7504         32.2504
  -2658638.53045  -1987934.58845  25784172.7794   25784179.5294
      1665.4384       1297.7444         10.2504         10.0004
   2262156.49146   4282468.38746  23939808.9674   23939815.1784
     -2870.7194      -2236.9244         17.7504         15.7504
 01  3 21  1 26  0.0060000  0  9G21G22G18G 6G17G28G23G 3G26
  -4189777.29746  -3165953.19046  25032807.3574   25032814.2284
       869.4064        677.4594         15.5004         12.5004
   8400383.47945   6680191.29545  25539251.9284   25539259.8074
     -3023.5474      -2356.0114          9.5004          8.7504
  -9164491.87348  -6793427.04747  22439825.9904   22439830.7134
      -522.4694       -407.1194         31.2504         31.5004
  16988938.96947  13307121.65546  23950982.8344   23950990.0104
     -4520.6094      -3522.5534         20.0004         18.0004
   -310789.82648   -144434.97447  22591736.0064   22591741.9714
     -1567.6874      -1221.5754         33.7504         31.2504
    333317.64445    361844.39345  26330536.8894   26330542.5964
      -747.7194       -582.6384          9.2504          8.2504
  -4908015.70748  -3709186.90747  22542877.1544   22542883.1434
     -1402.3594      -1092.7484         34.0004         32.2504
  -2708528.80545  -2026810.07345  25774679.3114   25774685.5574
      1660.5474       1293.9334         10.7504         10.5004
   2348553.40846   4349790.65346  23956250.0214   23956256.0924
     -2889.1094      -2251.2544         18.2504         15.7504
 01  3 21  1 26 30.0060000  0  9G21G22G18G 6G17G28G23G 3G26
  -4215761.91946  -3186200.84446  25027862.3964   25027870.3694
       863.0004        672.4684         14.7504         12.5004
   8491268.00545   6751010.37045  25556546.8344   25556552.0964
     -3035.3124      -2365.1794          9.7504          8.7504
  -9148619.10948  -6781058.63847  22442846.8264   22442851.3504
      -535.5944       -417.3464         31.2504         31.5004
  17124706.79646  13412914.69746  23976818.1314   23976825.2834
     -4530.4534      -3530.2234         19.7504         18.0004
   -263660.03748   -107710.45847  22600704.4754   22600710.3814
     -1574.1874      -1226.6404         33.5004         31.0004
    355989.82345    379511.01645  26334851.1004   26334858.1934
      -763.6254       -595.0324          9.0004          7.7504
  -4865770.38448  -3676268.46447  22550916.2644   22550922.1464
     -1413.8594      -1101.7094         34.0004         32.5004
  -2758263.90845  -2065564.66245  25765215.4754   25765222.8264
      1655.2194       1289.7814         10.7504         11.2504
   2435508.54646   4417547.90246  23972797.1234   23972803.1584
     -2907.7974      -2265.8164         19.2504         15.7504
 01  3 21  1 27  0.0060000  0  9G21G22G18G 6G17G28G23G 3G26
  -4241563.00946  -3206305.51146  25022951.9904   25022960.2444
       857.0164        667.8044         14.5004         12.5004
   8582495.63745   6822096.77745  25573907.3264   25573914.5724
     -3046.5784      -2373.9574          9.7504          9.7504
  -9132360.67648  -6768389.70847  22445940.6544   22445945.3074
      -548.3444       -427.2814         31.5004         31.7504
  17260759.82046  13518929.97846  24002708.0144   24002715.1784
     -4539.7974      -3537.5044         19.7504         18.0004
   -216343.76448    -70840.62847  22609708.4674   22609714.4554
     -1580.2974      -1231.4004         33.5004         31.2504
    379131.04145    397543.17745  26339254.9124   26339262.1464
      -779.1414       -607.1234          9.0004          8.7504
  -4823189.06748  -3643088.21247  22559018.9904   22559024.9324
     -1424.9374      -1110.3414         34.0004         32.5004
  -2807846.49045  -2104200.40945  25755780.3344   25755787.8614
      1650.2194       1285.8854         11.2504         10.7504
   2523015.21546   4485734.92046  23989449.1464   23989455.1464
     -2926.0314      -2280.0244         18.7504         16.0004
 01  3 21  1 27 30.0060000  0  9G21G22G18G 6G17G28G23G 3G26
  -4267177.93146  -3226265.09146  25018077.3424   25018084.3304
       850.7034        662.8864         14.2504         12.5004
   8674066.33245   6893450.52645  25591332.3424   25591339.3894
     -3058.0624      -2382.9064         10.0004          9.2504
  -9115714.91548  -6755418.95847  22449108.0454   22449112.9084
      -561.3284       -437.3994         31.0004         31.0004
  17397098.26747  13625167.66346  24028652.6934   24028659.7284
     -4549.3754      -3544.9684         20.2504         17.7504
   -168838.16648    -33823.27847  22618748.4754   22618754.4514
     -1586.7034      -1236.3924         33.0004         31.0004
    402743.36945    415942.38845  26343747.6784   26343754.3114
      -794.9694       -619.4564          8.7504          8.5004
  -4780270.81048  -3609645.40747  22567186.1004   22567191.9714
     -1436.2344      -1119.1444         33.7504         32.2504
  -2857271.88945  -2142713.68445  25746375.0214   25746381.4324
      1644.8444       1281.6964         11.2504         11.2504
   2611074.17246   4554352.28346  24006206.3034   24006212.2444
     -2944.5164      -2294.4284         19.2504         16.0004
 01  3 21  1 28  0.0060000  0  9G21G22G18G 6G17G28G23G 3G26
  -4292606.38846  -3246079.37546  25013238.3034   25013245.5374
       844.3914        657.9674         14.2504         12.5004
   8765977.30945   6965069.41645  25608823.3344   25608831.0144
     -3069.4534      -2391.7824         10.0004          9.5004
  -9098681.93748  -6742146.48447  22452349.5214   22452354.1744
      -574.3284       -447.5284         31.0004         31.5004
  17533720.06547  13731626.13046  24054651.6074   24054658.2284
     -4558.8754      -3552.3704         20.0004         17.0004
   -121142.39748      3342.26147  22627824.8424   22627830.8184
     -1593.1414      -1241.4084         33.0004         31.0004
    426827.18445    434709.00445  26348330.9514   26348338.1974
      -810.7664       -631.7654          8.7504          8.0004
  -4737016.52948  -3575940.76347  22575417.2094   22575423.0804
     -1447.5004      -1127.9224         33.7504         32.2504
  -2906537.98945  -2181102.82645  25736999.8424   25737006.0644
      1639.4064       1277.4594         11.5004         11.0004
   2699684.12546   4623398.99346  24023067.8424   24023073.8534
     -2962.9224      -2308.7704         18.0004         16.0004
 01  3 21  1 28 30.0060000  0  9G21G22G18G 6G17G28G23G 3G26
  -4317845.36046  -3265746.01646  25008435.7644   25008442.6464
       838.1884        653.1334         14.7504         12.7504
   8858228.17145   7036953.12545  25626377.6314   25626385.0294
     -3080.6094      -2400.4754          9.5004          9.2504
  -9081259.91448  -6728570.85447  22455664.6704   22455669.2524
      -587.1564       -457.5244         31.2504         31.7504
  17670625.63846  13838305.72546  24080703.4044   24080710.0144
     -4568.1564      -3559.6024         19.0004         16.7504
    -73253.74048     40658.10247  22636937.4124   22636943.4244
     -1599.4534      -1246.3274         32.5004         31.0004
    451385.12445    453845.07745  26353004.8264   26353010.9674
      -826.4534       -643.9894          9.0004          7.7504
  -4693424.94948  -3541973.28247  22583712.4984   22583718.3694
     -1458.5944      -1136.5674         34.0004         32.2504
  -2955639.84945  -2219363.97045  25727655.8264   25727663.3304
      1634.0314       1273.2714         11.2504         10.5004
   2788845.77646   4692875.60846  24040035.1234   24040041.4044
     -2981.1564      -2322.9794         18.5004         16.2504
 01  3 21  1 29  0.0060000  0  9G21G22G18G 6G17G28G23G 3G26
  -4342898.08146  -3285267.51346  25003668.8184   25003675.6504
       831.9534        648.2754         15.5004         13.0004
   8950812.97845   7109097.08145  25643996.2404   25644002.5104
     -3091.7344      -2409.1444          9.7504          9.5004
  -9063452.90048  -6714695.24147  22459053.2874   22459057.8344
      -600.0164       -467.5454         31.2504         31.7504
  17807808.95946  13945201.73746  24106808.3894   24106814.6004
     -4577.4224      -3566.8224         19.2504         16.7504
    -25175.58648     78121.60147  22646086.3734   22646092.3964
     -1605.8124      -1251.2824         32.2504         31.0004
    476413.35645    473347.62445  26357767.0684   26357771.8384
      -842.1564       -656.2264          9.2504          7.5004
  -4649500.93948  -3507746.78247  22592070.7174   22592076.6704
     -1469.6874      -1145.2114         34.0004         32.5004
  -3004578.66745  -2257498.08945  25718343.3504   25718350.7714
      1628.5164       1268.9734         11.2504         11.0004
   2878553.73446   4762777.92646  24057106.2324   24057112.2794
     -2999.3914      -2337.1874         19.2504         16.0004
 01  3 21  1 29 30.0060000  0  9G21G22G18G 6G17G28G23G 3G26
  -4367766.32346  -3304645.27446  24998936.2254   24998943.2484
       825.8284        643.5024         15.7504         13.7504
   9043727.58945   7181498.01945  25661677.2954   25661686.6394
     -3102.6724      -2417.6664          9.2504          9.2504
  -9045263.28148  -6700521.48847  22462514.7564   22462519.3854
      -612.7504       -477.4684         30.5004         31.7504
  17945266.12846  14052311.14946  24132965.6074   24132972.2284
     -4586.4844      -3573.8844         19.0004         16.5004
     23090.49048    115731.53347  22655271.0294   22655277.0644
     -1612.0164      -1256.1164         32.5004         31.0004
    501910.08845    493215.18645  26362618.4284   26362624.2404
      -857.7344       -668.3644          8.7504          7.7504
  -4605247.72748  -3473263.74747  22600492.0294   22600497.9594
     -1480.6254      -1153.7344         34.0004         32.5004
  -3053354.08545  -2295504.86045  25709061.5214   25709067.6864
      1623.0634       1264.7244         11.0004         11.0004
   2968804.38846   4833103.12746  24074279.4984   24074285.6744
     -3017.4224      -2351.2384         18.2504         15.5004
 01  3 21  1 30  0.0060000  0  9G21G22G18G 6G17G28G23G 3G26
  -4392448.99846  -3323878.45546  24994239.2014   24994246.9864
       819.5944        638.6444         15.5004         13.2504
   9136970.44445   7254154.77245  25679419.8964   25679426.5534
     -3113.5784      -2426.1654          9.5004          9.0004
  -9026690.30448  -6686049.01947  22466048.9434   22466053.6074
      -625.5314       -487.4274         30.5004         31.7504
  18082995.98446  14159633.01446  24159175.1004   24159181.4044
     -4595.5784      -3580.9704         19.2504         16.5004
     71545.96648    153489.05247  22664492.0764   22664498.0884
     -1618.4064      -1261.0964         33.0004         31.2504
    527876.72945    513448.92045  26367560.0614   26367567.5644
      -873.4224       -680.5884          8.7504          7.7504
  -4560665.41548  -3438524.27647  22608975.8344   22608981.5184
     -1491.6094      -1162.2934         34.0004         32.7504
  -3101962.75245  -2333381.70445  25699811.2094   25699817.7254
      1617.4224       1260.3294         10.7504         10.2504
   3059597.09146   4903850.68946  24091557.3114   24091563.1114
     -3035.5004      -2365.3254         18.5004         15.0004
 01  3 21  1 30 30.0060000  0  9G21G22G18G 6G17G28G23G 3G26
  -4416941.59146  -3342963.52146  24989578.1934   24989585.8034
       813.2504        633.7014         15.2504         13.2504
   9230542.76745   7327068.19645  25697225.5214   25697234.2564
     -3124.5314      -2434.7004          8.7504          9.0004
  -9007730.00648  -6671274.73047  22469656.9204   22469661.5844
      -638.4374       -497.4844         30.5004         31.5004
  18221000.73146  14267169.07746  24185436.5924   24185443.1894
     -4604.7034      -3588.0804         19.2504         17.0004
    120195.50148    191397.78547  22673749.4984   22673755.4864
     -1624.8754      -1266.1364         32.7504         31.0004
    554317.32245    534051.99945  26372591.9904   26372598.8504
      -889.2344       -692.9104          9.5004          7.2504
  -4515750.97348  -3403526.00147  22617522.5374   22617528.4784
     -1502.6564      -1170.9014         34.0004         32.5004
  -3150398.05045  -2371123.45245  25690594.5374   25690601.8774
      1611.6094       1255.8004         11.0004         10.7504
   3150934.35746   4975022.61946  24108938.0144   24108943.6974
     -3053.6254      -2379.4484         18.5004         14.5004
 01  3 21  1 31  0.0060000  0  9G21G22G18G 6G17G28G23G 3G26
  -4441246.97746  -3361902.71346  24984952.7254   24984960.5214
       807.0474        628.8684         15.7504         13.7504
   9324438.56945   7400233.68445  25715094.0844   25715102.8894
     -3135.2194      -2443.0284          9.2504          8.7504
  -8988386.31748  -6656201.69647  22473337.7324   22473342.5374
      -651.1724       -507.4074         30.0004         31.2504
  18359274.73146  14374914.91246  24211748.9124   24211755.2644
     -4613.6094      -3595.0204         18.2504         16.5004
    169036.33148    229455.58647  22683043.7254   22683049.7604
     -1631.2194      -1271.0804         33.2504         31.0004
    581228.95945    555022.15645  26377713.3574   26377719.8144
      -904.9064       -705.1224          9.7504          8.2504
  -4470508.94548  -3368272.46247  22626131.8654   22626137.8774
     -1513.5164      -1179.3634         34.0004         32.2504
  -3198660.90445  -2408730.82745  25681410.2714   25681417.6704
      1605.8444       1251.3074         11.0004         11.0004
   3242811.38046   5046615.11046  24126422.0064   24126427.5964
     -3071.5474      -2393.4134         19.2504         14.7504
 01  3 21  1 31 30.0060000  0  9G21G22G18G 6G17G28G23G 3G26
  -4465361.33346  -3380693.07446  24980364.4124   24980371.3654
       800.6094        623.8514         16.0004         14.0004
   9418659.06845   7473652.22545  25733024.4824   25733031.2914
     -3146.0784      -2451.4894         10.2504          9.2504
  -8968656.46548  -6640827.76547  22477092.0214   22477097.0144
      -664.1254       -517.5004         29.2504         30.7504
  18497819.17846  14482871.52246  24238113.3964   24238120.2174
     -4622.6564      -3602.0704         19.2504         16.5004
    218072.35348    267665.47647  22692375.0534   22692381.0414
     -1637.8124      -1276.2184         33.2504         31.2504
    608614.75145    576361.70645  26382924.3654   26382929.0184
      -920.7814       -717.4924          9.2504          8.2504
  -4424937.37648  -3332762.13947  22634803.7404   22634809.6824
     -1524.5474      -1187.9594         34.0004         32.0004
  -3246745.57945  -2446199.34845  25672259.9824   25672266.3344
      1599.8134       1246.6074         10.5004         10.2504
   3335229.49046   5118629.24246  24144008.1624   24144014.7254
     -3089.6094      -2407.4884         18.5004         14.5004
 01  3 21  1 32  0.0060000  0  9G21G22G18G 6G17G28G23G 3G26
  -4489279.32646  -3399330.40946  24975812.7484   24975819.1824
       794.1724        618.8354         16.2504         14.0004
   9513207.16645   7547325.97045  25751017.2404   25751024.2644
     -3156.8754      -2459.9034         10.7504          9.2504
  -8948535.36548  -6625148.96047  22480921.0844   22480925.8074
      -677.0474       -527.5694         29.5004         31.0004
  18636637.22346  14591041.31046  24264530.1394   24264536.8424
     -4631.6254      -3609.0584         19.5004         16.7504
    267309.05448    306031.74247  22701744.3734   22701750.4084
     -1644.4064      -1281.3564         32.7504         31.0004
    636479.87745    598074.84145  26388226.5534   26388231.7214
      -936.6724       -729.8744          8.7504          8.7504
  -4379032.22648  -3296991.88547  22643539.2174   22643545.2054
     -1535.5474      -1196.5304         33.7504         32.0004
  -3294644.76645  -2483523.32245  25663144.9904   25663153.2914
      1593.6884       1241.8344         10.5004         11.0004
   3428192.26646   5191067.81146  24161698.2254   24161704.4824
     -3107.6564      -2421.5504         17.7504         14.2504
 01  3 21  1 32 30.0060000  0  9G21G22G18G 6G17G28G23G 3G26
  -4513013.70446  -3417824.66346  24971296.0294   24971302.9124
       788.0164        614.0384         16.5004         14.5004
   9608067.09945   7621242.75345  25769066.9514   25769073.0454
     -3167.2194      -2467.9634          9.5004          9.5004
  -8928036.48848  -6609175.77947  22484821.8114   22484826.5804
      -689.6564       -537.3944         29.2504         31.2504
  18775713.89046  14699412.61446  24290995.4984   24291002.0494
     -4640.2344      -3615.7674         19.5004         17.0004
    316734.15048    344544.80147  22711149.5294   22711155.5644
     -1650.7034      -1286.2624         32.5004         30.5004
    664811.53545    620151.46545  26393617.3504   26393623.3854
      -952.2194       -741.9894          8.2504          7.2504
  -4332807.46748  -3260972.58147  22652335.5144   22652341.4674
     -1546.2034      -1204.8344         33.7504         32.2504
  -3342368.87845  -2520710.87945  25654063.7094   25654069.4164
      1587.8134       1237.2564         10.5004         10.2504
   3521685.01146   5263919.31146  24179489.2014   24179495.3074
     -3125.2974      -2435.2964         17.7504         14.2504
 01  3 21  1 33  0.0060000  0  9G21G22G18G 6G17G28G23G 3G26
  -4536561.81546  -3436173.79746  24966815.5144   24966823.0064
       781.7664        609.1684         17.2504         14.7504
   9703237.44345   7695401.39445  25787177.0924   25787185.2284
     -3177.5624      -2476.0234          9.2504          8.7504
  -8907158.76248  -6592907.39947  22488794.8184   22488799.7054
      -702.3124       -547.2564         29.5004         31.5004
  18915048.53846  14807984.97846  24317510.0144   24317517.3424
     -4648.8444      -3622.4764         18.7504         16.7504
    366349.69248    383206.25947  22720591.2404   22720597.2994
     -1657.0944      -1291.2424         33.0004         30.7504
    693611.29745    642592.80645  26399098.0064   26399104.4164
      -967.8594       -754.1764          8.5004          7.7504
  -4286262.88048  -3224704.05747  22661192.6624   22661198.5684
     -1556.8754      -1213.1494         34.0004         32.2504
  -3389913.83745  -2557758.82345  25645016.5064   25645022.9984
      1581.7504       1232.5324         10.2504         10.2504
   3615707.57046   5337183.66346  24197381.3034   24197387.1034
     -3142.9534      -2449.0544         18.5004         14.7504
 01  3 21  1 33 30.0060000  0  9G21G22G18G 6G17G28G23G 3G26
  -4559919.64946  -3454374.64146  24962370.7874   24962378.0214
       775.3594        604.1764         17.7504         15.0004
   9798720.11345   7769803.42145  25805347.6864   25805356.8654
     -3188.0004      -2484.1564          9.5004          8.7504
  -8885898.35948  -6576340.82647  22492840.5924   22492845.3964
      -715.1254       -557.2404         30.0004         31.7504
  19054643.19446  14916759.89346  24344074.2714   24344081.1314
     -4657.5164      -3629.2334         18.5004         16.5004
    416160.30148    422019.71747  22730069.8344   22730075.8574
     -1663.6874      -1296.3804         33.0004         30.7504
    722883.38945    665402.25345  26404669.2644   26404674.6434
      -983.6724       -766.4984          9.0004          7.7504
  -4239395.45248  -3188183.97047  22670111.2014   22670117.2014
     -1567.6874      -1221.5754         34.0004         32.0004
  -3437272.89745  -2594661.93245  25636003.6314   25636010.6544
      1575.4384       1227.6144         10.2504         10.7504
   3710262.40746   5410862.76346  24215374.7954   24215381.0294
     -3160.7504      -2462.9224         19.0004         14.7504
 01  3 21  1 34  0.0060000  0  9G21G22G18G 6G17G28G23G 3G26
  -4583087.58146  -3472427.53046  24957961.2484   24957968.9164
       769.0634        599.2694         16.7504         14.7504
   9894512.45245   7844446.74445  25823577.1544   25823586.1464
     -3198.2344      -2492.1314         10.5004          9.2504
  -8864255.95948  -6559476.59547  22496959.0534   22496963.8114
      -727.8124       -567.1274         30.0004         31.7504
  19194495.46946  15025735.56546  24370687.2404   24370694.2994
     -4666.0314      -3635.8694         17.7504         15.7504
    466166.23148    460985.38147  22739585.6934   22739591.6234
     -1670.1564      -1301.4204         32.5004         30.7504
    752627.47045    688579.44045  26410329.4674   26410335.1974
      -999.3754       -778.7344          9.5004          8.2504
  -4192206.69448  -3151413.49547  22679091.0844   22679096.9674
     -1578.3284      -1229.8664         34.0004         32.2504
  -3484444.14845  -2631418.70645  25627027.4824   25627034.9754
      1569.1724       1222.7314         10.2504         10.2504
   3805347.27646   5484954.88846  24233468.7094   24233474.6274
     -3178.3594      -2476.6444         19.2504         14.5004
 01  3 21  1 34 30.0060000  0  9G21G22G18G 6G17G28G23G 3G26
  -4606058.99846  -3490327.29346  24953589.9044   24953597.1744
       762.5474        594.1924         16.2504         14.5004
   9990617.87645   7919334.04845  25841865.3344   25841873.2954
     -3208.5624      -2500.1794         10.2504          9.2504
  -8842226.19948  -6542310.52347  22501150.9124   22501155.6354
      -740.6414       -577.1234         29.5004         31.5004
  19334609.12546  15134914.92146  24397350.1004   24397356.4864
     -4674.6564      -3642.5894         18.5004         16.0004
    516373.98948    500108.30847  22749139.7564   22749145.7094
     -1676.8284      -1306.6194         32.7504         30.5004
    782849.27345    712128.90845  26416079.8424   26416086.2524
     -1015.2344       -791.0924          9.0004          8.0004
  -4144691.88648  -3114388.96047  22688132.7954   22688138.7364
     -1589.1254      -1238.2794         34.0004         32.5004
  -3531419.07645  -2668022.47345  25618087.7174   25618094.2094
      1562.6884       1217.6794         10.2504         10.0004
   3900966.37846   5559463.30046  24251663.9124   24251669.8654
     -3196.0474      -2490.4264         18.2504         14.5004
 01  3 21  1 35  0.0060000  0  9G21G22G18G 6G17G28G23G 3G26
  -4628840.20446  -3508078.83646  24949254.7174   24949262.1624
       756.0474        589.1274         16.7504         14.2504
  10087027.07145   7994458.02645  25860210.9754   25860217.5844
     -3218.8284      -2508.1784         10.0004          8.7504
  -8819815.97248  -6524847.98047  22505415.5144   22505420.2134
      -753.4844       -587.1314         29.7504         31.5004
  19474975.69246  15244291.36546  24424061.0454   24424067.5144
     -4683.2344      -3649.2744         19.0004         16.2504
    566777.94548    539384.12047  22758731.3114   22758737.2994
     -1683.5474      -1311.8554         32.2504         30.5004
    813542.43845    736045.70545  26421919.8504   26421926.8734
     -1031.1094       -803.4624          8.2504          7.2504
  -4096858.59448  -3077116.25447  22697234.9824   22697240.9004
     -1599.8914      -1246.6684         34.0004         32.2504
  -3578201.61245  -2704476.31045  25609185.4044   25609192.5924
      1556.0314       1212.4924         10.2504         10.5004
   3997111.58746   5634381.66346  24269959.9124   24269966.1114
     -3213.7344      -2504.2094         18.5004         15.0004
 01  3 21  1 35 30.0060000  0  9G21G22G18G 6G17G28G23G 3G26
  -4651426.35346  -3525678.39346  24944957.3264   24944963.9714
       749.7194        584.1964         17.7504         14.5004
  10183741.40245                  25878614.3814
     -3228.7814                          9.2504
  -8797021.72048  -6507086.20947  22509752.8894   22509757.6584
      -766.1254       -596.9814         29.5004         31.5004
  19615597.30846  15353866.53246  24450820.6784   24450827.4754
     -4691.5164      -3655.7264         18.0004         15.7504
    617382.62948    578816.34447  22768361.2714   22768367.2484
     -1690.0784      -1316.9444         32.5004         30.5004
    844711.11545    760332.99345  26427851.2714   26427856.1934
     -1046.7814       -815.6744          8.7504          8.0004
  -4048704.05248  -3039593.22347  22706398.5924   22706404.4164
     -1610.3914      -1254.8504         34.0004         32.5004
  -3624785.08145  -2740775.07045  25600321.3344   25600328.1074
      1549.5474       1207.4394         10.2504         10.2504
   4093785.02646   5709711.64446  24288356.2484   24288362.2134
     -3231.1414      -2517.7724         18.5004         14.5004
 01  3 21  1 36  0.0060000  0  9G21G22G18G 6G17G28G23G 3G26
  -4673820.47746  -3543128.30846  24940695.1864   24940702.2094
       743.3594        579.2414         16.7504         15.0004
  10280755.25145                  25897076.1154
     -3238.7034                          9.7504
  -8773846.92248  -6489027.90447  22514163.1314   22514167.7604
      -778.7504       -606.8184         30.0004         31.5004
  19756468.48546  15463636.16346  24477627.4044   24477634.8854
     -4699.7344      -3662.1314         17.5004         15.2504
    668185.18148    618402.75647  22778028.5614   22778034.5374
     -1696.6414      -1322.0584         32.2504         30.5004
    876351.96745    784988.24345  26433873.2404   26433878.8534
     -1062.4844       -827.9104          9.0004          7.5004
  -4000232.70248  -3001823.33047  22715622.4594   22715628.4594
     -1620.8914      -1263.0324         34.0004         32.5004
  -3671170.29945  -2776919.33045  25591493.7564   25591500.8144
      1542.9224       1202.2774          9.7504         10.7504
   4190981.63046   5785449.28746  24306852.6004   24306858.4364
     -3248.5004      -2531.2994         18.7504         14.7504
 01  3 21  1 36 30.0070000  0  9G21G22G18G 6G17G28G23G 3G26
  -4696022.80646  -3560428.78046  24936469.3944   24936476.5934
       736.7504        574.0914         16.2504         14.2504
  10378070.40445                  25915594.6984
     -3248.7504                          9.5004
  -8750290.80348  -6470672.47147  22518645.5194   22518650.2884
      -791.5944       -616.8264         29.7504         32.0004
  19897592.50646  15573602.84646  24504482.7844   24504489.7264
     -4708.1724      -3668.7054         18.5004         15.2504
    719188.64848    658145.72547  22787733.9954   22787739.9954
     -1703.4694      -1327.3784         31.7504         30.5004
    908466.44445    810012.51045  26439984.3544   26439989.0304
     -1078.4224       -840.3294          9.0004          7.7504
  -3951443.39748  -2963805.67947  22724906.6754   22724912.6044
     -1631.6094      -1271.3844         34.0004         32.7504
  -3717355.83945  -2812908.00645  25582705.1674   25582712.2024
      1535.9844       1196.8714          9.7504         10.2504
   4288703.49846   5861596.21746  24325448.4404   24325454.3354
     -3266.0474      -2544.9724         18.2504         14.5004
 01  3 21  1 37  0.0070000  0  9G21G22G18G 6G17G28G23G 3G26
  -4718029.55646  -3577576.83946  24932282.5194   24932289.5424
       730.3444        569.0994         16.7504         14.2504
  10475679.49345     58329.88855  25934169.8394   25934175.3114
     -3258.5164      -2539.1034         10.5004          8.5004
  -8726353.40348  -6452019.92647  22523200.8704   22523205.6164
      -804.2504       -626.6884         30.2504         31.7504
  20038959.75946  15683759.06346  24531383.9954   24531390.6284
     -4716.2974      -3675.0374         18.0004         15.0004
    770392.26148    698044.64047  22797477.8394   22797483.9564
     -1710.1254      -1332.5654         32.0004         30.7504
    941054.39945    835405.71245  26446185.7294   26446193.8904
     -1094.1414       -852.5774          8.2504          7.2504
  -3902338.45948  -2925542.08047  22734251.1364   22734256.9484
     -1642.0624      -1279.5294         34.0004         32.5004
  -3763333.74845  -2848734.85945  25573955.3154   25573962.3864
      1529.1724       1191.5634         10.0004         10.2504
   4386944.15846   5938147.38246  24344143.2294   24344149.4294
     -3283.3284      -2558.4374         18.0004         15.0004
 01  3 21  1 37 30.0070000  0  9G21G22G18G 6G17G28G23G 3G26
  -4739842.53446  -3594573.91746  24928131.6444   24928139.2294
       723.7194        563.9374         16.7504         14.7504
  10573580.91245    134616.64845  25952798.7534   25952807.3004
     -3268.3444      -2546.7614          9.0004          8.7504
  -8702036.12048  -6433071.38447  22527828.3704   22527832.9874
      -817.0314       -636.6484         30.2504         31.7504
  20180570.83546  15794105.23546  24558331.3234   24558338.5814
     -4724.5474      -3681.4654         17.2504         15.0004
    821796.46948    738099.87047  22807259.7294   22807265.6944
     -1716.9534      -1337.8864         32.2504         30.7504
    974114.88745    861167.12545  26452475.7614   26452480.6474
     -1110.0164       -864.9474          8.0004          7.2504
  -3852919.49448  -2887033.79247  22743655.0974   22743660.8974
     -1652.6564      -1287.7844         34.0004         32.2504
  -3809105.21745  -2884400.90945  25565246.2694   25565253.5614
      1522.1094       1186.0594         10.5004         10.7504
   4485703.17246   6015102.48246  24362936.1674   24362941.7224
     -3300.7194      -2571.9894         17.5004         15.0004
 01  3 21  1 38  0.0070000  0  9G21G22G18G 6G17G28G23G 3G26
  -4761461.25946  -3611419.61946  24924017.8004   24924024.6204
       717.4694        559.0674         17.5004         14.7504
  10671772.41645    211129.49445  25971484.2144   25971492.9364
     -3277.7814      -2554.1154          9.0004          8.5004
  -8677339.30848  -6413827.10247  22532528.0344   22532532.4874
      -829.4694       -646.3394         30.2504         32.2504
  20322423.77946  15904639.87746  24585325.5034   24585332.7844
     -4732.3594      -3687.5534         18.0004         15.5004
    873402.15248    778312.09847  22817080.3154   22817086.3154
     -1723.4694      -1342.9634         32.5004         30.5004
   1007647.95845    887296.78445  26458857.6594   26458864.5034
     -1125.5624       -877.0624          9.0004          8.0004
  -3803187.41748  -2848281.51347  22753118.6834   22753124.7064
     -1662.8594      -1295.7354         33.7504         32.0004
  -3854667.35845  -2919903.83545  25556575.5584   25556582.2374
      1515.3134       1180.7634         10.2504         11.0004
   4584978.85346   6092460.17346  24381827.6204   24381833.4794
     -3317.6874      -2585.2114         16.7504         14.5004
 01  3 21  1 38 30.0070000  0  9G21G22G18G 6G17G28G23G 3G26
  -4782889.06246  -3628116.56546  24919940.1594   24919947.0034
       710.9694        554.0024         17.0004         14.5004
  10770248.29845    287863.86345  25990223.6834   25990230.9644
     -3287.3594      -2561.5794          8.7504          8.0004
  -8652266.77248  -6394290.04347  22537299.1594   22537303.5544
      -842.1254       -656.2014         30.7504         32.2504
  20464513.07346  16015358.71246  24612364.6444   24612371.3584
     -4740.3284      -3693.7624         18.0004         15.0004
    925206.30248    818678.97647  22826938.0114   22826944.0114
     -1730.2344      -1348.2354         32.0004         30.5004
   1041650.07545    913791.96345  26465327.7614   26465335.8394
     -1141.3444       -889.3594          9.0004          7.5004
  -3753146.87948  -2809288.87647  22762641.0894   22762646.9604
     -1673.2664      -1303.8434         34.0004         32.0004
  -3900021.11445  -2955244.37245  25547945.4874   25547952.6284
      1508.1724       1175.1994         10.7504         11.2504
   4684765.83046   6170216.25746  24400815.9254   24400822.1474
     -3334.8594      -2598.5924         15.0004         14.0004
 01  3 21  1 39  0.0070000  0  9G21G22G18G 6G17G28G23G 3G26
  -4804121.62046  -3644661.36846  24915899.0504   24915906.3084
       704.4844        548.9494         16.7504         15.0004
  10869010.44945    364821.31745  26009016.8704   26009024.2574
     -3296.7974      -2568.9334          8.2504          8.5004
  -8626814.69648  -6374457.24547  22542142.4794   22542146.9684
      -854.7034       -666.0024         30.5004         32.2504
  20606840.84846  16126263.35446  24639448.4174   24639455.7104
     -4748.2034      -3699.8994         17.5004         15.2504
    977213.97548    859204.43447  22836834.7764   22836840.7884
     -1736.9844      -1353.4944         31.7504         30.2504
   1076125.27645    940655.72545  26471888.0734   26471894.7884
     -1157.0474       -901.5954          9.0004          7.7504
  -3702794.87848  -2770053.55247  22772222.9404   22772228.8584
     -1683.5624      -1311.8674         34.0004         32.0004
  -3945159.75545  -2990417.26445  25539356.1514   25539363.4094
      1501.0164       1169.6234         11.0004         10.7504
   4785066.65846   6248372.74546  24419902.4174   24419908.1244
     -3351.8914      -2611.8634         14.2504         13.2504
 01  3 21  1 39 30.0070000  0  9G21G22G18G 6G17G28G23G 3G26
  -4825158.29346  -3661053.51546  24911896.3544   24911903.5774
       697.9694        543.8724         18.0004         15.2504
  10968055.77645    441999.48845  26027864.2534   26027872.4834
     -3306.1724      -2576.2384          8.5004          8.2504
  -8600984.03548  -6354329.43947  22547057.6834   22547062.2294
      -867.3284       -675.8404         30.2504         32.2504
  20749405.03746  16237352.23246  24666577.3314   24666584.1404
     -4756.0624      -3706.0234         17.5004         15.0004
   1029425.76648    899888.95947  22846770.1984   22846776.2104
     -1743.7814      -1358.7914         31.5004         30.5004
   1111073.33545    967888.02845  26478539.9094   26478543.7414
     -1172.7974       -913.8684          9.2504          7.7504
  -3652132.71348  -2730576.53247  22781863.5504   22781869.3624
     -1693.8754      -1319.9034         34.0004         32.2504
  -3990080.94745  -3025420.73845  25530807.8154   25530815.4604
      1493.7344       1163.9494         11.5004         11.2504
   4885878.96046   6326927.79746  24439086.5584   24439092.8974
     -3368.9064      -2625.1224         14.7504         13.2504
 01  3 21  1 40  0.0070000  0  9G21G22G18G 6G17G28G23G 3G26
  -4845999.98146  -3677293.73146  24907930.3474   24907937.3944
       691.3444        538.7094         17.5004         15.2504
  11067380.27445    519395.12645  26046766.6444   26046774.4764
     -3315.5944      -2583.5804          9.2504          8.5004
  -8574776.22148  -6333907.75247  22552045.1364   22552049.4834
      -880.0164       -685.7264         30.7504         32.2504
  20892202.27946  16348622.70646  24693750.9484   24693757.6404
     -4763.9064      -3712.1354         17.5004         14.7504
   1081841.00348    940732.00947  22856744.5974   22856750.6084
     -1750.7194      -1364.1964         32.0004         30.2504
   1146492.73645    995487.53045  26485278.9484   26485284.0344
     -1188.6414       -926.2134          9.0004          7.2504
  -3601162.74248  -2690859.66347  22791562.6984   22791568.6404
     -1704.2504      -1327.9874         34.0004         32.2504
  -4034783.03045  -3060253.47345  25522301.2224   25522307.5154
      1486.2504       1158.1174         11.7504         10.7504
   4987199.66446   6405879.00346  24458367.7144   24458373.4684
     -3385.9534      -2638.4054         16.0004         13.5004
 01  3 21  1 40 30.0070000  0  9G21G22G18G 6G17G28G23G 3G26
  -4866647.19246  -3693382.41246  24904000.7294   24904007.9644
       685.0004        533.7664         17.2504         14.7504
  11166980.87245    597005.93045  26065720.3474   26065729.0934
     -3324.5944      -2590.5934          9.5004          8.2504
  -8548192.66648  -6313193.28147  22557103.6594   22557108.1834
      -892.3754       -695.3574         30.5004         32.5004
  21035229.56646  16460072.43446  24720967.7844   24720975.0074
     -4771.3754      -3717.9554         16.7504         14.5004
   1134459.62148    981733.53947  22866757.5584   22866763.4644
     -1757.3444      -1369.3594         31.5004         30.2504
   1182382.48045   1023453.56345  26492108.7224   26492115.1444
     -1204.1564       -938.3044          9.0004          7.7504
  -3549887.00048  -2650904.52847  22801320.1674   22801326.0854
     -1714.2664      -1335.7914         34.0004         32.0004
  -4079264.40745  -3094914.22645  25513835.9404   25513842.9764
      1479.0004       1152.4684         11.7504         11.0004
   5089026.15246   6485224.34346  24477744.3624   24477750.5974
     -3402.6254      -2651.3964         15.7504         13.2504
 01  3 21  1 41  0.0070000  0  9G21G22G18G 6G17G28G23G 3G26
  -4887099.07046  -3709318.88446  24900109.3544   24900116.0584
       678.3284        528.5674         18.2504         15.2504
  11266855.48945    674830.23445  26084726.0974   26084733.8824
     -3333.8444      -2597.8004          9.5004          8.5004
  -8521233.53048  -6292186.14847  22562233.7764   22562238.5584
      -905.0314       -705.2194         30.2504         32.5004
  21178484.88646  16571699.84746  24748229.2144   24748236.6014
     -4779.1094      -3723.9814         17.2504         14.5004
   1187282.58148   1022894.29547  22876809.4094   22876815.4794
     -1764.3124      -1374.7894         31.2504         30.0004
   1218742.64645   1051786.17345  26499027.7694   26499033.9334
     -1219.9844       -950.6374          8.7504          7.2504
  -3498306.45948  -2610711.89147  22811135.7454   22811141.5584
     -1724.5624      -1343.8154         34.0004         32.0004
  -4123522.07846  -3129400.67445  25505414.0034   25505421.5194
      1471.3444       1146.5024         12.2504         11.2504
   5191356.61346   6564962.40146  24497217.2224   24497222.9404
     -3419.5164      -2664.5584         16.0004         13.5004
 01  3 21  1 41 30.0070000  0  9G21G22G18G 6G17G28G23G 3G26
  -4907354.41946  -3725102.21446  24896255.2764   24896261.5694
       671.9224        523.5754         18.7504         15.2504
  11367002.71445    752866.99645  26103781.5344   26103790.4444
     -3342.7344      -2604.7284          8.2504          8.2504
  -8493898.14948  -6270885.83347  22567435.6594   22567440.0894
      -917.4374       -714.8864         30.5004         32.7504
  21321967.46146  16683504.35346  24775532.6834   24775540.2804
     -4786.5004      -3729.7404         16.5004         14.2504
   1240311.59848   1064215.61947  22886900.6284   22886906.7694
     -1771.0624      -1380.0494         31.7504         30.0004
   1255574.17045   1080486.07245  26506036.5504   26506043.5384
     -1235.5624       -962.7764          9.0004          8.0004
  -3446421.10048  -2570281.72747  22821009.0264   22821014.8974
     -1734.5624      -1351.6074         33.7504         32.0004
  -4167552.31546  -3163709.90445  25497035.7534   25497042.6944
      1463.8754       1140.6824         12.7504         11.5004
   5294190.31346   6645092.58146  24516785.7924   24516792.0264
     -3436.1564      -2677.5244         16.5004         14.2504
 01  3 21  1 42  0.0070000  0  9G21G22G18G 6G17G28G23G 3G26
  -4927414.69746  -3740733.53446  24892437.5654   24892443.9054
       665.2974        518.4134         18.7504         15.7504
  11467417.79545    831112.45345  26122890.7924   26122897.3784
     -3351.7034      -2611.7174          8.2504          8.0004
  -8466188.53848  -6249293.92147  22572708.3704   22572712.9764
      -929.9844       -724.6634         29.7504         32.2504
  21465673.62846  16795483.07146  24802879.0734   24802886.8354
     -4794.0164      -3735.5974         15.7504         14.0004
   1293545.83748   1105696.85247  22897030.8084   22897036.7494
     -1778.0004      -1385.4554         32.0004         30.5004
   1292875.09145   1109551.74545  26513134.0894   26513140.4294
     -1251.2814       -975.0244          8.7504          7.7504
  -3394233.92548  -2529616.38547  22830940.0654   22830945.9954
     -1744.6874      -1359.4974         33.7504         32.0004
  -4211354.15046  -3197841.14345  25488700.2374   25488707.1084
      1456.1254       1134.6434         13.0004         11.7504
   5397523.69846   6725612.11146  24536449.9874   24536455.1324
     -3452.8444      -2690.5284         17.5004         14.2504
 01  3 21  1 42 30.0070000  0  9G21G22G18G 6G17G28G23G 3G26
  -4947276.96346  -3756210.55046  24888657.7294   24888665.3394
       658.7344        513.3004         18.5004         15.7504
  11568100.60945    909566.55245  26142050.7694   26142058.4134
     -3360.5784      -2618.6324          9.0004          7.7504
  -8438102.70248  -6227408.84347  22578052.7844   22578057.7294
      -942.5004       -734.4164         29.5004         32.2504
  21609603.77846  16907636.34346  24830267.6594   24830275.5734
     -4801.4224      -3741.3684         14.7504         13.2504
   1346988.74548   1147340.67847  22907200.2924   22907206.3044
     -1784.9534      -1390.8734         31.7504         30.2504
   1330647.86945   1138985.07245  26520321.4644   26520326.5034
     -1267.0004       -987.2734          8.2504          7.2504
  -3341743.35948  -2488714.63147  22840928.6904   22840934.4564
     -1754.7664      -1367.3504         34.0004         32.0004
  -4254922.40446  -3231790.35545  25480409.7844   25480415.9724
      1448.3134       1128.5554         13.0004         11.2504
   5501357.25746   6806521.39546  24556208.2454   24556214.1164
     -3469.4844      -2703.4944         16.7504         14.7504
 01  3 21  1 43  0.0070000  0  9G21G22G18G 6G17G28G23G 3G26
  -4966944.38746  -3771535.74846  24884915.3474   24884922.6864
       652.2194        508.2224         19.2504         16.0004
  11669045.89645    988225.20045  26161259.5734   26161267.7334
     -3369.2974      -2625.4264          8.7504          7.2504
  -8409644.66848  -6205233.73647  22583468.3784   22583472.9254
      -954.9064       -744.0834         29.7504         32.7504
  21753752.43646  17019959.86546  24857698.3624   24857705.3744
     -4808.6724      -3747.0174         15.0004         13.5004
   1400637.75048   1189145.10447  22917409.6044   22917415.6164
     -1791.8444      -1396.2424         32.0004         30.0004
   1368888.81645   1168783.23145  26527598.6124   26527607.2064
     -1282.6094       -999.4364          8.7504          7.5004
  -3288954.00848  -2447580.05547  22850974.0264   22850979.8154
     -1764.7194      -1375.1064         33.7504         32.0004
  -4298257.83346  -3265558.17445  25472162.9094   25472169.9444
      1440.5004       1122.4684         12.7504         11.2504
   5605685.55146   6887816.18946  24576061.3704   24576067.3004
     -3485.9374      -2716.3154         16.7504         14.5004
 01  3 21  1 43 30.0070000  0  9G21G22G18G 6G17G28G23G 3G26
  -4986414.83746  -3786707.46446  24881210.1754   24881216.5974
       645.7974        503.2184         19.5004         15.7504
  11770252.84045   1067087.69745  26180517.6594   26180525.7614
     -3377.8284      -2632.0744          8.0004          7.7504
  -8380813.23948  -6182767.67447  22588954.6594   22588959.2764
      -967.1874       -753.6534         29.7504         32.5004
  21898119.20746  17132453.33646  24885171.3864   24885179.1364
     -4815.7664      -3752.5454         16.0004         13.7504
   1454495.05148   1231111.83947  22927658.3314   22927664.2724
     -1798.6414      -1401.5384         32.5004         30.2504
   1407599.22645   1198947.20745  26534965.8624   26534970.7844
     -1298.1094      -1011.5144          9.7504          7.7504
  -3235865.23548  -2406212.16347  22861076.3394   22861082.1754
     -1774.5314      -1382.7524         33.7504         32.0004
  -4341356.30346  -3299141.34045  25463961.7534   25463968.0464
      1432.7034       1116.3924         13.0004         11.2504
   5710508.36946   6969496.31746  24596008.4564   24596013.8004
     -3502.2344      -2729.0144         16.7504         14.2504
 01  3 21  1 44  0.0070000  0  9G21G22G18G 6G17G28G23G 3G26
  -5005688.82646  -3801726.08746  24877542.1284   24877548.6324
       639.1724        498.0564         19.2504         16.2504
  11871717.48645   1146150.96345  26199825.7924   26199835.2184
     -3386.4374      -2638.7824          8.0004          8.0004
  -8351609.86748  -6160011.78147  22594511.6984   22594516.5614
      -979.6724       -763.3814         29.2504         32.2504
  22042700.98746  17245114.37446  24912684.2224   24912692.7334
     -4822.9844      -3758.1704         16.0004         14.0004
   1508560.41048   1273240.70247  22937946.6674   22937952.6674
     -1805.6874      -1407.0294         33.0004         30.5004
   1446777.84845   1229475.96145  26542421.0974   26542426.4524
     -1313.7814      -1023.7264          9.2504          7.7504
  -3182479.28348  -2364612.71247  22871235.5034   22871241.4684
     -1784.5004      -1390.5194         33.7504         31.7504
  -4384216.12946  -3332538.54345  25455805.9724   25455812.3354
      1424.6254       1110.0974         13.2504         11.2504
   5815822.55846   7051559.33346  24616049.4094   24616054.9994
     -3518.6724      -2741.8224         17.0004         15.0004
 01  3 21  1 44 30.0070000  0  9G21G22G18G 6G17G28G23G 3G26
  -5024765.67346  -3816591.10046  24873911.7294   24873918.6124
       632.5944        492.9304         19.0004         16.2504
  11973437.04745   1225412.89845  26219182.2454   26219190.8974
     -3394.8754      -2645.3574          7.5004          7.2504
  -8322034.89848  -6136966.33747  22600139.8084   22600144.4484
      -992.0314       -773.0114         29.7504         32.5004
  22187495.78046  17357941.39246  24940238.4014   24940246.5614
     -4830.0314      -3763.6614         16.5004         13.7504
   1562834.69348   1315532.36747  22948274.7454   22948280.7924
     -1812.6414      -1412.4474         32.7504         30.7504
   1486424.57745   1260369.53645  26549966.0194   26549971.4914
     -1329.3594      -1035.8644          9.2504          7.7504
  -3128797.25748  -2322782.55347  22881451.0114   22881456.8474
     -1794.3284      -1398.1784         34.0004         32.2504
  -4426834.28046  -3365747.41045  25447695.4094   25447702.0544
      1416.5474       1103.8034         13.0004         11.5004
   5921626.20446   7134003.73246  24636182.7694   24636188.4054
     -3534.9374      -2754.4974         17.5004         14.5004
 01  3 21  1 45  0.0070000  0  9G21G22G18G 6G17G28G23G 3G26
  -5043646.82246  -3831303.62146  24870318.6284   24870325.5464
       626.0004        487.7924         18.7504         17.0004
  12075407.72445   1304870.50545  26238587.5814   26238597.7224
     -3403.2814      -2651.9074          8.0004          7.5004
  -8292090.30148  -6113632.86547  22605837.8394   22605842.5034
     -1004.4064       -782.6544         29.5004         32.5004
  22332500.07246  17470931.65946  24967832.0034   24967838.7294
     -4837.0474      -3769.1274         17.5004         13.7504
   1617317.29848   1357986.35547  22958642.3704   22958648.3584
     -1819.6724      -1417.9264         32.7504         30.5004
   1526537.53645   1291626.39845  26557598.3784   26557602.1634
     -1344.9694      -1048.0284          8.5004          7.0004
  -3074821.70548  -2280723.66147  22891722.1044   22891727.8824
     -1804.1724      -1405.8484         34.0004         32.0004
  -4469209.78046  -3398767.21846  25439631.4254   25439638.4364
      1408.3444       1097.4114         12.7504         12.0004
   6027915.96846   7216826.95446  24656409.0424   24656414.5034
     -3551.1724      -2767.1474         18.2504         15.0004
 01  3 21  1 45 30.0070000  0  9G21G22G18G 6G17G28G23G 3G26
  -5062332.75746  -3845864.01346  24866762.9564   24866769.3084
       619.6414        482.8374         19.2504         16.5004
  12177626.77845   1384521.65245  26258038.6044   26258049.1674
     -3411.3914      -2658.2264          8.2504          7.2504
  -8261777.29548  -6090012.32347  22611606.2374   22611611.1124
     -1016.5314       -792.1024         29.2504         32.5004
  22477711.17246  17584083.05946  24995464.3944   24995471.1674
     -4843.7664      -3774.3634         16.5004         13.5004
   1672008.44048   1400602.83647  22969049.7924   22969055.7104
     -1826.4694      -1423.2224         32.7504         30.2504
   1567115.63345   1323245.66045  26565319.9174   26565326.3154
     -1360.3124      -1059.9844          8.0004          7.5004
  -3020554.33648  -2238437.38447  22902048.6444   22902054.6204
     -1813.7194      -1413.2874         33.7504         31.7504
  -4511340.29546  -3431596.14046  25431614.4174   25431620.9914
      1400.2814       1091.1284         13.0004         12.0004
   6134689.22346   7300026.90646  24676727.8784   24676733.1984
     -3567.1094      -2779.5664         19.0004         15.7504
 01  3 21  1 46  0.0070000  0  9G21G22G18G 6G17G28G23G 3G26
  -5080822.24946  -3860271.34646  24863244.4334   24863251.4334
       612.9064        477.5894         19.7504         17.0004
  12280091.98045   1464364.61845  26277537.6904   26277545.5224
     -3419.7194      -2664.7164          8.2504          7.2504
  -8231095.87748  -6066104.70547  22617444.6904   22617449.5194
     -1028.9844       -801.8064         29.5004         32.7504
  22623127.37046  17697394.29846  25023136.1284   25023143.1404
     -4850.7344      -3779.7934         15.7504         13.5004
   1726909.08948   1443382.57147  22979496.9174   22979502.7884
     -1833.6724      -1428.8354         32.7504         30.5004
   1608158.76145   1355227.27745  26573130.3154   26573137.7144
     -1375.9844      -1072.1964          8.0004          7.5004
  -2965995.96848  -2195924.34847  22912430.8394   22912436.8044
     -1823.5784      -1420.9704         34.0004         32.0004
  -4553222.87746  -3464231.86046  25423644.3474   25423651.1794
      1391.7814       1084.5054         13.2504         12.0004
   6241944.04946   7383602.12946  24697137.3784   24697143.5074
     -3583.2974      -2792.1794         17.7504         15.0004
 01  3 21  1 46 30.0070000  0  9G21G22G18G 6G17G28G23G 3G26
  -5099111.75146  -3874522.83846  24859763.7694   24859770.6124
       606.4064        472.5244         19.7504         16.5004
  12382804.04445   1544399.95945  26297083.7454   26297093.0544
     -3427.7194      -2670.9504          9.0004          8.0004
  -8200043.04348  -6041907.67547  22623354.1444   22623358.7724
     -1041.1724       -811.3034         30.2504         33.0004
  22768750.08046  17810866.43846  25050846.9724   25050854.5464
     -4857.4064      -3784.9924         15.2504         13.5004
   1782023.86848   1486329.15747  22989984.8234   22989990.8004
     -1840.6254      -1434.2534         32.2504         30.2504
   1649670.57445   1387574.15545  26581030.2454   26581034.6044
     -1391.4064      -1084.2134          8.7504          7.7504
  -2911144.35648  -2153182.82147  22922868.7924   22922874.6984
     -1833.1564      -1428.4334         34.0004         32.0004
  -4594851.14746  -3496669.41646  25415723.4564   25415729.5974
      1383.4534       1078.0154         14.0004         12.0004
   6349682.14246   7467553.90146  24717639.4564   24717645.6324
     -3599.1724      -2804.5504         17.5004         14.5004
 01  3 21  1 47  0.0070000  0  9G21G22G18G 6G17G28G23G 3G26
  -5117208.11747  -3888623.84246  24856320.8474   24856327.3044
       599.8914        467.4474         20.2504         16.5004
  12485752.67045   1624619.57345  26316674.1284   26316682.8044
     -3435.6564      -2677.1354          9.0004          7.7504
  -8168626.91148  -6017427.54847  22629332.3084   22629336.8194
     -1053.3594       -820.8004         30.2504         33.0004
  22914569.72646  17924492.01846  25078595.4724   25078602.1984
     -4864.0004      -3790.1304         14.7504         12.7504
   1837346.13948   1529437.42747  23000512.4254   23000518.4364
     -1847.6414      -1439.7204         32.7504         30.7504
   1691643.18145   1420280.09345  26589017.6754   26589022.6204
     -1406.8444      -1096.2424          8.2504          6.5004
  -2856008.06648  -2110219.45847  22933360.7374   22933366.7724
     -1842.7034      -1435.8734         33.7504         31.7504
  -4636230.25746  -3528912.82846  25407848.8944   25407855.3044
      1375.0164       1071.4414         14.0004         12.2504
   6457893.92446   7551874.78346  24738231.4334   24738236.3784
     -3615.0314      -2816.9074         16.7504         14.0004
 01  3 21  1 47 30.0070000  0  9G21G22G18G 6G17G28G23G 3G26
  -5135106.88646  -3902570.87246  24852914.4724   24852921.1514
       593.2344        462.2614         19.7504         17.0004
  12588940.00145   1705025.22345  26336310.0894   26336318.2144
     -3443.6254      -2683.3444          9.0004          8.0004
  -8136843.58648  -5992661.30447  22635380.5894   22635385.3234
     -1065.6564       -830.3814         30.0004         32.7504
  23060588.69046  18038272.94346  25106382.2224   25106389.6204
     -4870.6874      -3795.3414         15.0004         13.2504
   1892880.88048   1572711.25647  23011080.3864   23011086.4444
     -1854.7974      -1445.2964         32.7504         30.2504
   1734080.20545   1453347.87545  26597092.9014   26597097.6474
     -1422.4064      -1108.3694          8.2504          6.7504
  -2800583.85148  -2067031.74047  22943907.6984   22943913.6514
     -1852.3594      -1443.3974         33.7504         31.5004
  -4677353.01646  -3560956.47446  25400023.4484   25400030.1514
      1366.3594       1064.6964         14.7504         12.5004
   6566581.73346   7636566.59946  24758913.8784   24758919.7144
     -3630.9224      -2829.2904         16.5004         13.7504
 01  3 21  1 48  0.0070000  0  9G21G22G18G 6G17G28G23G 3G26
  -5152804.18346  -3916360.90346  24849546.1124   24849553.0544
       586.7504        457.2084         19.2504         17.0004
  12692367.31645   1785617.91845  26355991.0034   26355998.7294
     -3451.3444      -2689.3594          8.2504          7.0004
  -8104690.06048  -5967606.59047  22641499.1444   22641503.6904
     -1077.7664       -839.8174         30.2504         33.0004
  23206808.32846  18152210.21946  25134207.3544   25134214.4604
     -4877.1094      -3800.3454         15.2504         12.5004
   1948632.48048   1616154.03047  23021689.3624   23021695.3624
     -1861.8124      -1450.7634         32.7504         30.7504
   1776984.92245   1486780.20145  26605257.2614   26605261.9604
     -1437.7664      -1120.3374          8.0004          7.7504
  -2744869.34248  -2023617.78947  22954510.0894   22954515.7614
     -1861.7814      -1450.7394         33.7504         32.2504
  -4718213.12146  -3592795.48745  25392247.8944   25392254.0344
      1357.7974       1058.0244         14.5004         11.7504
   6675746.93146   7721630.40746  24779687.5194   24779693.4954
     -3646.5944      -2841.5024         16.2504         13.5004
 01  3 21  1 48 30.0070000  0  9G21G22G18G 6G17G28G23G 3G26
  -5170307.12346  -3929999.48746  24846215.7534   24846222.6834
       580.0164        451.9604         19.5004         16.7504
  12796024.45645   1866389.60545  26375718.0974   26375725.1444
     -3459.1724      -2695.4594          9.2504          7.0004
  -8072174.29848  -5942269.61147  22647686.5734   22647691.0504
     -1090.0624       -849.3994         30.0004         32.7504
  23353219.02146  18266296.36346  25162068.3784   25162075.8114
     -4883.6874      -3805.4714         15.5004         12.7504
   2004594.24148   1659760.65847  23032338.6284   23032344.7924
     -1869.0624      -1456.4124         32.2504         29.7504
   1820349.48445   1520570.74245  26613509.6284   26613517.2264
     -1453.2974      -1132.4394          8.2504          7.2504
  -2688873.01248  -1979984.30147  22965165.6124   22965171.5654
     -1871.3914      -1458.2264         33.7504         31.5004
  -4758815.05046  -3624433.28846  25384521.0194   25384526.7614
      1348.9064       1051.0964         14.0004         12.0004
   6785379.90946   7807058.72346  24800549.4254   24800555.5074
     -3662.3754      -2853.7994         16.0004         14.0004
 01  3 21  1 49  0.0070000  0  9G21G22G18G 6G17G28G23G 3G26
  -5187609.73847  -3943481.98346  24842923.3704   24842930.0154
       573.5634        446.9324         20.0004         17.0004
  12899914.07145   1947342.45945  26395486.8784   26395494.6984
     -3466.6874      -2701.3154          9.0004          8.0004
  -8039291.27348  -5916646.45047  22653943.9644   22653948.5464
     -1102.0474       -858.7384         29.5004         32.5004
  23499824.45846  18380534.26546  25189966.5424   25189973.3864
     -4889.9064      -3810.3174         14.7504         12.2504
   2060772.86748   1703536.21447  23043029.2844   23043035.2144
     -1876.0784      -1461.8794         32.5004         30.7504
   1864179.04745   1554723.57245  26621849.4724   26621857.2804
     -1468.5624      -1144.3344          7.7504          6.7504
  -2632590.37348  -1936127.67247  22975875.8784   22975881.8544
     -1880.6874      -1465.4714         33.7504         32.0004
  -4799150.72146  -3655863.62646  25376846.0114   25376852.4444
      1340.2034       1044.3144         14.0004         12.0004
   6895484.31046   7892854.38146  24821502.0974   24821507.4764
     -3677.8284      -2865.8404         17.0004         14.0004
 01  3 21  1 49 30.0070000  0  9G21G22G18G 6G17G28G23G 3G26
  -5204719.30347  -3956814.05646  24839667.2454   24839673.7844
       567.0784        441.8794         20.2504         16.7504
  13004025.95645   2028468.57645  26415298.6674   26415305.5384
     -3474.0944      -2707.0864          8.2504          8.2504
  -8006049.12148  -5890743.45847  22660269.8234   22660274.3704
     -1114.0784       -868.1134         29.7504         32.7504
  23646614.90146  18494916.32846  25217899.2844   25217907.8314
     -4896.0944      -3815.1384         14.0004         12.0004
   2117161.45448   1747475.37947  23053759.6904   23053765.6554
     -1883.1564      -1467.3944         32.5004         30.2504
   1908465.46745   1589232.47745  26630276.3864   26630284.2534
     -1483.8594      -1156.2544          7.5004          6.5004
  -2576030.38448  -1892054.94447  22986638.6674   22986644.6444
     -1889.9534      -1472.6914         33.2504         31.7504
  -4839225.01346  -3687090.28445  25369220.1044   25369226.0584
      1331.4064       1037.4594         14.5004         11.7504
   7006050.30246   7979009.71846  24842541.7694   24842547.5464
     -3693.2194      -2877.8334         17.0004         13.7504
 01  3 21  1 50  0.0070000  0  9G21G22G18G 6G17G28G23G 3G26
  -5221632.46847  -3969993.09046  24836448.9874   24836455.4214
       560.5164        436.7654         20.5004         17.0004
  13108361.08145   2109768.61745  26435152.5584   26435158.7454
     -3481.5164      -2712.8694          8.0004          7.7504
  -7972445.38548  -5864558.70647  22666664.2614   22666668.8434
     -1126.1414       -877.5124         29.5004         32.7504
  23793591.33846  18609443.29646  25245869.0264   25245875.9444
     -4902.2504      -3819.9354         14.7504         12.2504
   2173764.00048   1791581.27047  23064530.5424   23064536.5654
     -1890.3124      -1472.9714         31.7504         29.7504
   1953211.27544   1624099.37045  26638791.2224   26638796.5424
     -1499.1874      -1168.1984          7.0004          7.0004
  -2519191.03448  -1847764.52347  22997454.5584   22997460.5344
     -1899.2814      -1479.9594         33.0004         31.2504
  -4879032.29146  -3718108.89845  25361644.7764   25361651.0814
      1322.4224       1030.4594         14.2504         11.5004
   7117078.87846   8065525.53146  24863669.8864   24863675.4524
     -3708.6254      -2889.8384         17.5004         14.0004
 01  3 21  1 50 30.0070000  0  9G21G22G18G 6G17G28G23G 3G26
  -5238348.50047  -3983018.50546  24833268.0894   24833274.2654
       553.9694        431.6644         21.0004         17.2504
  13212917.58745   2191241.19345  26455048.6204   26455058.6204
     -3488.8124      -2718.5554          7.5004          8.0004
  -7938479.89348  -5838092.06947  22673127.6904   22673132.0854
     -1138.1564       -886.8754         29.5004         32.7504
  23940752.15946  18724113.99946  25273872.6044   25273880.6474
     -4908.3284      -3824.6714         15.2504         12.7504
   2230581.90748   1835854.96747  23075342.6124   23075348.6364
     -1897.4694      -1478.5474         31.2504         30.0004
   1998416.55844   1659324.19645  26647393.9564   26647398.6674
     -1514.4374      -1180.0814          7.2504          6.7504
  -2462072.97848  -1803256.93147  23008324.0974   23008330.0504
     -1908.5164      -1487.1554         33.5004         31.7504
  -4918569.08346  -3748916.72646  25354120.8624   25354126.5344
      1313.4224       1023.4464         15.0004         12.7504
   7228568.33646   8152400.45146  24884885.7294   24884891.6014
     -3723.9374      -2901.7694         17.5004         14.2504
 01  3 21  1 51  0.0070000  0  9G21G22G18G 6G17G28G23G 3G26
  -5254869.77347  -3995892.17546  24830124.2294   24830130.3704
       547.4384        426.5754         21.5004         17.2504
  13317689.59645   2272881.64145  26474986.9254   26474993.7224
     -3495.9534      -2724.1194          8.0004          7.5004
  -7904156.17248  -5811346.29747  22679659.2614   22679663.7964
     -1150.0944       -896.1774         29.0004         32.5004
  24088092.30346  18838924.40046  25301909.8784   25301917.4294
     -4914.3124      -3829.3344         14.5004         12.5004
   2287613.00148   1880294.79547  23086195.3544   23086201.3904
     -1904.6094      -1484.1114         31.7504         29.5004
   2044077.84445   1694904.42545  26656083.6904   26656090.5114
     -1529.6414      -1191.9284          8.0004          6.5004
  -2404680.15048  -1758535.23147  23019245.5734   23019251.4334
     -1917.6724      -1494.2904         33.5004         31.7504
  -4957835.53246  -3779513.90246  25346649.3394   25346655.1514
      1304.3284       1016.3604         15.5004         12.5004
   7340513.78246   8239630.68646  24906188.1514   24906194.4094
     -3739.0944      -2913.5804         17.0004         14.5004
 01  3 21  1 51 30.0070000  0  9G21G22G18G 6G17G28G23G 3G26
  -5271191.52047  -4008610.36846  24827018.4404   24827025.0734
       540.6414        421.2784         21.7504         17.7504
  13422678.46244   2354691.07545  26494965.4334   26494973.3704
     -3503.2814      -2729.8304          7.2504          6.5004
  -7869470.73448  -5784318.66447  22686259.4874   22686264.3044
     -1162.2974       -905.6864         28.7504         32.5004
  24235613.95246  18953876.23045  25329982.5424   25329990.7264
     -4920.4844      -3834.1444         13.5004         11.7504
   2344862.40748   1924904.72747  23097089.3784   23097095.4134
     -1912.0474      -1489.9074         31.5004         29.5004
   2090198.90545   1730842.88645  26664859.8704   26664866.5264
     -1545.1094      -1203.9814          7.5004          6.7504
  -2347009.51648  -1713597.05847  23030219.9254   23030225.7964
     -1927.0624      -1501.6074         33.7504         31.7504
  -4996824.79246  -3809895.09646  25339229.5424   25339235.3434
      1294.9064       1009.0184         15.7504         13.2504
   7452917.00146   8327217.63046  24927577.7694   24927583.8394
     -3754.4694      -2925.5604         16.0004         13.7504
 01  3 21  1 52  0.0070000  0  9G21G22G18G 6G17G28G23G 3G26
  -5287311.44347  -4021171.29546  24823950.4954   24823956.9524
       534.1724        416.2384         21.5004         18.0004
  13527884.39445   2436669.59745  26514985.4094   26514993.3004
     -3510.2504      -2735.2604          7.5004          6.2504
  -7834421.55648  -5757007.59947  22692929.3004   22692934.2104
     -1174.1414       -914.9154         28.7504         32.7504
  24383317.63746  19068969.89345  25358089.6514   25358097.2024
     -4926.2504      -3838.6364         13.0004         11.5004
   2402333.35448   1969687.28747  23108025.8544   23108031.8194
     -1919.1724      -1495.4594         31.2504         29.5004
   2136781.64345   1767141.14745  26673724.1674   26673731.0504
     -1560.2344      -1215.7674          7.7504          6.7504
  -2289059.78648  -1668441.41347  23041247.3544   23041253.1554
     -1936.0784      -1508.6324         33.7504         32.0004
  -5035531.71946  -3840056.27646  25331863.3234   25331869.1714
      1285.7194       1001.8594         15.7504         13.0004
   7565778.48946   8415161.67446  24949054.6204   24949060.9134
     -3769.4534      -2937.2364         16.0004         13.5004
 01  3 21  1 52 30.0070000  0  9G21G22G18G 6G17G28G23G 3G26
  -5303241.07147  -4033583.93046  24820919.0344   24820925.7144
       527.6414        411.1494         21.5004         17.7504
  13633292.94945   2518806.09145  26535044.9794   26535051.7884
     -3517.1094      -2740.6054          8.5004          7.2504
  -7799021.58548  -5729423.18347  22699665.6514   22699670.4444
     -1186.0004       -924.1564         28.7504         32.7504
  24531188.77746  19184194.04946  25386228.9484   25386235.9014
     -4931.9844      -3843.1054         13.5004         12.2504
   2460014.60348   2014633.72447  23119002.1594   23119008.1714
     -1926.3914      -1501.0844         31.5004         29.5004
   2183813.12545   1803789.03145  26682675.1284   26682681.6444
     -1575.3594      -1227.5534          8.5004          7.5004
  -2230844.40548  -1623078.76047  23052325.4014   23052331.1904
     -1945.0944      -1515.6574         33.7504         32.0004
  -5073965.90946  -3870004.95246  25324550.2844   25324556.3434
      1276.3914        994.5904         16.2504         12.7504
   7679083.73046   8503451.48646  24970615.5344   24970621.0894
     -3784.3754      -2948.8644         15.7504         13.5004
 01  3 21  1 53  0.0070000  0  9G21G22G18G 6G17G28G23G 3G26
  -5318971.23247  -4045841.14946  24817925.5344   24817932.0974
       520.9534        405.9384         21.0004         18.0004
  13738910.22045   2601105.18945  26555142.3004   26555149.5344
     -3524.0944      -2746.0474          8.2504          6.7504
  -7763262.57748  -5701558.99347  22706470.3154   22706474.7574
     -1198.0164       -933.5194         29.2504         32.7504
  24679234.14246  19299553.94646  25414401.3864   25414408.5614
     -4937.7974      -3847.6344         14.5004         12.2504
   2517915.87148   2059751.60147  23130020.6284   23130026.4764
     -1933.7814      -1506.8434         31.7504         29.5004
   2231301.53845   1840792.99145  26691711.2764   26691718.5814
     -1590.6094      -1239.4364          8.2504          7.2504
  -2172355.65048  -1577503.09447  23063455.3704   23063461.2534
     -1954.2504      -1522.7924         33.5004         31.5004
  -5112115.80646  -3899732.07446  25317290.1124   25317295.7374
      1266.8284        987.1394         15.5004         13.2504
   7792839.31946   8592092.22046  24992261.9954   24992267.8314
     -3799.4064      -2960.5764         14.7504         12.7504
 01  3 21  1 53 30.0070000  0  9G21G22G18G 6G17G28G23G 3G26
  -5334505.11447  -4057945.43246  24814969.6904   24814976.4644
       514.5784        400.9704         21.5004         17.7504
  13844730.09044   2683562.18445  26575279.1514   26575289.8314
     -3530.6094      -2751.1244          7.2504          6.7504
  -7727148.19048  -5673417.88947  22713342.5584   22713347.3044
     -1209.6564       -942.5894         29.0004         32.5004
  24827448.60046  19415045.62246  25442606.1444   25442613.6364
     -4943.2034      -3851.8474         14.7504         12.5004
   2576034.89248   2105039.16447  23141080.1204   23141086.1084
     -1940.8754      -1512.3704         31.0004         29.2504
   2279243.18645   1878150.07045  26700833.7694   26700838.8434
     -1605.5314      -1251.0634          7.7504          7.7504
  -2113597.72648  -1531717.68447  23074636.7534   23074642.5654
     -1963.0004      -1529.6104         33.7504         31.7504
  -5149981.58446  -3929237.84146  25310084.3154   25310091.1984
      1257.5004        979.8704         14.7504         12.5004
   7907039.99046   8681079.77546  25013994.1984   25013999.7884
     -3814.0004      -2971.9484         15.2504         13.0004
 01  3 21  1 54  0.0080000  0  9G21G22G18G 6G17G28G23G 3G26
  -5349842.13247  -4069896.31146  24812050.9774   24812058.0594
       507.8914        395.7594         21.0004         17.5004
  13950753.97545   2766178.05645  26595455.4844   26595462.5904
     -3537.3594      -2756.3844          7.5004          6.7504
  -7690677.48048  -5644999.13247  22720282.7344   22720287.7034
     -1221.5784       -951.8794         29.0004         33.0004
  24975835.63446  19530671.76846  25470843.5704   25470850.3914
     -4948.8914      -3856.2784         14.7504         12.2504
   2634375.07548   2150499.05747  23152181.5554   23152187.4964
     -1948.2974      -1518.1534         31.2504         29.2504
   2327639.54345   1915861.53245  26710043.1334   26710050.4024
     -1620.7344      -1262.9104          7.7504          7.0004
  -2054569.26448  -1485721.47047  23085869.3674   23085875.3094
     -1972.0474      -1536.6604         33.5004         31.7504
  -5187561.36846  -3958520.72446  25302933.3284   25302939.5624
      1247.7664        972.2854         15.0004         12.5004
   8021687.86546   8770415.80546  25035811.2504   25035816.7464
     -3828.8754      -2983.5394         15.2504         12.7504
 01  3 21  1 54 30.0080000  0  9G21G22G18G 6G17G28G23G 3G26
  -5364978.18447  -4081690.59546  24809170.6954   24809177.4924
       501.1724        390.5244         21.5004         18.0004
  14056975.35345   2848947.85945  26615669.1254   26615676.7464
     -3544.0784      -2761.6194          8.0004          7.7504
  -7653850.74448  -5616302.94847  22727290.9374   22727295.5784
     -1233.5474       -961.2054         29.7504         33.5004
  25124385.97346  19646425.16646  25499112.2894   25499119.2194
     -4954.4694      -3860.6254         14.2504         12.0004
   2692936.09648   2196131.03447  23163325.7974   23163331.7854
     -1955.7974      -1523.9984         32.5004         29.7504
   2376489.07545   1953926.10245  26719339.6254   26719345.6374
     -1635.9374      -1274.7564          9.0004          8.0004
  -1995272.72048  -1439516.36447  23097153.2894   23097159.1374
     -1981.0624      -1543.6854         34.0004         32.0004
  -5224847.19146  -3987574.55546  25295837.2814   25295843.4694
      1237.9224        964.6144         14.2504         12.2504
   8136775.73846   8860094.69246  25057711.5624   25057717.2234
     -3843.6724      -2995.0694         15.2504         12.2504
 01  3 21  1 55  0.0080000  0  9G21G22G18G 6G17G28G23G 3G26
  -5379914.57647  -4093329.30146  24806328.4534   24806334.6414
       494.5944        385.3984         21.5004         17.7504
  14163395.00345   2931872.19445  26635920.1484   26635930.4414
     -3550.5624      -2766.6724          7.7504          7.0004
  -7616667.67848  -5587329.10247  22734366.4144   22734370.9494
     -1245.3284       -970.3864         29.5004         33.2504
  25273101.98746  19762307.67045  25527410.1874   25527416.6334
     -4959.9064      -3864.8624         13.2504         11.2504
   2751720.50348   2241937.07547  23174511.9454   23174517.9104
     -1963.1724      -1529.7444         32.0004         29.7504
   2425792.86445   1992344.61345  26728721.7664   26728727.7894
     -1650.9844      -1286.4814          8.2504          7.7504
  -1935707.85548  -1393102.17547  23108488.1804   23108493.8874
     -1989.9224      -1550.5884         33.7504         32.2504
  -5261838.05646  -4016398.56246  25288798.9614   25288805.2304
      1228.1094        956.9684         15.0004         12.5004
   8252304.63446   8950117.22446  25079696.2584   25079701.8244
     -3858.2504      -3006.4294         15.5004         12.5004
 01  3 21  1 55 30.0080000  0  9G21G22G18G 6G17G28G23G 3G26
  -5394652.55747  -4104813.39346  24803523.8054   24803530.1334
       487.8914        380.1754         21.7504         18.0004
  14270008.44945   3014947.44345  26656207.6804   26656215.8754
     -3557.0474      -2771.7254          7.5004          7.0004
  -7579130.47148  -5558079.31547  22741509.3204   22741514.0554
     -1257.2034       -979.6394         29.2504         33.0004
  25421979.97746  19878316.38845  25555741.6724   25555747.9184
     -4965.3754      -3869.1234         13.2504         11.5004
   2810727.54248   2287916.59047  23185740.7034   23185746.6804
     -1970.6874      -1535.6014         32.0004         29.2504
   2475548.57345   2031115.27545  26738190.3054   26738197.5394
     -1666.1254      -1298.2794          8.0004          7.5004
  -1875877.19848  -1346480.87047  23119873.3054   23119879.1764
     -1998.8444      -1557.5414         33.7504         32.0004
  -5298532.53846  -4044991.63046  25281815.8914   25281821.7504
      1218.1094        949.1764         15.5004         12.7504
   8368270.85346   9040480.53845  25101763.6874   25101769.3944
     -3872.8914      -3017.8374         15.0004         11.7504
 01  3 21  1 56  0.0080000  0  9G21G22G18G 6G17G28G23G 3G26
  -5409194.36847  -4116144.63546  24800756.6724   24800763.0004
       481.5314        375.2194         22.0004         18.2504
  14376810.02845   3098169.32145  26676531.5164   26676539.1024
     -3563.0784      -2776.4254          8.0004          7.0004
  -7541242.42748  -5528556.14547  22748719.4454   22748723.9574
     -1268.6874       -988.5884         30.0004         33.5004
  25571015.02846  19994447.48845  25584102.1724   25584110.8944
     -4970.3444      -3872.9954         13.2504         11.7504
   2869955.42748   2334068.20047  23197011.3594   23197017.3124
     -1977.8754      -1541.2014         31.7504         29.5004
   2525752.53245   2070235.20445  26747743.1484   26747748.5984
     -1680.8754      -1309.7734          8.0004          6.7504
  -1815784.84548  -1299655.65947  23131308.5704   23131314.5474
     -2007.3594      -1564.1764         33.7504         32.0004
  -5334931.05946  -4073354.07746  25274889.3754   25274895.2694
      1208.4064        941.6154         15.7504         13.0004
   8484669.43046   9131180.74745  25123912.9774   25123918.8594
     -3887.0314      -3028.8564         14.5004         11.5004
 01  3 21  1 56 30.0080000  0  9G21G22G18G 6G17G28G23G 3G26
  -5423539.32347  -4127322.49046  24798026.5394   24798033.8094
       474.8594        370.0204         21.7504         18.5004
  14483797.03445   3181535.65345  26696890.0704   26696900.8204
     -3569.3284      -2781.2954          7.5004          7.2504
  -7503004.59248  -5498760.41147  22755995.8834   22756000.2894
     -1280.4374       -997.7444         30.0004         33.5004
  25720204.70346  20110699.09045  25612491.9224   25612499.8594
     -4975.5624      -3877.0624         14.0004         11.2504
   2929404.54848   2380392.19347  23208324.2344   23208330.1644
     -1985.3594      -1547.0334         32.2504         29.5004
   2576403.93645   2109703.82045  26757382.4534   26757389.8754
     -1695.8444      -1321.4374          8.2504          7.7504
  -1755432.17548  -1252627.59747  23142793.4844   23142799.1334
     -2016.0944      -1570.9824         33.7504         32.0004
  -5371031.33746  -4101484.12246  25268019.6174   25268025.6414
      1198.3284        933.7624         15.2504         13.2504
   8601497.59346   9222215.71445  25146144.9064   25146151.4224
     -3901.4374      -3040.0814         14.2504         11.0004
 01  3 21  1 57  0.0080000  0  9G21G22G18G 6G17G28G23G 3G26
  -5437688.05047  -4138347.41946  24795334.4924   24795341.0194
       468.2814        364.8944         22.0004         18.2504
  14590966.49345   3265044.14645  26717284.5474   26717292.2854
     -3575.3914      -2786.0194          8.0004          7.0004
  -7464418.28648  -5468693.14047  22763338.2664   22763343.0004
     -1292.0944      -1006.8264         29.2504         33.2504
  25869546.22446  20227068.99645  25640910.7114   25640919.1764
     -4980.6414      -3881.0194         13.2504         11.2504
   2989075.21948   2426888.83147  23219678.9454   23219685.0044
     -1992.7974      -1552.8294         31.2504         29.2504
   2627501.24545   2149519.93145  26767106.0234   26767113.8444
     -1710.7344      -1333.0404          8.5004          8.0004
  -1694821.05148  -1205398.14447  23154327.1954   23154332.9844
     -2024.7344      -1577.7154         33.7504         31.7504
  -5406830.84846  -4129379.81646  25261207.1804   25261213.4494
      1188.2034        925.8734         15.2504         13.5004
   8718752.58046   9313583.27045  25168457.8984   25168463.1134
     -3915.6254      -3051.1364         14.7504         11.0004
 01  3 21  1 57 30.0080000  0  9G21G22G18G 6G17G28G23G 3G26
  -5451640.02647  -4149219.05346  24792679.2664   24792685.7814
       461.8594        359.8904         22.2504         18.5004
  14698316.98745   3348693.77445  26737712.3834   26737720.8714
     -3581.2814      -2790.6094          7.5004          7.5004
  -7425483.10448  -5438354.01447  22770747.4694   22770752.1684
     -1303.5784      -1015.7754         29.5004         33.0004
  26019038.54346  20343556.42945  25669358.6804   25669367.6254
     -4985.5004      -3884.8054         13.0004         11.2504
   3048969.40348   2473559.63147  23231076.3834   23231082.4304
     -2000.1414      -1558.5514         31.2504         28.7504
   2679044.45545   2189683.44145  26776913.6644   26776920.6874
     -1725.4534      -1344.5094          8.2504          8.5004
  -1633951.65048  -1157967.42947  23165910.1954   23165916.1484
     -2033.2034      -1584.3144         33.5004         31.5004
  -5442325.96446  -4157038.31246  25254452.4304   25254458.3364
      1178.1414        918.0324         15.5004         13.0004
   8836432.95746   9405282.28645  25190852.2814   25190858.3284
     -3929.6564      -3062.0704         15.0004         11.0004
 01  3 21  1 58  0.0080000  0  9G21G22G18G 6G17G28G23G 3G26
  -5465392.99247  -4159935.60346  24790062.3444   24790068.7424
       455.1724        354.6794         22.7504         18.5004
  14805847.03144   3432483.26345  26758174.5624   26758183.5194
     -3587.2344      -2795.2484          7.2504          7.2504
  -7386198.17148  -5407742.36247  22778223.2344   22778227.6644
     -1315.2504      -1024.8704         29.5004         33.2504
  26168681.10346  20460160.92645  25697834.4374   25697842.9844
     -4990.4844      -3888.6894         12.2504         10.7504
   3109089.60848   2520406.54547  23242517.1804   23242523.0984
     -2007.7034      -1564.4444         32.2504         29.2504
   2731034.63345   2230195.24545  26786807.6174   26786812.5044
     -1740.3594      -1356.1244          8.2504          8.2504
  -1572823.50248  -1110335.09247  23177542.5944   23177548.5234
     -2041.8444      -1591.0474         33.7504         31.5004
  -5477512.57246  -4184456.42646  25247756.9614   25247763.1254
      1167.7814        909.9594         15.2504         13.7504
   8954537.90746   9497312.13845  25213326.4064   25213332.7814
     -3943.8124      -3073.1014         14.2504         11.0004
 01  3 21  1 58 30.0080000  0  9G21G22G18G 6G17G28G23G 3G26
  -5478948.89147  -4170498.60146  24787482.8364   24787489.0234
       448.4844        349.4684         23.0004         18.7504
  14913551.91144   3516409.07545  26778671.0164   26778679.4454
     -3593.1254      -2799.8384          7.2504          6.7504
  -7346566.32748  -5376860.38447  22785764.5864   22785769.1214
     -1326.9224      -1033.9654         29.5004         33.2504
  26318469.77346  20576879.26445  25726338.6954   25726347.0434
     -4995.4534      -3892.5614         12.7504         11.0004
   3169434.47648   2567428.52947  23254000.2894   23254006.2074
     -2015.3284      -1570.3864         32.0004         29.5004
   2783468.80345   2271053.02445  26796784.8524   26796791.7814
     -1755.2664      -1367.7394          7.5004          7.7504
  -1511439.74748  -1062503.58847  23189223.3754   23189229.3054
     -2050.4534      -1597.7564         33.5004         31.5004
  -5512389.94246  -4211633.56846  25241119.7274   25241126.3834
      1157.3284        901.8144         15.0004         13.5004
   9073063.20646   9589669.55245  25235880.6804   25235886.4574
     -3957.8754      -3084.0584         13.0004         11.2504
 01  3 21  1 59  0.0080000  0  8G21G22G18G 6G17G23G 3G26
  -5492309.70547  -4180909.57046  24784939.9774   24784946.2344
       442.1564        344.5374         22.7504         18.7504
  15021426.46144   3600467.00845  26799198.2664   26799204.5004
     -3598.5624      -2804.0754          7.2504          5.7504
  -7306590.90048  -5345710.69047  22793371.8594   22793376.5704
     -1338.1874      -1042.7444         29.2504         33.2504
  26468399.65646  20693707.63845  25754869.8674   25754877.0784
     -4999.9374      -3896.0554         13.5004         11.5004
   3230002.26348   2614624.22047  23265525.9224   23265531.8754
     -2022.5944      -1576.0474         32.0004         29.5004
  -1449804.34048  -1014475.98347  23200952.1334   23200958.1444
     -2058.6564      -1604.1484         33.5004         31.7504
  -5546958.15846  -4238569.82046  25234542.0084   25234548.3014
      1147.1414        893.8764         15.5004         13.7504
   9192003.73846   9682350.50645  25258514.4614   25258520.4844
     -3971.5314      -3094.7004         12.7504         10.2504
 01  3 21  1 59 30.0080000  0  9G21G22G18G 6G17G14G23G 3G26
  -5505471.48247  -4191165.45746  24782435.1094   24782441.7304
       435.4534        339.3144         22.2504         18.7504
  15129472.63444   3684658.73045  26819758.9374   26819768.1764
     -3604.3124      -2808.5554          7.0004          6.2504
  -7266268.23848  -5314290.41747  22801045.1094   22801049.6334
     -1349.8124      -1051.8024         29.7504         33.2504
  26618472.85146  20810647.67545  25783427.6174   25783435.6134
     -5004.7504      -3899.8054         13.2504         11.0004
   3290797.99048   2661997.51947  23277095.0084   23277101.0664
     -2030.2814      -1582.0374         32.2504         29.7504
    -53924.50554                  26722295.3594
      2344.7664                          6.5004
  -1387914.17448   -966249.86447  23212729.6484   23212735.4844
     -2067.1724      -1610.7834         33.7504         31.7504
  -5581210.23346  -4265259.72046  25228023.8834   25228030.7424
      1136.4844        885.5724         16.0004         14.2504
   9311361.32145   9775356.44045  25281227.2664   25281233.7814
     -3985.4374      -3105.5364         11.7504         10.5004
 01  3 21  2  0  0.0080000  0  9G21G22G18G 6G17G14G23G 3G26
  -5518436.07747  -4201267.69946  24779968.0084   24779974.5944
       428.8134        334.1404         21.7504         19.0004
  15237685.74243   3768980.59745  26840349.8054   26840355.1954
     -3609.8754      -2812.8904          5.7504          6.7504
  -7225601.15048  -5282601.75547  22808783.6484   22808788.1374
     -1361.3444      -1060.7874         29.5004         33.0004
  26768685.22246  20927696.17545  25812012.2734   25812019.6254
     -5009.4224      -3903.4464         12.5004         10.5004
   3351820.72748   2709547.71547  23288707.3054   23288713.3054
     -2037.9224      -1587.9914         32.5004         29.5004
   -124269.36444                  26708908.1174
      2344.8594                          6.2504
  -1325772.45448   -917827.72547  23224554.7504   23224560.5394
     -2075.6254      -1617.3704         33.7504         31.5004
  -5615145.40146  -4291702.68546  25221566.3594   25221572.4774
      1125.8134        877.2564         16.5004         14.5004
   9431131.58945   9868683.93945  25304019.2974   25304024.8874
     -3999.2344      -3116.2874         11.2504         10.0004
 01  3 21  2  0 30.0080000  0  9G21G22G18G 6G17G14G23G 3G26
  -5531202.58047  -4211215.56146  24777538.8124   24777544.8244
       422.2814        329.0504         22.7504         19.0004
  15346063.25844   3853430.38645  26860974.3754   26860983.6724
     -3615.2504      -2817.0784          7.0004          6.2504
  -7184589.76348  -5250644.81847  22816587.7974   22816592.3914
     -1372.7194      -1069.6514         29.2504         33.0004
  26919035.27545  21044851.94545  25840622.5234   25840629.8164
     -5013.8754      -3906.9164         11.5004          9.7504
   3413072.05048   2757276.02647  23300362.9534   23300368.8944
     -2045.4694      -1593.8724         32.0004         29.2504
   -194617.16044    -10961.71655  26695522.2424   26695531.8674
      2344.9844       1827.2614          7.2504          7.0004
  -1263379.71848   -869209.99847  23236427.4304   23236433.3244
     -2083.8754      -1623.7994         33.0004         31.2504
  -5648760.33446  -4317896.10546  25215169.8054   25215176.1444
      1115.1884        868.9774         16.7504         14.5004
   9551312.91445   9962331.73345  25326888.8674   25326894.5394
     -4012.8124      -3126.8674         10.7504         10.0004
 01  3 21  2  1  0.0080000  0  9G21G22G18G 6G17G14G23G 3G26
  -5543775.84547  -4221012.85246  24775146.2114   24775152.6564
       415.7664        323.9734         23.0004         19.5004
  15454597.18945   3938002.25245  26881629.8914   26881637.9454
     -3620.5004      -2821.1694          8.0004          7.0004
  -7143240.36448  -5218424.48947  22824456.3674   22824460.9144
     -1384.0624      -1078.4904         29.5004         33.0004
  27069515.33545  21162109.01045  25869257.7344   25869265.2974
     -5018.2814      -3910.3494         11.7504          9.7504
   3474547.16648   2805178.73047  23312061.3444   23312067.2974
     -2053.0314      -1599.7654         31.7504         29.0004
   -264970.43345    -65782.29545  26682134.6024   26682144.4964
      2345.0314       1827.2974          7.5004          7.5004
  -1200742.71448   -820401.92447  23248346.9614   23248352.8794
     -2092.0784      -1630.1914         33.2504         31.2504
  -5682057.95346  -4343842.28246  25208833.4774   25208839.6174
      1104.4844        860.6374         16.7504         14.2504
   9671897.24045  10056293.57945  25349835.4064   25349840.3634
     -4026.3124      -3137.3864         10.7504          9.7504
 01  3 21  2  1 30.0080000  0  9G21G22G18G 6G17G14G23G 3G26
  -5556151.40147  -4230656.08946  24772791.5704   24772797.9924
       409.1564        318.8234         23.5004         19.5004
  15563289.99845   4022697.82945  26902312.2584   26902322.7734
     -3625.7974      -2825.2964          7.5004          6.5004
  -7101549.06648  -5185937.75047  22832390.0084   22832394.6254
     -1395.4694      -1087.3784         29.7504         33.5004
  27220127.95345  21279469.40445  25897918.7894   25897926.5164
     -5022.6874      -3913.7824         11.7504          9.7504
   3536251.56748   2853260.09647  23323803.3284   23323809.2934
     -2060.7194      -1605.7554         31.5004         29.0004
   -335321.63845   -120601.23945  26668747.0474   26668753.3054
      2344.9224       1827.2124          8.0004          7.2504
  -1137857.84048   -771400.70347  23260313.6174   23260319.4534
     -2100.3594      -1636.6444         33.7504         31.5004
  -5715030.81746  -4369535.38446  25202558.6024   25202564.2154
      1093.5784        852.1394         16.7504         14.2504
   9792886.99745  10150571.32045  25372858.6094   25372863.6024
     -4039.7814      -3147.8814         10.0004          9.5004
 01  3 21  2  2  0.0080000  0  9G21G22G18G 6G17G14G23G 3G26
  -5568329.03847  -4240145.09746  24770473.6874   24770480.0744
       402.4694        313.6124         22.7504         19.5004
  15672139.54444   4107515.54945  26923025.4144   26923036.5164
     -3631.0314      -2829.3754          7.2504          7.7504
  -7059516.27448  -5153184.90047  22840388.4924   22840393.0514
     -1406.9224      -1096.3034         29.7504         33.5004
  27370871.33246  21396931.68545  25926605.5234   25926613.0624
     -5027.0624      -3917.1924         12.7504         10.0004
   3598186.38648   2901521.00747  23335589.0944   23335595.0824
     -2068.5004      -1611.8184         31.5004         28.7504
   -405667.60845   -175416.17245  26655360.5394   26655368.7814
      2344.5944       1826.9564          7.5004          7.0004
  -1074726.07048   -722207.09547  23272327.1484   23272333.0554
     -2108.6414      -1643.0974         33.5004         31.2504
  -5747676.03146  -4394973.18246  25196346.2274   25196352.1444
      1082.5164        843.5194         16.2504         14.2504
   9914279.99945  10245163.29245  25395958.7664   25395964.3914
     -4053.2974      -3158.4134          9.7504          9.5004
 01  3 21  2  2 30.0080000  0  9G21G22G18G 6G17G14G23G 3G26
  -5580308.21347  -4249479.46046  24768193.9304   24768200.7734
       396.1884        308.7184         22.2504         19.7504
  15781142.26644   4192452.60545  26943767.3984   26943776.2854
     -3635.7504      -2833.0524          7.0004          7.5004
  -7017143.03048  -5120166.77747  22848451.8364   22848456.3244
     -1417.9224      -1104.8744         29.7504         33.5004
  27521742.80445  21514493.73145  25955314.4534   25955322.0744
     -5030.9694      -3920.2354         11.7504         10.0004
   3660352.23548   2949961.94147  23347418.7344   23347424.6294
     -2075.8594      -1617.5534         31.7504         29.0004
   -476005.80745   -230224.95545  26641975.3914   26641982.1764
      2344.6414       1826.9934          7.5004          6.5004
  -1011349.05248   -672822.39247  23284387.4064   23284393.3014
     -2116.4534      -1649.1844         33.5004         31.2504
  -5779991.59646  -4420154.12146  25190197.2734   25190203.5784
      1071.8754        835.2274         16.7504         14.2504
  10036073.30445  10340067.18545  25419135.3594   25419142.0274
     -4066.2194      -3168.4824          9.7504          9.7504
 01  3 21  2  3  0.0080000  0  9G21G22G18G 6G17G14G23G 3G26
  -5592095.49647  -4258664.28746  24765951.1334   24765958.0624
       389.5784        303.5674         23.0004         19.7504
  15890288.81545   4277501.77545  26964537.5554   26964548.6214
     -3640.7344      -2836.9364          7.5004          7.0004
  -6974436.71848  -5086889.10747  22856578.5864   22856582.8634
     -1429.2194      -1113.6774         30.0004         33.2504
  27672733.56845  21632148.77945  25984045.8364   25984054.3124
     -5035.1414      -3923.4864         10.5004          9.7504
   3722743.35948   2998578.41847  23359291.0394   23359297.0624
     -2083.6094      -1623.5924         30.7504         28.7504
   -546339.93045   -285030.58345  26628590.0864   26628598.9264
      2344.2344       1826.6764          7.7504          6.7504
   -947734.47548   -623252.56947  23296492.9534   23296498.9774
     -2124.5784      -1655.5154         33.7504         31.7504
  -5811981.11246  -4445080.98546  25184108.2584   25184114.5984
      1060.7034        826.5224         16.2504         14.5004
  10158258.03445  10435276.07445  25442386.9304   25442392.1214
     -4079.4534      -3178.7954         10.0004          9.2504
 01  3 21  2  3 30.0080000  0  9G21G22G18G 6G17G14G23G 3G26
  -5603683.79047  -4267694.06246  24763745.5394   24763752.3364
       383.0004        298.4424         22.7504         19.7504
  15999583.82545   4362666.60445  26985336.3834   26985342.3364
     -3645.5784      -2840.7104          7.5004          7.0004
  -6931391.13948  -5053347.08447  22864769.8444   22864774.3324
     -1440.4694      -1122.4434         29.7504         33.5004
  27823848.75745  21749900.76045  26012802.6094   26012811.0044
     -5039.1874      -3926.6404         10.7504          9.7504
   3785367.83948   3047376.72747  23371208.3444   23371214.2974
     -2091.3444      -1629.6194         31.0004         28.5004
   -616659.89945   -339825.21345  26615209.3594   26615216.9454
      2343.7664       1826.3114          8.2504          7.5004
   -883876.36848   -573492.97647  23308644.7194   23308650.4024
     -2132.6094      -1661.7744         33.7504         32.0004
  -5843634.93246  -4469746.27446  25178085.9374   25178091.8324
      1049.5314        817.8174         16.5004         14.7504
  10280838.76245  10530793.55445  25465713.1954   25465719.2194
     -4092.5624      -3189.0104         10.7504          9.0004
 01  3 21  2  4  0.0080000  0  9G21G22G18G 6G17G14G23G 3G26
  -5615076.43047  -4276571.37346  24761577.7344   24761583.9694
       376.4534        293.3404         23.2504         19.7504
  16109021.51944   4447942.62845  27006161.8834   27006172.7154
     -3650.2974      -2844.3874          7.2504          7.5004
  -6888010.52048  -5019543.99047  22873024.9844   22873029.4844
     -1451.6414      -1131.1494         30.0004         33.5004
  27975082.79045  21867745.35545  26041581.7584   26041590.5164
     -5043.1254      -3929.7084         11.2504         10.0004
   3848223.13048   3096354.89147  23383169.1564   23383175.1564
     -2099.0624      -1635.6334         30.7504         28.5004
   -686966.34445   -394609.31345  26601830.6644   26601839.5744
      2343.2504       1825.9094          8.2504          7.2504
   -819779.52248   -523547.37247  23320841.8754   23320847.6644
     -2140.5624      -1667.9714         33.7504         31.5004
  -5874954.04946  -4494150.74446  25172125.8444   25172131.7734
      1038.3134        809.0754         16.5004         14.7504
  10403809.54445  10626614.96145  25489113.4534   25489118.5044
     -4105.5314      -3199.1154         10.7504          9.0004
 01  3 21  2  4 30.0080000  0  9G21G22G18G 6G17G14G23G 3G26
  -5626269.76147  -4285293.38546  24759447.6024   24759453.5084
       370.0004        288.3124         23.2504         19.5004
  16218602.80644   4533330.47445  27027014.2274   27027023.2894
     -3654.8444      -2847.9304          6.7504          7.0004
  -6844291.89048  -4985477.50747  22881344.2194   22881348.9654
     -1462.6874      -1139.7564         29.7504         33.5004
  28126436.88545  21985683.49245  26070383.3914   26070391.2234
     -5046.8914      -3932.6424         11.5004         10.2504
   3911313.59248   3145516.30747  23395175.0784   23395181.1484
     -2106.7344      -1641.6114         31.2504         28.5004
   -757253.00145   -449377.93145  26588455.3834   26588464.5864
      2342.7504       1825.5194          8.5004          7.7504
   -755441.79548   -473414.07147  23333084.8674   23333090.8094
     -2148.3754      -1674.0584         33.5004         31.5004
  -5905932.07946  -4518289.42746  25166231.1254   25166237.1254
      1027.1094        800.3454         16.5004         15.0004
  10527171.29645  10722741.04545  25512588.1334   25512593.8054
     -4118.3444      -3209.0994         11.0004          9.0004
 01  3 21  2  5  0.0080000  0  9G21G28G18G 6G17G14G23G 3G26
  -5637269.56747  -4293864.59546  24757354.5624   24757360.8674
       363.4844        283.2354         23.2504         19.7504
     44573.97555                  26934079.4374
     -1943.4694                          8.0004
  -6800241.75348  -4951152.71247  22889726.7424   22889731.3944
     -1473.7974      -1148.4134         30.0004         33.7504
  28277903.17045  22103709.07645  26099206.9534   26099216.4144
     -5050.6564      -3935.5764         11.0004          9.7504
   3974634.44948   3194857.24247  23407224.6094   23407230.5744
     -2114.4844      -1647.6504         31.0004         28.5004
   -827522.33845   -504133.08845  26575083.2424   26575091.3204
      2342.0474       1824.9724          8.7504          7.5004
   -690869.87148   -423098.27147  23345372.4694   23345378.4344
     -2156.2344      -1680.1834         33.5004         31.5004
  -5936572.27446  -4542164.86946  25160400.1484   25160406.3714
      1015.7344        791.4814         16.5004         15.2504
  10650916.09545  10819165.60045  25536136.3364   25536142.2774
     -4131.1254      -3219.0584         11.0004          9.0004
 01  3 21  2  5 30.0080000  0  9G21G28G18G 6G17G14G23G 3G26
  -5648075.00047  -4302284.34746  24755298.3834   24755304.9694
       356.7664        277.9994         23.5004         20.0004
    103091.74145                  26945215.1174
     -1957.8594                          8.2504
  -6755860.84048  -4916570.15747  22898172.2504   22898176.6334
     -1485.0624      -1157.1924         30.2504         33.7504
  28429479.88845  22221820.72145  26128050.2424   26128058.5084
     -5054.5784      -3938.6324         10.0004          8.7504
   4038186.83948   3244378.60047  23419318.0314   23419323.9734
     -2122.4694      -1653.8724         30.7504         28.2504
   -897771.05945   -558872.15945  26561715.9774   26561722.0124
      2341.0784       1824.2174          8.7504          7.7504
   -626064.63048   -372600.66047  23357704.4694   23357710.3524
     -2164.2504      -1686.4294         33.5004         31.5004
  -5966871.71446  -4565774.79246  25154634.6644   25154641.2504
      1004.0784        782.3994         17.0004         15.2504
  10775041.79245  10915886.94345  25559756.4844   25559760.0704
     -4144.0314      -3229.1154         11.0004          9.2504
 01  3 21  2  6  0.0080000  0  9G21G28G18G 6G17G14G23G 3G26
  -5658682.47547  -4310549.84646  24753279.8914   24753286.3364
       350.3444        272.9954         24.2504         20.0004
    162036.60645     36769.03855  26956431.7424   26956436.9454
     -1971.8444      -1536.5024          8.5004          8.2504
  -6711146.20748  -4881727.56247  22906681.1484   22906685.5314
     -1496.0004      -1165.7144         30.0004         33.5004
  28581168.37445  22340019.43845  26156915.9614   26156925.2584
     -5058.0474      -3941.3354          9.7504          9.5004
   4101975.25248   3294083.86847  23431456.6804   23431462.6334
     -2130.1724      -1659.8744         31.0004         28.2504
   -967992.81645   -613590.18845  26548352.7034   26548361.8834
      2340.3134       1823.6204          8.7504          7.5004
   -561023.61948   -321919.33347  23370081.3914   23370087.2974
     -2171.8914      -1692.3824         33.2504         31.5004
  -5996824.17646  -4589114.33646  25148935.0944   25148941.7034
       992.6414        773.4864         17.5004         15.5004
  10899549.29345  11012905.81645  25583449.1254   25583454.1054
     -4156.5314      -3238.8564         10.2504          9.2504
 01  3 21  2  6 30.0080000  0  9G21G28G18G 6G17G14G23G 3G26
  -5669093.08547  -4318661.95546  24751298.9614   24751304.9614
       343.8914        267.9674         24.7504         20.0004
    221405.68345     83030.61545  26967729.5864   26967735.0124
     -1985.8754      -1547.4354          8.0004          7.5004
  -6666099.97248  -4846626.58447  22915253.0234   22915257.5704
     -1506.8914      -1174.2004         29.5004         33.5004
  28732965.12845  22458302.52345  26185801.7974   26185810.6484
     -5061.5164      -3944.0384          9.7504          9.2504
   4165999.21448   3343972.67947  23443639.9844   23443645.9264
     -2137.9064      -1665.9014         31.2504         28.5004
  -1038186.18845   -668286.10645  26534994.6564   26535002.7694
      2339.4534       1822.9504          9.2504          7.7504
   -495749.51448   -271056.38147  23382502.7114   23382508.6764
     -2179.5164      -1698.3244         33.5004         31.2504
  -6026428.31746  -4612182.46646  25143301.2424   25143307.8634
       981.1254        764.5134         17.0004         15.2504
  11024434.92245  11110219.32245  25607215.0554   25607220.3054
     -4168.9534      -3248.5354         10.5004          9.5004
 01  3 21  2  7  0.0080000  0  9G21G28G18G 6G17G14G23G 3G26
  -5679312.48547  -4326625.05946  24749354.1484   24749360.3944
       337.3444        262.8654         24.5004         20.0004
    281192.29545    129617.59545  26979106.0164   26979112.7664
     -1999.9694      -1558.4174          7.5004          7.2504
  -6620728.66648  -4811272.29947  22923886.8834   22923891.3594
     -1517.9224      -1182.7964         30.0004         33.7504
  28884862.38845  22576663.95645  26214708.4374   26214717.2774
     -5065.0164      -3946.7654         10.7504          9.5004
   4230253.99748   3394041.35247  23455867.0944   23455873.0124
     -2145.8124      -1672.0624         30.5004         28.2504
  -1108353.45045   -722961.69745  26521641.8674   26521649.4534
      2338.3134       1822.0624          9.0004          8.2504
   -430249.09148   -220017.08147  23394967.0314   23394972.9734
     -2187.2344      -1704.3384         33.7504         31.5004
  -6055687.09146  -4634981.48646  25137733.9304   25137740.1644
       969.3594        755.3454         18.2504         15.5004
  11149690.53045  11207821.11845  25631049.3054   25631055.2234
     -4181.4374      -3258.2634          9.2504          8.5004
